GFSSW_prec_cthk_000.txt.gz
RH
42 44 44 52 55 56 53 47 47 53 57 63 70 66 59 53 46 44 39 43 56 58 55 56 56 56 55 55 54 52 48 31 26 26 30 31 37 46 48 45 41 41 44 44 42
41 44 43 49 55 54 52 50 48 47 53 56 66 72 66 58 51 47 36 39 49 59 57 56 56 58 57 55 55 55 55 34 28 23 29 31 35 38 38 42 42 43 45 43 41
44 45 46 50 53 52 51 51 53 56 50 55 54 69 70 67 58 45 38 35 46 58 58 59 62 62 58 54 53 54 55 40 28 27 27 29 32 34 34 39 44 44 42 42 40
49 53 57 60 59 53 56 56 51 50 53 50 53 57 70 73 65 49 41 38 45 58 60 60 64 61 54 54 54 55 55 49 30 28 28 27 30 32 33 39 40 40 40 40 38
53 56 61 61 56 52 57 59 59 60 57 55 51 49 69 72 62 59 49 40 44 58 62 59 60 59 56 53 57 56 56 54 33 29 26 27 27 29 32 34 37 39 38 37 37
64 60 55 59 62 58 56 59 58 72 64 56 61 54 60 67 60 67 55 47 42 59 58 63 57 59 59 56 60 55 54 54 36 29 26 26 26 25 23 29 32 33 36 36 36
73 73 61 66 66 65 70 72 68 70 82 62 63 60 58 56 57 66 58 52 44 70 73 64 61 64 62 62 61 55 54 55 38 28 27 27 27 23 19 25 26 30 32 34 33
84 83 82 81 73 69 68 76 75 80 78 71 66 71 60 43 58 66 62 55 47 62 67 66 65 73 66 63 60 51 52 55 36 20 23 26 29 24 25 24 24 25 30 30 29
91 93 91 89 86 72 67 74 77 78 75 72 86 80 58 47 54 60 65 57 48 66 70 80 69 68 73 71 63 55 56 55 33 22 27 27 26 25 25 28 28 30 28 27 27
94 98 98 98 96 85 76 81 85 89 83 88 93 89 61 42 43 65 66 62 55 72 84 87 84 82 75 70 65 57 59 51 35 26 30 31 28 28 28 28 25 23 23 25 26
96 96 97 98 98 97 90 91 99 98 90 92 83 76 59 43 49 65 64 67 59 74 83 82 92 84 79 64 60 62 52 48 37 25 28 30 31 29 26 23 18 21 22 24 28
95 97 97 97 97 97 95 98 96 91 94 91 86 76 71 50 60 68 76 82 68 70 76 84 81 74 76 72 63 65 53 47 38 26 28 30 31 25 20 21 22 23 25 27 29
96 98 95 96 95 98 98 97 97 94 83 76 73 72 77 60 66 78 86 79 67 69 75 80 78 84 74 70 67 61 50 46 43 32 28 30 32 23 20 22 26 27 27 30 28
96 98 96 97 96 97 99 96 89 87 79 74 76 81 84 60 83 65 85 88 73 68 74 77 73 75 77 68 63 52 47 44 41 35 35 33 36 24 23 26 30 29 28 28 28
95 98 96 98 97 95 96 97 94 98 96 85 89 88 88 75 79 84 94 85 72 69 70 66 65 73 74 61 53 50 47 43 40 34 32 33 35 27 27 30 33 33 30 29 28
93 97 95 96 96 96 97 97 99 98 96 97 98 97 96 97 80 92 98 91 83 73 70 69 66 72 64 55 53 53 46 44 43 36 38 30 33 29 28 26 31 32 30 27 28
87 93 98 98 98 97 97 98 99 94 87 95 95 96 95 94 86 95 97 96 89 83 81 72 68 63 54 56 53 48 46 52 50 47 39 28 32 24 24 24 25 28 28 28 29
76 85 88 93 99 99 99 98 98 90 86 88 90 94 94 87 95 95 94 87 85 74 73 74 66 65 53 53 49 43 45 50 48 48 38 30 33 25 23 22 24 26 30 33 33
66 73 78 86 94 98 99 99 94 88 85 86 89 96 97 93 88 91 91 80 77 71 60 74 67 55 51 46 41 39 43 38 44 43 43 39 31 24 25 26 29 31 33 36 38
56 70 80 84 92 99 98 97 97 91 84 85 87 92 91 86 80 84 90 77 75 71 68 62 63 56 49 42 36 37 34 40 44 44 44 39 34 32 31 33 34 37 39 42 41
54 66 80 83 89 99 97 96 97 90 91 95 82 81 78 73 75 81 85 79 71 70 64 58 54 54 44 40 37 36 34 32 38 40 42 42 36 31 33 37 39 42 42 41 40
55 64 75 79 84 91 96 96 95 96 98 91 75 76 77 77 80 79 75 73 69 65 65 54 53 48 41 35 36 36 37 36 38 38 42 44 41 37 38 40 40 39 37 38 38
63 70 74 80 83 90 89 93 96 97 93 90 89 85 78 82 82 77 73 69 64 63 63 49 52 52 50 47 43 41 38 38 40 43 46 49 45 36 34 34 34 35 37 38 39
60 73 69 74 78 83 86 83 90 92 89 87 88 85 86 79 75 75 73 69 64 58 55 54 53 47 47 42 42 44 44 43 44 51 48 48 39 33 33 35 36 36 36 39 43
56 68 67 70 74 78 79 77 80 83 86 86 84 81 80 82 79 79 74 67 63 58 53 47 48 47 45 42 44 48 49 50 49 47 42 34 34 33 34 34 35 37 40 44 47
50 66 67 71 70 73 75 77 76 75 76 83 84 79 77 76 75 74 71 68 63 61 60 56 59 55 51 47 46 44 43 42 40 39 38 36 35 42 45 44 41 41 43 44 44
50 56 62 63 62 63 66 62 70 72 70 73 75 77 78 73 71 78 74 71 69 66 64 62 60 56 50 54 52 48 40 37 32 31 35 41 43 35 32 35 38 39 40 41 42

GFSSW_prec_cthk_003.txt.gz
RH
43 43 42 41 43 49 59 60 68 76 63 53 61 67 66 61 57 49 43 38 52 60 60 59 56 55 53 50 46 49 57 52 32 25 29 30 37 35 38 47 46 39 39 41 43
47 42 39 40 40 41 45 51 60 64 68 66 51 61 69 66 62 55 44 39 43 62 62 60 57 59 56 54 52 51 55 56 38 26 28 31 35 37 38 44 41 38 39 41 43
52 47 43 43 43 45 43 51 53 58 65 60 53 52 58 75 68 51 46 42 40 58 61 63 65 64 61 55 51 49 49 57 45 32 28 32 33 33 34 38 36 41 41 41 42
51 50 48 48 49 52 54 53 56 58 65 60 63 54 56 65 72 58 49 45 41 57 62 70 67 64 59 54 51 49 49 55 52 39 30 27 30 30 32 36 36 39 41 39 39
55 56 55 56 56 56 56 58 64 61 57 60 60 61 64 65 62 67 59 51 45 57 61 67 70 59 57 55 54 53 50 54 57 47 30 26 24 28 29 33 34 37 37 36 36
66 65 64 57 59 60 60 60 69 71 68 67 71 68 65 60 50 66 71 58 50 50 61 67 68 61 59 61 58 52 52 55 55 53 33 27 24 24 24 26 28 31 33 34 35
79 78 79 71 64 67 63 62 67 73 68 74 68 73 66 45 45 63 73 64 56 49 60 60 67 66 60 63 60 55 55 54 53 56 39 29 27 23 21 24 25 25 28 30 31
88 86 84 84 75 77 76 74 77 77 75 79 83 87 69 51 46 60 72 69 56 54 65 68 72 65 66 63 61 56 55 54 54 53 33 23 27 24 25 25 24 23 25 27 31
93 92 92 91 86 87 78 79 75 78 74 88 88 91 68 59 46 54 74 74 60 57 71 79 82 77 69 66 67 58 57 54 56 45 32 21 25 24 27 28 25 23 24 28 29
93 96 95 94 95 94 83 74 73 80 78 91 92 96 71 57 43 53 74 78 63 65 82 91 86 78 76 68 72 58 57 56 57 43 37 26 27 28 26 26 26 27 29 28 24
95 97 97 96 97 99 92 89 85 90 81 79 82 74 70 61 51 57 78 78 67 78 84 96 94 80 63 79 61 67 60 56 53 45 38 26 29 28 30 29 28 28 26 21 21
96 97 98 97 98 97 97 89 88 88 93 84 87 90 88 65 56 54 79 76 67 76 87 93 90 66 67 67 68 67 59 57 52 45 40 26 29 29 28 27 25 21 20 22 26
94 98 98 97 98 98 95 93 97 98 97 93 89 86 94 69 57 56 71 76 64 73 78 79 76 80 71 74 72 68 62 59 55 46 44 32 28 30 29 25 21 21 22 26 29
96 98 97 98 97 97 97 97 97 94 97 94 86 82 90 73 61 68 84 84 68 71 74 85 76 79 83 80 76 78 62 62 53 51 51 37 39 31 27 25 24 25 27 29 30
95 99 97 98 98 97 97 95 95 92 83 64 75 79 81 75 65 80 80 86 66 62 85 82 78 76 89 72 69 73 66 58 55 50 45 39 36 30 25 27 27 31 29 31 31
82 92 97 99 97 95 97 96 96 99 97 74 77 79 89 78 77 90 96 96 76 66 73 72 70 72 63 78 74 74 61 57 56 52 51 38 33 29 27 26 30 31 31 31 30
73 83 95 99 98 97 97 97 99 99 88 96 84 82 86 88 89 91 91 91 86 82 83 74 74 69 73 77 75 64 62 68 63 60 54 36 35 23 25 26 28 29 30 30 31
62 79 87 97 99 98 98 99 97 88 92 88 91 91 85 91 95 94 97 94 79 67 71 76 81 66 71 67 61 58 57 61 59 58 48 37 36 24 25 26 25 26 29 32 33
55 67 81 88 96 98 98 98 91 85 81 87 96 95 98 93 87 97 98 91 76 69 68 69 62 60 55 55 56 53 56 53 54 55 58 45 31 24 29 28 26 28 33 33 34
51 61 77 88 93 99 98 98 91 87 79 84 86 92 89 86 94 97 95 88 79 72 66 62 64 61 54 56 55 53 55 54 55 58 56 45 36 33 30 32 31 34 34 36 37
55 63 79 88 94 99 98 97 93 85 86 79 82 85 76 77 89 95 93 90 81 73 70 62 60 67 60 57 55 53 47 45 48 50 48 45 36 28 29 34 35 37 38 40 42
61 69 85 90 97 98 97 97 88 88 92 90 81 75 70 71 81 89 88 80 78 73 75 66 71 69 64 59 55 52 42 41 43 41 45 44 38 32 34 37 41 43 43 43 41
66 77 82 90 95 96 97 95 95 96 94 85 74 74 74 71 81 87 84 74 75 70 73 67 71 79 72 66 55 47 38 36 38 41 44 46 41 36 37 38 39 39 38 38 38
66 75 81 88 92 90 92 97 97 96 90 79 76 72 73 76 77 78 78 76 71 71 76 70 71 62 55 51 44 39 35 36 40 48 46 46 44 43 42 39 36 36 36 38 39
66 71 73 77 81 84 82 91 94 92 88 88 80 74 75 80 76 76 75 73 71 71 71 67 60 59 48 37 40 39 42 44 44 45 47 46 51 44 39 39 38 35 40 43 42
62 71 69 74 72 77 81 82 83 84 85 87 85 86 77 76 74 73 73 68 65 65 62 54 54 49 43 39 42 41 44 49 49 50 50 50 47 40 34 35 45 51 42 41 42
56 70 72 76 73 72 76 82 79 81 84 86 87 86 83 74 72 72 70 68 68 64 60 55 53 49 47 49 45 45 45 45 47 46 42 38 33 34 43 53 45 37 37 38 41

GFSSW_prec_cthk_006.txt.gz
RH
31 34 42 42 41 40 43 49 60 60 61 65 68 68 58 63 62 63 55 44 41 58 64 63 62 59 57 52 50 47 45 49 50 32 28 29 35 36 35 39 50 51 46 42 39
36 43 44 42 42 41 40 40 44 52 62 65 64 69 71 64 65 61 56 52 45 54 61 65 63 64 59 56 53 49 47 44 52 39 30 32 34 36 36 35 43 46 42 41 43
49 50 47 47 46 44 45 44 43 43 49 56 58 74 81 70 62 54 59 57 51 53 65 65 67 71 63 59 55 49 46 43 49 50 36 33 32 35 37 37 41 41 36 42 44
55 54 53 53 49 46 49 53 51 46 45 48 55 72 79 76 64 57 57 56 57 53 66 68 69 70 64 59 53 49 45 44 49 52 44 31 32 33 32 33 37 37 36 43 43
58 57 62 58 56 55 55 52 51 56 55 56 57 76 88 81 55 51 64 62 61 54 67 72 68 67 62 57 55 53 47 46 49 52 54 39 29 30 28 29 33 37 35 39 39
66 66 70 65 58 57 56 52 52 56 58 68 67 75 92 76 54 54 63 71 66 58 64 73 66 63 68 62 58 53 50 48 49 53 54 49 31 32 24 26 29 31 32 33 36
78 79 80 76 72 65 56 56 60 59 58 69 83 78 74 53 62 53 55 73 69 61 60 70 67 66 67 65 58 58 56 52 47 50 55 52 35 24 23 23 24 28 28 26 31
82 86 86 85 82 74 65 66 73 63 64 72 82 87 61 67 67 54 57 68 72 63 62 74 75 66 74 71 62 61 59 56 45 49 53 48 30 19 21 22 25 27 26 26 28
79 84 88 90 89 87 80 77 79 75 72 79 86 87 71 66 59 52 55 67 81 67 67 78 87 77 78 74 63 60 57 54 49 49 46 44 33 20 24 24 27 28 27 26 26
82 89 92 95 92 94 94 92 88 87 85 86 87 99 76 69 65 54 52 73 90 72 77 89 95 87 79 76 80 59 56 53 52 52 44 44 32 23 27 27 28 29 30 29 28
84 92 95 97 94 96 98 98 94 87 86 75 75 77 79 77 68 56 52 76 94 73 80 86 93 89 76 63 59 60 59 57 56 53 45 44 33 23 28 27 26 27 30 31 29
86 95 98 98 97 97 97 97 88 84 90 79 77 82 79 89 79 60 58 80 91 72 84 97 90 79 81 73 73 60 63 61 59 54 46 46 37 23 28 27 28 29 31 30 25
85 92 98 98 98 98 97 96 94 93 95 86 76 79 87 94 78 59 57 79 91 75 80 87 83 82 83 76 72 70 63 67 63 58 50 46 42 24 24 26 29 29 27 25 23
77 88 98 98 98 98 97 98 97 96 98 94 81 78 85 95 82 57 58 80 87 71 83 92 91 87 85 81 70 83 66 70 64 65 57 47 51 32 23 27 29 29 28 28 28
73 88 98 98 97 98 98 98 97 99 97 88 88 82 80 90 71 67 69 89 85 69 86 88 87 95 87 77 69 68 73 73 67 62 53 50 52 35 23 28 29 28 30 32 31
64 76 95 98 96 98 97 98 98 99 94 82 83 83 91 81 79 70 66 87 89 72 80 88 85 89 82 80 73 75 76 74 68 61 61 50 47 37 26 26 27 29 33 35 34
50 69 84 95 98 98 98 98 98 98 94 83 79 83 87 77 82 74 74 91 90 84 86 80 82 73 70 83 75 81 80 86 73 69 59 46 47 36 24 26 27 32 34 36 35
45 58 73 88 98 96 98 97 98 98 92 83 74 77 85 75 88 85 93 97 94 66 72 83 91 81 80 72 74 80 77 72 70 66 55 48 44 30 24 24 26 30 31 35 36
44 55 71 88 98 97 97 98 97 86 93 91 77 75 83 87 92 91 90 92 89 73 71 85 77 69 62 60 77 80 77 65 67 60 60 51 39 30 29 30 29 30 32 37 37
46 57 75 95 98 98 98 98 98 91 87 89 76 73 92 94 97 95 94 91 89 76 62 67 67 60 60 64 71 71 70 69 67 65 61 50 42 39 31 31 32 33 35 36 38
55 68 85 99 97 98 98 97 96 86 80 81 78 78 83 84 93 92 93 88 83 78 69 64 65 71 65 64 67 66 60 61 62 62 59 54 42 33 30 33 37 38 38 39 40
58 76 93 98 99 97 97 97 91 85 82 84 72 81 81 84 92 96 90 80 78 74 69 62 63 69 61 60 65 62 60 59 63 59 56 50 39 30 33 36 39 41 41 43 45
65 84 95 98 99 98 98 94 92 91 89 87 78 75 71 74 88 92 95 84 79 75 71 65 68 79 76 67 64 59 59 59 59 54 49 48 40 32 36 39 41 42 43 44 43
66 83 90 97 99 97 96 95 96 96 96 88 80 78 70 77 80 89 92 86 79 73 72 66 67 64 69 61 63 64 60 60 55 50 45 40 34 36 41 44 45 45 42 39 39
60 74 81 92 94 94 93 95 98 97 92 82 77 76 70 75 80 86 83 80 82 78 77 77 72 70 63 63 62 66 63 47 36 31 40 38 46 46 43 47 47 42 38 40 47
50 68 77 83 83 89 88 92 91 90 90 81 80 78 75 73 68 74 77 78 73 76 76 80 73 68 66 62 55 51 51 39 37 39 40 45 47 47 46 46 45 40 39 50 47
44 70 73 83 82 81 86 85 88 86 89 85 79 82 74 78 72 74 74 72 72 70 72 74 70 61 65 60 54 45 37 49 47 46 49 51 50 50 51 47 40 44 55 48 40

GFSSW_prec_cthk_009.txt.gz
RH
32 33 32 30 32 35 42 50 52 58 59 54 66 69 67 60 54 46 48 49 50 51 52 69 65 62 60 56 54 49 48 43 45 51 36 27 30 32 34 34 41 46 52 51 48
38 39 39 37 37 40 41 41 40 43 45 51 60 66 65 66 63 52 44 52 54 50 54 63 72 66 63 58 58 53 50 43 41 49 46 32 33 34 34 35 38 53 53 49 45
44 44 45 46 46 47 46 45 44 42 43 47 50 61 70 67 61 49 50 43 53 59 52 61 72 73 66 62 60 54 47 44 41 45 51 39 34 34 34 36 35 44 47 43 41
55 53 53 53 52 50 48 46 46 49 44 43 46 54 66 69 60 52 48 44 47 60 55 62 70 76 72 65 59 53 49 46 43 44 49 51 37 32 33 34 34 36 42 40 39
59 59 57 60 58 57 56 52 50 49 51 49 49 53 57 58 49 54 59 53 48 64 59 64 77 74 72 64 63 56 52 49 48 46 48 52 45 34 30 33 34 34 39 36 39
63 67 67 69 67 62 59 57 55 52 49 52 54 63 62 59 56 62 66 60 56 67 65 68 80 76 72 67 65 56 55 52 49 47 48 50 49 40 23 29 32 30 33 34 37
66 76 75 77 76 75 69 61 58 55 52 55 60 65 64 56 63 69 70 64 66 66 69 69 78 82 71 71 64 62 60 56 48 47 47 48 45 47 29 23 22 27 30 32 33
61 75 80 82 82 83 78 71 63 60 57 59 63 71 73 71 71 76 78 73 68 69 71 77 91 92 79 71 67 68 64 61 49 47 44 42 45 46 26 18 23 24 28 30 28
58 73 77 80 84 88 89 83 74 72 72 69 73 78 79 74 73 69 77 74 70 76 74 86 92 97 83 74 68 72 66 57 55 47 45 44 42 39 26 22 25 26 29 29 27
63 76 81 88 89 91 93 93 86 83 83 84 84 86 75 78 74 68 73 70 76 84 85 88 94 97 90 73 83 71 61 56 51 48 45 43 41 41 27 25 27 27 29 30 29
66 74 79 90 92 96 96 97 94 91 89 87 82 75 72 82 77 68 71 70 80 95 84 86 96 96 87 75 67 66 58 53 56 52 49 43 40 40 29 24 29 28 30 31 32
58 68 81 90 94 97 97 98 96 91 92 92 88 82 70 80 86 75 74 69 81 93 84 91 94 89 87 77 71 67 66 58 58 54 51 49 41 40 27 22 26 28 31 30 30
53 65 86 95 97 97 98 98 98 96 96 93 86 81 78 82 84 82 72 64 78 89 82 79 88 86 90 84 78 68 62 59 64 61 57 47 41 42 31 23 25 29 32 31 31
40 59 80 92 97 98 98 98 98 98 98 93 91 78 77 83 83 87 69 64 86 88 81 90 93 88 93 84 77 75 67 62 66 68 65 51 48 45 36 25 27 31 32 31 30
32 47 66 87 97 97 97 99 98 98 98 88 93 84 73 76 83 80 66 73 85 87 81 95 96 88 91 80 78 76 72 72 69 68 58 53 51 43 39 25 26 31 34 33 31
36 45 53 74 94 97 98 98 98 98 96 97 95 85 81 86 91 85 64 79 92 85 80 96 92 91 81 84 82 72 76 76 70 67 60 51 50 45 33 25 25 30 33 35 32
40 49 53 67 85 98 98 98 98 98 93 97 92 87 82 90 97 81 65 84 97 95 87 97 91 90 89 86 83 80 82 91 90 80 62 51 51 40 35 29 27 28 31 35 34
38 50 55 69 88 98 97 97 97 94 94 91 80 91 87 90 97 80 74 94 97 84 79 98 97 84 87 91 83 81 79 81 82 70 60 56 49 34 31 30 28 28 33 35 35
39 50 58 72 94 98 98 97 91 95 95 88 77 86 97 85 91 82 82 86 94 85 73 87 84 80 81 81 75 91 87 74 71 65 63 54 42 36 35 35 35 31 31 34 36
38 57 65 87 99 98 98 98 95 96 95 77 68 75 86 83 96 72 79 80 93 82 73 74 74 75 69 78 75 78 74 88 72 70 66 56 48 43 38 37 36 35 36 36 36
42 65 81 96 99 98 98 97 96 96 93 78 67 71 74 83 93 86 74 89 91 82 76 68 66 70 68 68 73 69 78 76 74 68 61 55 46 41 38 36 38 37 36 37 38
44 70 89 97 98 97 97 96 96 93 85 79 72 78 78 79 88 89 90 91 87 81 71 66 64 70 63 65 65 61 69 78 70 66 62 58 52 40 35 35 35 37 38 40 44
54 78 91 97 97 98 96 97 96 87 88 80 72 80 76 84 89 83 83 82 86 79 72 67 69 74 74 71 64 64 65 67 66 60 59 59 52 40 37 36 37 37 41 44 45
54 79 92 98 98 99 97 96 96 91 91 88 78 78 78 80 84 88 88 83 82 77 73 71 69 67 67 59 60 61 60 61 63 64 61 56 51 37 33 37 41 42 45 48 49
52 69 87 96 97 98 98 95 96 96 97 92 85 76 71 78 81 86 91 81 82 81 77 72 70 64 61 59 60 59 58 66 62 59 64 57 43 32 36 41 44 46 49 51 46
51 56 73 85 85 96 98 98 96 97 97 84 81 75 74 72 73 78 79 80 78 77 75 75 74 67 65 63 63 66 65 63 63 66 51 38 30 31 39 44 47 51 52 50 44
42 43 69 84 83 93 93 95 97 95 94 82 76 74 77 79 74 76 75 78 78 78 77 81 73 72 76 68 66 62 58 60 60 58 37 35 31 41 46 49 52 52 49 45 45

GFSSW_prec_cthk_012.txt.gz
RH
29 33 33 32 32 32 33 37 42 55 55 64 63 60 57 57 58 55 49 42 45 46 48 42 61 65 66 63 56 51 48 44 40 37 46 35 27 28 33 33 33 39 39 41 50
37 39 39 38 37 36 34 35 38 46 50 58 62 57 57 60 61 58 53 48 43 47 54 56 53 71 70 64 61 54 49 43 40 37 42 43 35 30 32 34 34 38 45 50 51
40 44 46 47 45 45 48 45 44 42 41 42 45 48 50 58 62 57 51 53 49 47 49 58 59 66 73 66 63 57 48 45 43 41 39 46 41 33 32 34 35 40 51 53 51
45 48 47 50 50 51 50 48 46 49 50 44 43 45 50 57 59 58 53 48 50 48 52 53 63 66 70 74 63 57 49 48 46 45 41 43 48 35 32 34 38 37 44 46 47
46 50 51 54 59 57 54 52 51 50 51 49 44 47 51 54 55 59 54 49 44 51 51 54 64 68 67 72 71 60 52 51 49 48 43 42 47 47 32 31 37 36 35 44 42
45 51 55 60 66 64 60 56 58 54 53 50 51 51 53 57 50 47 50 47 46 48 58 55 62 70 73 73 72 61 57 53 53 51 48 43 44 46 39 30 32 34 34 37 39
40 49 57 66 73 72 68 65 58 57 56 57 55 58 59 53 50 46 46 45 44 49 53 56 64 83 72 75 75 69 64 61 55 52 49 46 41 44 51 34 24 26 28 30 33
31 46 57 65 75 81 77 75 70 62 59 62 63 61 61 55 54 51 50 47 47 47 56 59 70 87 89 77 78 73 68 64 52 53 49 46 39 45 47 36 24 23 24 28 31
28 46 60 65 66 77 81 83 81 73 70 66 67 67 64 57 57 58 57 57 56 54 58 66 76 87 96 88 81 77 67 62 58 54 49 44 40 43 41 36 27 23 25 28 31
28 42 62 68 69 83 83 86 89 84 85 82 80 80 66 63 65 63 66 73 74 77 75 79 81 89 96 89 81 75 68 59 59 52 45 44 39 42 42 35 27 23 26 28 30
28 37 57 66 82 87 91 92 92 92 91 84 82 79 75 73 71 70 72 76 84 88 88 84 89 87 88 89 75 67 59 59 56 53 50 47 41 40 41 37 28 25 27 27 31
31 33 49 63 78 89 96 94 93 94 95 96 92 89 87 84 77 74 76 73 80 85 95 92 90 78 93 88 77 70 65 62 62 52 51 49 41 41 41 36 29 24 28 28 30
36 35 43 60 78 85 97 97 98 98 98 94 96 95 94 86 72 82 80 72 72 79 95 85 72 87 97 90 82 75 69 63 61 59 57 50 40 39 39 36 30 22 27 30 31
45 42 39 52 71 80 95 98 98 99 98 91 95 94 95 90 73 70 85 76 79 79 95 85 85 89 96 87 81 80 70 69 67 71 65 53 47 40 38 36 33 25 27 30 31
54 52 42 46 61 74 92 98 98 98 96 85 93 92 90 80 75 75 83 78 78 90 97 87 84 94 93 86 79 75 73 69 71 74 66 57 52 38 37 36 32 26 28 32 32
64 58 43 51 59 68 94 98 98 98 92 94 95 95 94 79 76 90 89 80 85 91 96 80 89 91 91 86 86 81 76 76 71 70 64 51 48 39 35 33 30 26 29 32 32
69 67 43 51 59 77 98 98 98 97 91 98 97 97 92 80 82 93 84 79 97 94 97 88 98 84 89 93 88 82 84 94 90 86 61 49 48 38 39 35 32 28 28 29 34
70 71 52 51 66 85 98 98 98 92 97 96 95 95 89 81 87 97 83 85 94 89 84 98 99 97 81 89 85 86 75 70 71 63 54 56 47 38 36 36 34 32 31 31 34
72 73 49 59 75 96 98 98 92 95 95 97 92 86 84 82 88 93 71 77 96 88 82 97 98 93 85 80 84 93 85 69 63 57 54 48 43 38 34 34 33 34 32 32 36
74 68 45 70 91 98 98 97 95 96 97 94 69 69 71 79 97 77 69 72 85 85 88 88 96 89 88 88 87 85 78 80 65 66 61 49 45 41 37 35 34 34 35 36 39
74 64 57 75 98 98 98 97 96 95 96 87 59 61 63 74 85 69 69 80 74 80 88 85 82 84 84 90 90 85 86 79 66 59 54 50 44 39 37 34 35 36 36 39 41
65 67 64 85 98 97 98 97 95 96 94 73 65 59 60 74 80 81 73 87 73 74 81 76 69 86 76 74 80 77 71 76 75 67 56 51 45 42 39 36 35 36 39 42 42
63 69 70 88 97 98 97 96 96 94 83 79 69 63 67 78 79 77 72 79 76 76 72 70 67 75 89 79 72 77 70 68 61 57 57 60 49 43 42 41 37 36 39 42 44
66 70 72 88 98 97 98 97 97 88 81 86 78 77 73 72 68 62 75 82 85 80 75 71 67 60 61 59 58 60 61 64 61 68 60 51 48 46 50 50 37 38 40 41 44
62 65 72 89 95 98 98 96 95 93 89 87 77 75 72 78 78 78 72 80 83 82 79 76 69 66 62 57 56 57 60 58 58 57 57 53 54 52 52 42 35 34 40 43 47
63 57 67 78 90 97 98 96 96 95 95 92 87 76 73 69 68 76 77 76 78 78 76 74 73 65 62 62 59 57 55 57 56 59 54 57 48 50 38 34 35 40 44 48 53
76 51 56 63 83 97 98 96 96 96 96 93 89 80 74 70 69 77 84 82 76 75 76 77 73 70 66 63 61 62 54 54 52 50 50 52 47 42 34 32 36 42 49 53 54

GFSSW_prec_cthk_015.txt.gz
RH
23 28 34 34 33 32 31 33 37 44 58 57 55 57 60 62 61 57 52 50 43 39 41 41 40 51 58 59 61 56 55 47 43 41 39 43 43 27 27 30 28 34 38 38 37
25 33 37 39 39 39 38 35 34 38 44 56 54 60 61 63 62 59 51 51 49 42 42 48 46 49 59 59 61 59 54 47 42 45 45 43 42 40 26 30 32 32 35 40 39
29 38 42 43 42 42 42 44 44 42 41 46 51 54 63 64 65 57 51 50 48 47 43 47 51 57 59 63 59 61 53 49 46 49 47 40 39 43 35 25 31 35 36 38 38
31 39 42 43 43 45 48 50 49 48 48 46 44 45 48 56 54 56 45 42 45 48 50 45 49 56 59 66 66 62 57 52 51 52 48 43 38 40 42 28 32 36 38 40 47
29 40 42 43 48 52 52 55 54 51 49 53 50 50 54 59 56 56 51 46 47 50 54 52 45 53 56 60 72 69 57 57 54 53 48 45 38 36 41 36 29 33 36 43 49
24 35 43 47 55 59 59 58 56 54 52 51 56 56 56 59 53 55 53 49 50 52 53 57 52 49 58 61 68 69 63 61 58 55 49 47 40 38 37 48 29 31 35 35 41
23 28 39 48 59 63 65 63 66 59 56 53 60 61 65 56 53 51 47 44 46 47 51 51 58 59 58 61 60 72 68 65 60 58 51 51 43 36 37 50 40 24 27 29 31
25 25 34 46 60 62 67 68 69 69 60 57 60 70 66 54 52 50 49 48 43 43 43 51 58 58 73 73 68 69 77 73 63 58 52 52 41 36 39 43 40 28 23 26 29
34 26 29 44 61 61 67 70 74 74 68 63 62 71 68 56 51 53 53 49 49 47 45 50 62 62 67 82 81 78 70 66 71 60 53 53 41 38 39 37 39 35 26 26 27
40 31 28 38 61 64 71 76 80 83 80 81 81 78 65 62 59 53 55 55 56 56 55 55 59 63 68 82 87 70 70 65 66 60 56 53 44 41 41 37 38 36 33 26 27
41 36 30 33 50 62 72 75 84 90 88 83 80 75 75 72 69 65 61 61 63 65 69 64 70 70 53 67 70 69 72 67 60 59 58 53 46 42 36 39 41 38 33 26 28
45 40 34 35 46 64 69 73 82 89 92 92 90 88 86 84 80 77 72 71 71 68 69 81 85 59 48 62 85 77 79 64 64 63 58 51 46 41 39 39 41 38 34 26 29
47 44 41 42 45 58 67 76 83 92 94 89 90 91 94 93 88 86 78 74 69 72 75 86 67 65 65 77 91 86 73 62 67 68 56 53 50 42 40 40 37 37 35 28 30
55 49 49 52 51 51 59 68 82 95 95 84 84 89 96 97 93 88 87 79 73 71 80 89 81 94 79 80 88 92 70 67 72 72 66 60 48 42 40 35 35 36 34 30 30
62 59 55 58 57 54 54 67 85 98 95 83 88 89 95 97 88 81 69 78 77 74 93 82 86 92 84 90 87 91 75 70 77 72 74 66 59 43 43 34 35 36 37 31 29
66 68 64 67 57 59 56 73 94 98 94 93 92 95 95 97 89 83 68 68 82 84 95 85 82 87 73 92 87 89 76 79 79 74 69 55 55 42 42 36 35 37 38 34 32
69 73 73 74 59 63 64 85 98 97 90 97 97 97 97 96 93 84 80 79 89 90 97 91 89 89 87 98 97 97 87 94 90 87 59 54 53 48 41 35 32 34 35 35 33
72 76 75 78 69 64 74 95 97 88 92 97 97 97 98 91 78 72 89 87 87 84 99 93 97 93 92 97 94 95 85 72 68 64 54 52 50 43 40 38 37 36 37 36 32
75 76 76 81 74 69 86 98 95 92 95 97 98 98 96 85 75 80 84 86 80 80 98 89 92 91 88 94 91 94 84 70 63 54 56 51 46 40 35 37 36 36 38 37 35
76 77 78 83 72 75 94 96 96 95 96 97 95 74 75 74 77 89 89 74 74 82 90 94 96 95 97 94 92 88 78 75 61 61 58 51 48 48 39 34 35 36 40 40 37
77 76 81 76 73 82 97 97 97 95 97 98 90 67 67 77 82 79 74 67 67 76 90 97 98 93 93 95 86 95 88 71 60 56 58 54 49 44 38 36 36 34 37 40 37
77 75 77 78 73 90 98 97 96 95 94 97 88 60 62 66 75 74 71 67 63 76 95 95 96 99 91 77 82 83 87 70 64 61 53 50 50 44 41 37 35 36 39 41 40
78 76 78 78 76 96 97 97 96 97 89 89 66 57 61 72 69 74 71 61 79 71 88 85 84 98 96 82 84 85 76 72 69 61 55 52 52 46 44 41 38 36 39 42 42
77 78 81 73 80 98 98 97 97 92 86 72 64 59 61 66 59 66 76 70 77 69 86 87 80 75 71 65 71 81 79 69 67 66 58 53 55 48 49 48 45 41 40 41 44
78 72 77 68 87 98 97 97 97 94 86 80 85 69 63 66 61 71 74 77 81 73 78 81 72 65 63 59 62 70 70 70 68 63 56 54 54 53 55 50 49 47 44 40 43
77 71 74 69 74 96 97 97 97 95 85 90 89 79 75 64 50 65 70 81 79 78 75 77 74 65 63 60 58 58 58 58 57 55 56 52 49 57 51 51 47 47 39 40 42
80 79 71 59 64 89 96 96 96 95 92 91 88 79 78 69 65 68 74 75 77 75 78 80 76 70 69 62 63 60 51 50 49 48 49 48 47 49 51 52 41 36 36 36 41

GFSSW_prec_cthk_018.txt.gz
RH
15 19 26 35 34 32 31 31 33 35 43 48 56 60 59 57 56 56 53 53 48 45 42 40 42 40 45 51 54 56 56 55 50 48 44 41 41 41 34 24 28 31 32 38 38
17 21 29 36 38 38 37 37 36 37 40 46 55 60 59 57 55 55 49 52 52 49 43 41 44 44 43 50 55 55 54 46 46 47 46 46 45 37 40 32 26 31 33 39 37
19 25 34 38 38 38 39 39 40 41 40 41 48 54 56 57 62 53 50 46 47 50 49 47 47 51 49 49 54 55 51 46 45 47 49 50 46 39 38 41 26 32 37 38 38
20 25 35 37 36 37 40 43 45 45 46 46 45 47 53 58 60 57 52 48 47 53 54 54 48 51 56 54 54 58 52 50 46 52 56 52 45 41 37 36 36 30 36 35 35
21 22 31 37 36 41 46 46 47 49 47 48 52 49 49 53 53 54 50 47 49 47 53 56 55 51 54 55 59 59 59 55 51 50 53 54 47 42 38 33 41 31 28 32 35
24 22 26 36 37 44 49 51 51 51 51 50 52 54 55 57 51 54 56 52 51 55 57 60 59 55 53 55 56 59 62 58 58 54 53 54 49 44 38 36 34 43 29 32 35
28 23 24 31 35 46 51 54 55 54 53 53 58 58 62 56 55 54 57 53 50 52 54 59 62 63 59 55 58 57 67 62 55 58 56 59 49 44 38 39 33 43 38 24 27
32 29 25 30 31 42 50 56 59 59 60 56 55 63 67 59 56 55 54 48 45 44 45 50 61 62 61 68 64 65 64 68 47 56 54 60 54 43 42 44 36 38 39 30 25
34 40 34 29 32 37 49 57 60 65 66 64 59 62 60 58 57 52 54 53 52 50 47 48 52 57 59 66 71 67 62 52 52 55 56 55 53 43 42 42 39 35 39 34 29
37 43 44 33 38 38 49 55 63 63 70 73 73 77 64 62 60 58 57 60 60 56 55 53 53 56 60 62 60 59 66 56 55 50 58 56 54 47 45 40 36 33 35 36 33
42 41 48 39 37 41 44 57 60 61 68 69 72 71 74 72 70 67 64 65 66 64 63 60 62 55 44 44 42 48 60 67 52 52 61 56 52 50 49 43 39 38 36 36 36
48 42 49 42 41 47 48 58 61 63 66 71 74 77 78 81 77 74 75 74 73 71 69 72 68 42 48 52 52 55 67 68 64 60 59 58 53 54 48 41 37 36 37 38 37
51 50 48 45 49 52 51 57 60 63 70 72 69 76 81 83 82 83 84 81 77 76 73 74 51 66 61 57 62 53 67 72 82 69 63 66 56 53 45 39 37 36 37 40 37
53 56 52 50 55 56 60 54 59 65 73 70 76 80 86 89 88 88 90 88 85 75 77 78 60 62 66 65 63 63 50 63 86 93 82 67 63 49 43 41 39 37 37 38 38
58 60 59 56 61 69 65 60 61 74 78 72 84 87 88 92 91 87 91 95 89 82 81 74 66 67 76 70 70 62 62 76 81 88 86 70 68 48 47 42 39 37 36 36 38
63 64 65 64 66 72 66 63 72 80 79 81 89 91 92 93 95 94 86 95 91 90 83 72 78 80 71 73 69 64 80 95 96 90 91 75 68 51 47 38 40 37 35 37 39
66 67 68 70 74 73 69 70 79 80 73 95 94 93 91 95 92 96 96 91 89 93 88 82 87 83 93 86 73 80 88 98 98 98 84 57 63 52 44 41 39 35 35 38 41
65 69 72 75 79 81 77 78 78 62 87 96 97 97 97 95 91 96 98 94 83 80 87 85 76 83 85 83 84 79 98 98 96 90 71 56 65 52 48 41 38 38 36 38 40
65 71 74 79 83 85 84 78 68 91 96 97 98 98 98 84 83 89 89 90 85 75 92 91 92 85 75 78 94 87 97 91 82 54 57 56 52 46 45 43 41 37 38 38 38
69 73 74 83 86 88 85 72 83 94 96 97 97 96 89 74 82 81 73 65 70 79 86 92 98 82 91 91 95 98 88 97 82 68 70 62 55 48 44 40 36 39 39 40 39
73 76 75 85 89 85 82 71 96 96 96 97 97 95 78 72 78 80 80 73 76 75 88 96 98 98 93 91 93 97 97 93 77 65 69 68 61 45 41 37 35 36 38 41 42
76 77 78 86 87 83 75 86 97 96 97 95 94 88 75 70 78 77 77 74 74 73 90 96 98 98 94 85 86 88 91 81 69 68 66 61 55 45 43 39 39 38 40 41 42
77 78 79 84 83 86 76 98 97 97 96 90 85 74 56 61 80 76 79 72 75 79 82 95 96 99 96 96 93 94 87 78 76 67 69 61 58 48 46 42 40 39 41 43 43
78 80 82 83 87 84 86 98 97 97 95 85 73 62 56 62 72 84 73 74 73 72 82 96 90 94 94 79 89 91 82 79 76 70 64 60 54 53 51 47 44 41 41 43 44
77 76 79 83 86 82 90 97 98 98 92 77 64 61 59 63 68 68 75 76 72 74 80 93 96 96 93 77 70 77 79 79 69 63 64 58 55 52 52 51 47 47 48 46 46
78 76 80 83 88 79 89 97 97 97 94 80 74 69 63 60 65 70 73 83 80 74 72 82 92 83 75 75 71 73 69 67 63 65 62 61 57 56 52 50 54 54 48 50 48
77 74 81 84 87 74 79 96 96 97 93 85 79 76 77 62 68 76 75 79 88 79 81 85 86 79 70 62 62 64 64 62 58 56 55 60 55 60 57 55 54 52 47 42 46

GFSSW_prec_cthk_021.txt.gz
RH
18 16 18 24 30 32 30 29 28 30 34 40 41 48 49 52 52 51 44 47 45 42 38 38 38 39 39 42 48 51 55 48 43 45 43 48 47 43 36 35 27 30 33 37 37
19 18 19 26 33 34 34 34 33 32 33 39 46 50 55 57 59 56 47 43 45 46 46 44 41 45 45 43 49 54 54 45 40 41 45 46 49 44 39 37 37 28 34 39 38
20 19 21 29 33 33 33 33 34 35 35 34 38 47 56 60 64 47 48 44 47 48 45 46 45 46 50 45 47 48 51 46 40 42 43 49 52 49 42 38 39 32 36 41 37
23 20 21 30 33 32 34 37 39 39 40 43 41 39 45 52 54 53 52 50 50 54 56 49 50 49 54 54 45 53 48 51 45 44 43 46 52 48 44 39 36 39 34 37 35
27 23 22 27 34 32 35 41 42 42 41 42 46 46 48 50 52 54 51 51 48 47 48 56 57 56 54 53 53 51 51 53 44 43 43 46 49 49 45 41 40 33 40 32 33
30 29 23 24 30 34 36 44 45 45 42 42 43 51 53 56 45 46 50 52 52 51 53 54 57 58 56 53 52 52 52 51 51 47 46 49 47 46 45 43 41 36 32 38 31
33 30 25 25 27 33 36 43 49 49 46 44 44 51 52 53 50 55 56 55 55 55 55 59 59 65 61 53 51 50 53 49 46 50 52 55 49 44 42 45 42 37 33 33 40
40 34 31 26 30 30 32 40 46 53 51 51 46 48 54 51 47 54 56 56 53 53 55 56 60 58 61 61 54 56 54 54 50 52 51 63 54 47 41 48 42 40 37 35 36
40 38 38 35 31 34 31 37 45 50 56 55 50 48 50 52 51 51 56 57 54 52 50 48 51 54 57 64 64 66 63 63 54 52 59 61 54 47 46 51 47 42 39 35 31
52 42 39 44 37 39 39 37 46 55 53 56 53 55 54 57 56 55 59 61 57 58 58 54 52 55 59 66 68 57 62 58 57 45 59 62 56 46 45 48 46 42 39 37 32
54 56 43 46 45 39 44 43 45 53 57 53 50 45 50 58 61 62 63 68 68 68 67 61 60 64 58 54 53 52 57 61 53 57 58 51 51 44 45 51 48 44 39 38 33
55 55 54 51 45 40 48 48 46 55 57 54 50 53 54 60 67 70 73 74 76 78 74 72 66 61 57 56 61 58 58 52 50 56 68 57 54 41 45 47 48 45 41 43 36
57 62 56 56 45 45 49 52 56 58 61 55 49 54 56 66 77 80 82 82 82 85 84 75 69 63 65 63 64 63 61 50 49 50 61 74 62 47 45 47 49 46 43 44 36
63 64 64 59 50 48 55 55 60 60 64 58 59 63 67 81 82 84 85 87 89 89 90 83 76 74 77 71 68 69 52 52 47 62 65 70 74 50 45 42 46 46 41 42 38
68 71 68 60 60 52 58 64 65 62 68 60 65 65 80 85 82 84 89 93 93 90 94 82 75 76 74 61 75 59 60 58 56 60 75 80 92 60 44 42 44 43 41 40 37
78 77 74 66 68 64 65 68 65 70 71 66 65 80 87 87 88 88 90 95 97 98 96 87 84 80 70 65 69 58 68 63 66 65 84 70 97 70 46 38 37 41 43 42 39
86 84 75 72 71 67 68 70 73 74 57 69 79 90 90 89 91 94 96 95 97 99 98 96 86 82 76 78 76 77 75 80 80 79 64 64 91 76 47 39 37 41 41 41 39
88 81 75 86 78 68 71 76 76 57 64 71 86 90 92 89 94 91 87 90 90 98 94 96 92 78 71 68 71 76 72 76 81 62 50 60 95 73 53 43 41 43 42 42 40
99 84 84 91 78 73 78 76 66 67 73 90 94 96 95 95 93 80 80 87 89 88 87 88 79 70 71 70 81 86 93 53 81 64 78 89 70 55 51 45 46 43 43 41 39
96 85 83 92 77 84 80 74 73 74 91 96 97 96 95 92 88 86 78 66 78 73 77 82 86 78 86 95 92 84 69 85 95 97 94 84 61 51 44 47 46 43 42 41 41
93 92 90 90 83 84 76 78 80 81 94 97 97 97 97 89 80 78 74 68 68 74 83 87 96 89 92 97 75 93 91 81 90 90 89 82 61 47 47 45 44 43 43 42 41
98 93 90 82 89 77 81 84 84 89 97 96 97 94 91 85 78 78 68 66 69 85 90 89 98 97 92 88 73 78 86 87 87 95 81 63 54 48 51 44 39 39 40 41 42
97 89 87 85 80 80 84 91 88 97 97 97 96 88 80 76 83 76 64 67 74 86 92 95 98 93 91 93 90 85 94 95 96 96 76 67 58 53 51 45 42 43 44 43 43
89 92 93 84 78 78 88 92 95 97 97 95 86 84 77 75 74 73 71 74 80 78 87 94 98 96 97 92 90 88 88 94 98 93 75 65 58 53 48 46 43 43 44 44 44
88 87 85 78 76 81 91 88 93 98 97 93 81 78 68 68 69 71 77 71 81 82 91 95 97 99 92 87 86 91 88 94 93 82 77 66 62 56 51 48 46 47 47 47 47
89 85 83 77 81 91 92 86 94 97 97 91 76 67 63 64 63 73 80 70 82 88 90 94 98 97 90 79 78 83 85 85 86 75 72 70 65 57 55 53 52 51 52 52 52
86 71 80 77 84 96 93 73 86 97 94 90 78 74 72 68 67 74 77 74 81 88 83 88 95 96 85 89 88 88 79 81 76 71 69 71 67 60 57 55 56 55 55 54 49

GFSSW_prec_cthk_024.txt.gz
RH
23 21 19 21 26 31 33 32 30 28 29 34 37 46 48 50 49 47 43 45 41 38 37 34 33 34 36 36 44 48 53 48 41 37 34 43 46 45 41 39 39 32 31 33 35
27 22 21 23 29 32 34 34 34 33 31 34 42 42 50 55 51 46 44 50 48 42 39 40 36 36 38 41 45 52 53 46 36 34 32 43 50 50 45 41 38 38 33 35 36
31 25 21 24 32 33 33 32 33 33 33 32 34 42 46 50 56 51 52 51 49 48 42 41 41 42 43 43 44 49 49 44 38 36 35 38 47 51 48 44 40 39 39 36 36
32 29 23 23 31 32 33 34 34 36 37 36 35 34 41 48 51 47 47 47 48 51 51 49 45 44 46 48 45 45 42 48 42 41 40 40 44 49 47 44 45 40 41 43 36
37 31 28 23 28 32 32 34 35 38 38 37 39 40 40 45 45 47 46 48 47 48 52 54 53 49 47 46 46 48 43 42 43 43 45 44 44 47 44 46 48 45 41 42 41
38 36 32 25 25 30 33 34 37 40 39 39 38 41 43 46 40 42 48 52 51 50 52 51 50 53 53 49 48 48 49 47 45 45 46 47 43 49 43 44 47 48 43 40 37
38 39 35 30 25 29 33 33 38 42 44 42 41 41 44 43 41 40 44 49 55 55 53 55 54 61 61 55 51 51 51 50 47 46 49 51 45 43 44 45 44 47 45 40 36
46 41 40 34 27 30 33 33 35 40 46 47 45 42 41 40 41 46 47 48 49 53 57 61 61 57 59 62 59 58 55 55 46 47 48 55 44 42 43 43 42 46 46 40 38
54 51 44 38 33 34 35 34 33 39 44 50 49 43 37 38 39 43 50 51 52 54 54 63 65 63 63 66 67 66 66 57 52 44 50 50 40 43 46 45 43 43 47 43 41
54 54 54 49 45 35 42 40 37 38 49 52 50 49 41 41 44 45 49 53 57 57 56 54 58 67 67 69 66 61 61 57 57 51 54 50 47 48 46 43 44 43 45 46 42
51 55 62 58 58 49 44 47 44 43 46 47 47 43 42 43 42 46 48 56 59 61 65 65 65 61 56 56 57 58 59 60 58 56 60 57 50 48 46 44 43 44 42 45 43
54 53 59 60 58 61 49 51 45 44 46 47 49 49 49 50 50 50 54 57 61 67 69 72 71 62 60 59 61 63 63 59 54 51 58 59 56 52 43 42 42 45 45 47 45
64 55 63 64 60 61 52 54 51 50 52 51 48 51 53 53 60 58 61 69 75 77 77 78 68 66 68 65 66 65 65 62 61 52 46 52 47 48 39 40 39 40 42 48 46
79 64 66 71 64 60 57 56 59 57 60 51 53 57 59 63 66 69 74 79 83 82 84 85 79 76 77 76 75 71 60 64 64 64 64 61 58 42 42 41 39 36 41 45 45
95 86 77 71 62 59 58 63 66 64 62 52 59 61 62 65 70 74 83 85 89 87 90 86 80 84 82 80 81 75 72 70 69 70 69 52 66 42 40 42 37 32 38 44 44
97 97 91 76 63 61 66 71 74 70 67 60 62 64 67 72 77 84 85 91 94 94 89 88 86 84 79 78 80 82 84 81 79 81 81 46 60 41 38 36 35 34 35 44 47
99 97 86 94 72 68 76 77 80 75 54 66 66 69 69 78 82 88 92 94 96 98 96 98 94 91 87 88 85 85 90 93 96 92 66 45 56 36 35 32 43 36 37 40 46
95 99 88 87 84 82 78 80 79 57 59 64 69 74 79 81 86 89 91 89 84 88 92 98 96 94 85 82 85 87 86 92 88 86 56 56 62 38 28 41 48 40 40 46 48
95 96 99 93 86 78 80 85 71 58 61 71 78 84 86 89 92 89 82 74 70 80 94 91 94 85 82 82 82 83 93 56 75 67 82 63 48 31 23 45 49 43 44 43 46
97 92 95 88 87 94 88 81 68 64 74 77 84 90 90 92 90 80 69 62 65 73 82 80 85 71 76 79 78 79 77 93 92 84 71 59 61 39 26 35 51 48 45 49 49
99 98 95 99 96 93 90 88 70 73 78 82 92 96 95 91 80 74 67 59 62 64 76 78 83 80 77 79 77 94 96 86 76 70 80 63 53 27 25 43 52 54 54 53 51
99 98 98 99 93 98 89 73 75 82 87 88 96 96 95 84 78 76 67 61 62 77 89 85 92 91 81 82 90 98 93 92 86 67 88 94 61 46 43 48 54 60 58 55 52
98 92 98 90 92 97 82 76 81 88 90 96 97 95 88 80 80 69 65 60 70 76 87 96 97 97 90 92 91 89 85 96 79 71 77 98 74 53 51 56 61 56 52 52 51
93 98 94 91 89 86 98 84 85 92 95 97 97 94 81 75 72 71 70 67 72 82 90 97 98 94 95 96 90 81 81 82 90 92 83 91 86 60 54 56 53 49 48 47 48
98 92 91 82 89 93 82 77 89 93 97 97 97 86 78 73 69 75 71 71 84 89 95 98 98 98 96 94 98 89 77 83 93 93 97 87 75 62 54 53 51 51 52 52 52
96 96 89 88 89 90 79 81 94 93 97 98 97 74 72 71 63 70 73 74 84 92 97 96 97 98 97 94 97 98 96 93 95 97 97 95 70 57 55 51 50 50 51 52 53
98 89 84 93 93 84 83 90 92 84 93 96 95 74 66 61 66 70 79 77 82 87 92 97 98 98 98 92 95 99 96 97 97 95 96 88 68 60 59 57 58 57 57 58 55

GFSSW_prec_cthk_030.txt.gz
RH
48 42 35 30 22 23 25 29 31 34 33 31 33 31 40 50 54 47 44 40 37 33 30 29 31 33 35 35 37 43 49 44 37 34 29 29 33 35 38 40 40 39 40 39 39
52 46 40 34 25 23 29 32 33 35 37 35 36 38 41 52 58 51 47 45 43 42 38 40 38 34 32 34 38 45 50 41 36 33 31 32 34 37 40 41 43 44 42 41 40
52 48 44 37 33 23 31 33 34 35 37 39 38 43 41 48 54 50 48 48 49 46 43 43 43 40 40 39 40 44 45 39 37 37 38 36 35 39 40 40 41 46 47 47 47
47 50 45 42 38 28 29 32 34 38 40 41 40 38 46 48 48 43 42 41 47 55 59 53 48 45 43 44 41 43 40 38 38 39 41 42 41 39 39 37 41 43 47 48 46
48 53 53 46 42 36 27 32 35 38 39 41 41 42 42 47 44 45 45 43 44 51 59 61 59 55 53 48 46 49 44 40 39 38 38 42 43 43 39 38 40 41 44 47 49
63 55 57 48 44 41 31 33 34 37 38 40 42 44 43 43 38 42 47 43 43 50 57 61 59 57 55 55 52 50 47 44 42 40 39 40 38 41 33 36 38 40 42 43 49
69 70 57 59 47 44 38 32 36 38 40 41 41 43 46 40 39 39 44 43 46 46 48 51 58 54 55 54 54 53 54 50 44 40 41 39 36 35 32 32 35 38 39 41 41
83 72 69 66 59 46 43 34 39 41 41 43 43 42 44 42 39 39 38 44 45 46 45 45 47 52 57 54 56 59 59 59 47 43 41 44 37 33 33 33 30 31 35 38 37
73 84 70 74 72 60 46 37 47 43 40 45 47 45 42 38 37 37 38 39 44 45 47 47 50 51 52 55 57 56 60 62 59 52 50 52 45 38 37 38 35 34 33 34 35
45 81 82 75 77 77 61 46 52 50 43 46 48 46 41 38 36 34 35 41 43 44 46 49 52 57 59 60 62 57 55 54 59 58 56 53 50 42 40 38 37 34 32 33 34
23 65 85 83 82 79 72 63 58 52 44 43 48 45 44 43 41 40 39 41 45 46 49 51 55 59 57 58 56 61 67 67 61 60 63 55 47 40 37 37 36 33 32 32 32
26 38 78 77 90 81 71 66 60 55 49 42 45 46 45 45 44 44 42 42 46 50 50 53 54 50 52 58 61 62 64 62 61 55 54 53 44 40 37 33 32 32 30 29 32
35 24 52 88 93 89 75 76 59 63 60 50 45 45 47 50 52 50 49 48 51 55 55 54 46 46 52 54 59 61 63 63 61 57 54 52 41 34 27 24 23 24 26 27 29
44 29 47 98 95 90 88 78 66 62 64 56 57 53 50 53 54 49 50 50 55 57 60 60 55 57 60 64 68 70 66 68 71 75 73 63 56 36 33 29 25 23 23 24 27
50 34 38 93 94 92 87 89 77 61 72 56 62 62 63 58 57 58 58 59 61 63 64 60 63 67 71 69 77 77 75 79 82 86 83 72 77 44 34 33 27 24 22 23 24
50 36 36 71 98 97 94 91 77 71 72 62 61 63 66 65 63 63 64 63 65 66 65 63 68 72 72 75 79 82 86 88 93 95 87 68 77 42 36 29 25 23 20 20 22
50 38 34 97 98 99 96 91 87 79 58 65 63 61 63 65 65 67 69 71 72 76 76 76 74 76 74 79 82 90 97 97 97 96 79 67 73 41 35 32 30 29 24 21 22
62 40 51 88 99 99 95 91 84 63 65 62 61 63 65 67 71 72 70 72 74 79 80 76 66 58 58 58 71 84 94 96 95 89 83 72 66 39 33 33 32 28 25 21 27
72 56 78 96 99 98 97 93 76 60 57 62 66 66 73 71 70 72 70 72 68 72 72 67 61 55 57 60 67 79 86 77 98 97 97 76 55 41 36 34 34 33 27 26 22
74 84 91 98 98 98 96 86 77 63 59 61 65 65 69 71 74 74 71 67 64 52 55 64 66 57 61 69 68 73 80 91 95 97 95 69 58 43 35 34 34 34 29 27 29
66 92 96 98 99 98 96 87 82 70 61 66 69 73 72 75 73 74 75 72 54 52 57 61 71 69 76 84 77 85 83 89 94 96 93 75 49 33 31 36 42 39 34 31 26
79 90 96 98 98 98 91 86 81 72 72 71 72 78 80 79 79 81 86 72 54 55 62 62 76 79 74 74 81 88 87 89 86 82 85 83 52 34 36 43 44 45 39 32 37
81 91 96 92 90 93 94 88 81 81 81 81 83 83 84 83 87 89 84 64 60 59 65 74 83 86 81 84 86 97 94 90 88 83 88 92 47 36 34 38 48 46 42 42 60
78 91 98 98 97 92 90 85 91 84 90 88 90 87 88 90 95 91 77 64 60 65 75 80 89 90 88 84 98 98 94 97 98 97 88 89 68 56 46 52 51 44 53 61 66
91 93 90 91 93 93 90 88 93 91 88 88 85 90 93 96 96 82 67 66 67 74 82 88 92 94 92 93 96 97 98 97 97 92 97 78 71 55 53 54 54 49 59 69 76
88 96 90 94 95 95 91 87 97 93 92 84 89 95 97 97 83 72 60 64 67 76 90 94 95 97 95 94 98 97 97 98 97 97 95 92 86 71 67 60 67 66 68 79 78
92 98 94 97 94 96 93 92 93 94 89 81 90 97 98 96 75 64 66 68 79 89 95 97 98 98 91 94 98 98 97 97 93 97 95 96 77 80 82 82 81 74 73 81 80

GFSSW_prec_cthk_033.txt.gz
RH
42 52 50 46 38 32 25 29 30 32 33 33 32 30 27 38 50 45 39 34 33 33 30 30 31 32 32 33 36 38 45 42 34 33 28 29 30 32 33 34 38 36 38 39 39
44 48 57 50 45 37 26 27 32 33 34 36 34 35 36 47 55 48 48 45 42 43 37 35 32 30 31 36 39 45 49 38 34 31 30 30 32 33 35 34 37 37 37 38 40
53 40 63 55 49 42 33 27 32 35 36 37 36 39 40 47 55 53 54 50 50 55 49 45 44 41 38 34 36 44 45 39 37 35 36 36 33 34 33 35 33 37 37 39 40
68 58 52 70 51 48 39 28 34 36 40 40 39 39 45 46 53 48 46 44 48 62 57 52 46 43 42 40 40 43 39 39 37 37 40 39 37 36 35 29 35 38 39 39 42
74 76 60 64 68 50 44 33 34 36 40 40 42 41 41 49 50 46 48 43 43 53 57 59 59 52 46 43 43 46 41 38 37 35 34 33 33 34 33 30 35 39 39 40 40
63 81 79 63 68 64 46 42 33 36 39 40 41 43 43 46 43 47 48 47 47 53 57 61 61 60 56 52 51 50 47 43 40 37 36 35 30 33 28 28 29 33 38 38 39
38 61 82 76 67 71 54 45 35 37 40 40 42 42 44 42 42 42 46 47 47 52 54 59 61 59 57 55 54 54 53 49 45 42 40 38 37 33 28 31 29 27 30 36 37
25 46 74 84 72 73 72 48 40 40 43 42 44 42 41 43 43 43 43 47 47 50 49 50 54 60 60 54 52 53 53 53 45 45 42 41 35 31 29 32 31 30 27 28 31
24 25 62 80 84 78 80 64 44 49 49 46 46 44 41 40 41 43 43 44 47 49 48 48 49 49 51 53 53 52 55 55 48 45 47 47 45 37 35 33 31 31 31 30 29
33 24 38 71 89 87 82 77 61 53 51 46 50 45 40 39 36 37 38 41 42 47 49 50 51 52 54 55 55 53 58 52 48 45 49 47 44 41 39 36 34 34 33 31 31
38 33 28 59 82 93 87 80 75 60 50 42 47 45 41 42 40 41 37 41 44 46 51 50 52 52 51 52 50 54 58 56 52 51 52 46 41 39 36 35 33 31 29 30 29
53 43 36 47 85 95 92 80 71 59 51 45 45 47 47 45 45 46 43 43 47 50 51 53 51 45 48 51 55 57 59 52 50 50 50 45 37 35 32 30 29 28 26 25 25
59 51 44 34 77 96 94 87 78 70 62 51 44 45 46 46 47 46 46 46 48 52 50 50 44 44 49 53 56 57 59 59 56 51 48 47 35 27 26 26 27 27 26 24 23
64 60 44 38 75 96 99 91 84 75 68 57 54 49 48 52 50 48 49 48 53 53 53 54 48 51 55 58 57 61 56 58 62 67 65 58 48 30 29 28 27 28 27 25 23
67 59 44 41 78 99 98 97 93 80 75 57 64 65 60 54 49 52 52 53 56 53 55 53 56 60 62 60 64 64 64 68 71 77 75 68 74 35 36 35 33 29 28 26 23
84 56 46 39 62 86 95 97 96 90 78 65 65 69 67 66 63 64 63 62 62 62 62 59 59 61 61 62 67 68 73 76 80 85 84 63 77 39 38 34 33 33 31 28 24
92 74 43 34 54 97 99 98 96 87 67 69 64 65 64 64 64 64 68 67 65 69 68 65 63 64 66 64 63 66 74 76 80 82 72 60 79 44 37 38 36 34 33 31 27
99 86 45 35 68 98 99 98 92 71 70 63 63 65 62 61 61 63 65 67 65 69 71 72 66 61 56 55 59 62 69 71 75 70 63 64 67 40 35 35 34 32 34 33 31
89 85 53 44 77 98 98 98 85 75 67 64 66 68 68 66 65 66 65 63 61 68 74 75 65 53 51 55 60 73 77 69 81 72 83 63 48 41 32 35 34 36 36 37 33
88 78 66 41 72 99 98 96 81 68 68 64 67 67 70 69 70 70 68 61 64 61 65 68 62 49 51 60 64 74 76 87 91 91 83 67 64 45 36 38 30 35 39 39 37
81 71 73 63 94 98 98 94 84 77 69 63 62 64 61 68 69 69 67 62 63 63 66 56 58 54 61 67 68 83 89 95 92 89 86 75 51 42 37 37 38 45 42 39 39
73 78 86 87 93 98 98 90 86 82 73 69 69 69 70 71 70 69 71 69 65 70 64 55 63 68 67 63 70 74 83 90 97 87 94 91 56 46 49 49 46 40 42 45 44
70 88 94 98 97 96 96 92 87 85 78 68 70 69 72 73 76 72 73 71 75 68 59 59 77 81 70 75 78 88 85 88 95 94 93 95 49 54 57 52 45 45 49 54 48
80 97 98 97 96 94 92 93 92 85 77 76 81 82 81 80 78 77 80 80 71 61 62 70 82 81 79 75 88 98 94 94 98 97 84 87 71 65 66 59 53 50 59 61 59
90 90 97 96 96 92 90 89 90 84 80 83 88 88 83 85 81 83 88 76 65 66 77 84 89 88 88 87 91 97 98 98 98 92 96 78 91 70 62 55 54 65 67 68 66
95 96 93 95 94 92 90 87 84 88 81 89 91 85 83 86 87 90 78 71 63 75 85 90 94 94 90 90 93 98 97 94 95 94 92 80 78 64 57 59 69 70 74 74 73
95 97 95 94 95 93 89 83 87 87 87 86 82 84 87 92 91 87 70 68 74 82 88 96 96 96 87 86 94 98 95 91 91 86 85 87 65 69 75 71 82 73 76 79 90

GFSSW_prec_cthk_036.txt.gz
RH
48 50 50 54 56 48 41 31 30 30 31 32 31 32 33 28 32 41 40 39 34 31 30 29 30 35 32 32 34 33 32 32 26 25 25 26 25 27 28 29 31 32 32 34 36
61 52 52 48 59 52 48 38 29 31 32 33 34 34 38 38 46 45 49 46 42 39 36 32 30 35 35 34 36 35 36 29 29 29 26 27 27 29 28 28 30 32 32 34 35
52 56 55 54 56 61 50 45 31 33 33 34 36 35 43 47 57 51 51 50 52 50 45 37 33 34 34 35 39 41 37 35 36 33 31 32 30 30 28 28 29 32 35 34 35
41 52 63 70 55 72 58 50 37 34 34 36 38 38 42 50 55 49 51 52 58 61 55 48 43 42 42 38 37 37 35 37 37 39 36 35 34 32 29 26 32 33 34 34 35
19 36 55 69 71 66 75 55 45 32 36 38 42 43 45 50 51 47 48 46 50 60 62 57 50 47 46 44 42 41 35 37 36 35 32 31 30 30 31 31 30 31 34 35 36
22 18 43 63 77 71 74 69 50 36 36 39 41 45 46 50 48 49 50 49 49 54 59 60 56 58 54 48 45 43 41 40 37 35 36 34 30 33 27 24 25 26 29 33 36
26 24 29 51 71 82 76 76 59 42 36 40 40 44 47 48 45 47 52 51 52 58 62 62 60 63 61 58 54 50 48 43 40 38 36 35 31 28 24 25 24 24 24 27 33
34 28 21 29 58 79 83 80 71 52 39 42 42 43 46 47 47 47 48 53 52 57 61 62 63 65 61 56 51 47 46 43 40 40 39 40 30 29 28 28 28 27 28 27 26
34 35 30 22 49 77 87 85 81 61 45 44 45 45 47 46 49 48 48 54 54 55 55 57 59 59 59 58 53 49 42 43 43 38 40 41 37 36 35 32 31 29 30 32 29
38 38 33 28 33 77 88 92 81 75 60 55 49 49 45 44 44 45 48 54 54 54 54 54 51 48 45 47 41 38 43 41 41 39 38 37 37 34 35 35 34 34 31 30 30
56 51 50 41 27 65 95 97 87 77 68 43 47 46 45 44 43 42 44 45 48 50 50 51 51 46 42 43 43 44 45 45 42 42 40 36 34 34 31 31 30 30 30 30 28
81 67 59 45 38 64 97 94 87 73 79 54 48 50 49 48 48 46 44 45 45 47 50 51 49 41 41 43 46 48 47 44 41 41 40 36 25 27 25 23 24 25 25 26 26
81 75 62 53 46 58 94 89 95 82 75 69 50 49 51 51 50 50 48 48 47 48 47 45 42 39 44 46 50 50 49 45 44 42 41 38 27 23 21 21 22 23 23 24 26
82 83 66 56 42 58 84 96 98 96 87 79 62 47 46 51 49 48 50 49 47 45 48 48 44 44 47 47 47 48 45 48 49 51 51 48 40 26 25 24 24 25 27 26 26
96 96 76 62 42 62 79 96 99 96 93 73 73 61 52 47 47 53 51 50 50 48 49 47 48 52 51 49 52 52 52 55 56 57 58 53 69 27 29 29 29 28 29 31 30
95 88 85 67 44 57 90 98 99 98 86 74 72 68 61 52 51 56 55 55 53 53 52 48 51 52 53 54 56 59 61 61 60 64 66 44 56 26 24 27 29 29 30 33 32
92 97 91 63 38 70 93 98 98 97 76 77 65 71 66 64 63 59 62 62 61 66 65 58 55 56 59 61 62 63 68 60 66 68 50 36 43 29 20 24 26 31 32 33 34
88 83 87 55 46 71 98 99 96 85 81 71 66 65 69 65 68 66 67 68 62 59 61 60 57 57 62 56 53 56 57 54 57 45 42 53 46 27 28 32 27 26 30 34 36
92 82 82 49 47 96 98 97 92 78 74 71 69 67 66 65 64 67 64 60 59 60 65 64 61 56 55 51 50 60 63 54 67 64 71 51 36 32 33 34 37 33 35 34 40
95 87 75 55 74 93 99 98 83 79 72 68 67 63 62 62 63 62 61 55 56 57 58 64 69 56 53 52 52 56 57 74 83 77 66 48 45 43 41 41 41 38 42 41 39
82 84 78 59 87 98 99 96 88 78 73 69 63 62 62 65 64 64 61 56 57 56 62 65 65 58 53 54 54 69 76 84 79 81 82 64 48 49 52 45 46 37 40 43 41
86 92 70 73 93 98 98 93 89 84 76 67 63 62 62 63 65 64 61 60 58 59 66 64 68 58 47 50 58 64 72 82 94 82 89 86 58 58 61 53 53 50 45 47 46
98 90 64 83 87 94 98 96 89 82 77 73 67 62 60 61 65 62 66 64 62 64 66 70 64 60 53 71 73 81 77 80 88 90 88 96 64 66 67 68 62 53 45 43 46
98 90 67 69 90 83 95 96 92 86 83 75 71 69 67 67 66 69 71 69 70 70 72 60 63 65 64 66 77 95 91 92 98 96 83 77 65 72 77 77 69 60 51 50 53
98 91 90 91 89 86 89 91 92 88 81 73 67 68 70 73 75 80 75 74 76 76 64 67 81 76 79 78 84 92 92 96 98 92 95 63 74 72 81 84 70 65 57 55 64
92 95 88 91 85 87 86 90 88 83 72 75 78 79 78 79 77 81 78 79 76 65 69 79 87 92 91 86 92 94 94 94 92 89 85 80 69 65 66 63 60 57 58 71 75
92 93 93 97 93 90 88 86 81 78 76 79 81 81 82 82 84 84 84 80 67 69 76 84 92 94 91 89 85 92 94 91 88 77 75 73 61 62 67 72 79 86 84 81 75

GFSSW_prec_cthk_039.txt.gz
RH
39 54 53 49 51 58 56 52 39 29 29 30 31 30 31 32 30 29 31 38 40 31 29 33 32 32 30 30 35 36 42 33 29 23 24 27 28 25 25 25 28 28 29 34 35
39 43 50 54 52 56 66 54 48 34 30 32 32 32 35 36 38 36 31 42 36 32 31 33 33 34 33 33 35 36 36 30 25 26 27 29 29 26 27 24 26 28 29 30 32
24 35 35 52 51 49 66 67 50 43 33 34 34 35 40 43 53 45 44 45 43 42 40 37 37 35 34 32 34 38 40 31 30 34 33 31 30 28 28 27 25 27 33 32 33
19 18 28 45 47 58 60 79 59 47 35 36 37 38 42 50 60 53 49 50 53 57 56 43 39 37 38 38 32 37 38 36 38 37 37 33 31 31 28 27 30 32 34 34 31
22 25 20 25 45 58 59 85 72 52 39 38 41 43 45 49 55 50 48 52 53 61 67 57 49 45 43 38 36 38 33 33 36 38 36 35 31 31 33 32 27 29 31 32 32
28 27 23 21 31 56 67 72 79 69 46 39 43 47 50 52 48 51 49 51 55 63 70 68 61 57 49 48 42 42 40 37 38 33 33 32 28 31 28 23 24 25 27 28 31
30 29 28 25 19 41 69 72 86 75 55 41 43 49 54 51 46 47 49 54 57 57 64 69 67 62 56 52 49 44 41 39 35 32 34 32 28 27 24 25 24 23 22 23 24
32 32 31 35 29 26 58 78 87 82 67 46 45 51 50 47 47 45 52 55 57 62 63 65 63 63 63 61 55 48 46 44 36 36 37 37 32 25 26 25 25 23 23 22 21
39 32 34 33 33 29 59 79 88 87 75 56 49 49 50 42 45 48 51 60 62 64 65 68 69 68 64 61 54 51 47 45 41 40 40 40 36 31 34 31 28 29 27 26 24
46 45 48 49 41 32 48 75 96 91 81 75 56 51 47 45 45 52 54 63 63 62 65 67 67 65 62 60 54 49 48 45 42 39 38 36 33 30 31 32 32 31 31 30 28
61 65 73 64 57 48 40 77 98 97 86 74 52 45 47 44 46 50 56 63 63 63 60 58 57 51 46 46 45 43 43 41 37 39 36 32 29 27 26 25 24 25 26 26 28
77 81 76 70 62 46 47 90 98 98 91 82 62 52 47 46 49 48 52 56 61 65 59 59 54 45 43 43 44 44 42 40 35 33 33 30 23 23 20 18 19 19 20 22 23
81 94 90 72 64 44 53 81 98 99 94 86 72 54 51 50 50 48 49 51 52 52 52 52 46 43 44 45 44 43 40 37 38 35 32 31 23 19 18 17 17 18 19 19 20
90 98 97 91 67 47 50 75 97 98 97 90 79 62 51 54 54 53 52 52 52 52 54 52 47 43 41 42 42 42 38 38 39 42 42 39 34 22 19 19 20 21 20 20 21
77 88 95 97 88 56 56 76 94 99 97 91 82 70 54 49 54 56 55 56 52 49 51 51 46 47 46 42 42 44 45 45 45 47 51 43 54 24 21 21 21 22 22 23 25
75 93 98 88 82 62 60 80 94 98 97 90 82 76 58 51 53 56 57 55 53 51 51 51 49 47 45 46 47 49 50 52 53 60 63 38 42 22 20 18 19 21 22 25 26
75 84 89 96 78 59 73 98 98 98 87 88 78 75 68 54 55 55 58 57 54 62 57 51 48 49 47 51 53 54 61 61 66 66 48 29 35 26 20 24 25 27 27 27 25
87 91 83 88 68 48 97 98 98 90 85 77 74 72 75 62 59 55 56 58 52 50 54 58 62 52 56 57 55 55 59 53 53 36 35 39 39 26 25 26 29 30 28 26 24
94 91 89 75 63 62 96 97 97 81 78 73 78 78 76 68 62 62 57 56 54 55 62 60 61 52 55 54 51 56 62 48 57 48 52 36 28 30 33 32 37 36 32 31 30
92 91 94 62 79 96 96 99 84 79 78 72 73 67 67 71 66 63 65 58 58 57 57 62 62 51 55 57 55 51 50 62 69 70 58 40 39 44 45 46 47 49 46 42 42
88 99 88 62 78 98 97 97 85 82 77 76 70 64 58 59 61 64 64 60 58 55 55 58 57 57 60 59 49 54 56 60 63 72 73 63 44 50 58 61 61 57 55 50 44
90 95 82 74 86 98 97 93 87 87 85 79 70 64 59 60 64 63 62 57 55 52 58 59 60 64 58 44 46 53 64 72 87 75 81 84 55 57 63 66 64 69 67 53 48
91 83 78 89 95 98 97 95 90 86 82 77 71 66 65 68 68 62 59 60 57 58 58 59 65 66 53 56 59 64 72 78 83 89 89 95 60 63 68 65 65 70 71 63 56
86 83 76 95 96 95 98 94 90 89 81 72 68 64 64 64 62 62 63 63 62 61 61 63 68 58 51 62 66 83 81 85 97 93 80 73 66 68 67 70 78 80 79 70 60
66 78 82 84 85 86 91 89 89 84 81 74 75 70 66 65 64 64 64 65 65 65 68 71 63 57 65 73 76 83 88 87 97 96 89 66 80 65 63 65 71 77 75 74 66
76 88 85 74 77 76 82 84 93 87 79 74 69 64 64 66 65 68 68 68 69 75 75 64 69 81 86 78 85 88 86 89 94 85 79 77 70 64 61 60 64 69 68 72 63
79 82 88 78 77 79 78 83 83 81 73 69 68 68 72 70 71 72 75 74 73 76 66 68 85 92 85 80 79 90 92 94 93 86 78 72 59 62 74 84 87 86 77 66 62

GFSSW_prec_cthk_042.txt.gz
RH
21 22 25 33 49 50 56 58 58 49 42 29 33 31 31 32 31 28 27 27 33 36 35 34 33 29 30 30 31 32 38 35 31 28 24 22 27 35 29 27 27 27 27 34 46
20 21 25 36 36 48 50 56 60 57 47 34 32 34 32 36 37 37 30 33 40 38 34 35 34 34 33 31 33 39 39 33 26 25 28 27 30 31 30 27 25 28 28 28 32
22 21 21 24 37 35 46 54 61 64 52 38 34 35 39 44 45 37 37 34 38 40 34 33 37 36 36 34 36 33 37 28 25 26 30 32 33 30 30 32 24 26 27 28 29
34 27 25 24 20 33 47 50 54 68 64 42 37 37 39 50 54 49 47 42 48 50 44 42 38 39 37 39 36 36 35 32 29 31 37 35 34 34 33 29 27 30 30 33 31
33 33 32 29 25 21 34 48 59 70 76 52 38 42 42 52 53 55 52 53 55 61 58 54 41 37 37 34 36 38 36 35 32 33 36 38 38 35 33 33 26 25 27 32 34
33 34 34 30 29 26 24 42 62 67 83 69 41 44 47 52 53 50 51 52 57 60 69 69 57 43 44 43 43 42 38 38 34 30 32 34 31 32 29 26 26 26 26 26 28
34 36 37 30 30 28 24 36 60 70 86 78 51 46 52 52 51 50 51 54 60 62 70 74 69 61 49 50 52 48 47 42 37 31 32 31 30 29 25 23 24 23 21 22 23
42 45 38 33 31 32 31 23 56 75 82 81 66 52 52 51 51 49 53 55 62 65 71 79 77 68 62 57 52 49 49 48 33 32 31 35 33 27 28 25 24 23 23 21 20
49 50 48 42 46 48 32 26 46 75 84 90 77 58 48 44 47 49 51 58 61 62 67 73 71 69 65 63 59 54 52 47 44 38 35 36 36 31 33 28 27 26 25 22 20
56 69 62 69 61 63 50 31 43 90 87 98 91 69 48 45 44 48 53 62 63 66 68 70 70 68 64 64 63 55 56 52 48 48 42 39 37 33 31 31 30 30 27 26 24
70 75 74 81 72 64 61 39 51 97 92 92 79 64 44 43 46 48 56 64 65 67 67 69 70 66 65 61 61 57 53 50 46 44 41 39 33 30 26 26 23 23 24 24 24
73 82 88 94 86 71 64 50 85 98 99 97 87 72 52 47 50 53 58 64 65 68 63 65 64 58 55 55 54 52 52 50 44 39 38 33 27 23 20 17 18 18 18 19 19
73 79 95 98 95 75 59 52 87 98 99 98 93 79 61 53 51 52 56 63 67 67 64 65 57 51 52 50 49 49 49 45 42 37 34 32 26 20 18 17 17 16 16 17 17
74 74 83 93 93 87 49 50 86 98 99 98 95 79 66 58 55 53 56 57 58 61 61 61 56 49 46 48 47 48 42 41 39 41 45 37 44 22 17 16 16 16 16 16 17
68 67 71 90 88 95 68 54 78 98 97 98 96 83 64 58 54 58 56 56 53 51 54 56 49 49 47 44 44 45 45 44 44 46 47 40 47 24 17 17 16 17 19 19 18
65 63 76 82 93 80 70 81 89 97 96 98 93 84 70 65 58 55 59 54 54 52 53 53 48 44 45 44 44 47 48 48 49 52 59 41 41 29 19 19 18 20 21 21 22
59 73 86 82 92 81 73 85 93 97 98 97 86 79 68 63 59 59 58 56 57 63 61 52 49 48 47 48 47 51 55 68 70 67 57 30 41 28 19 20 20 22 23 25 26
92 89 86 89 96 76 89 92 94 84 99 89 89 85 72 66 59 59 60 59 54 51 59 57 57 48 49 51 54 56 61 67 64 57 50 38 39 27 20 22 24 28 31 32 32
89 88 97 93 96 68 81 91 84 87 86 89 88 88 80 74 58 63 57 54 51 49 57 58 61 52 55 56 57 60 64 51 59 46 56 37 23 23 30 32 35 38 39 39 40
87 90 96 83 72 71 91 93 97 87 83 82 82 76 77 75 64 61 59 51 49 49 53 61 65 56 60 57 56 55 51 63 65 68 61 40 38 38 41 46 47 47 46 48 48
86 92 90 79 66 88 97 96 96 84 79 78 72 67 64 71 69 63 58 55 52 53 55 59 62 63 61 62 58 57 57 56 57 61 74 66 51 45 52 57 61 62 62 61 61
84 88 92 88 90 90 92 98 93 87 80 72 68 62 61 64 73 66 65 63 60 60 62 63 65 67 59 54 53 52 54 56 70 71 75 80 60 51 52 55 60 65 60 62 60
74 73 87 97 95 92 96 97 88 89 85 78 72 67 59 65 70 74 69 65 64 61 61 60 64 69 61 57 52 53 55 66 74 79 82 87 60 51 55 63 66 68 65 62 68
78 81 92 97 97 98 98 95 93 89 81 75 73 72 67 71 65 65 65 64 60 58 57 57 60 63 73 66 60 67 72 75 84 89 82 73 61 49 61 62 63 69 69 71 74
79 89 88 94 94 97 94 93 86 83 80 74 71 71 70 74 70 66 63 65 61 60 60 60 67 65 59 52 60 71 78 83 95 95 95 80 77 66 67 64 69 76 71 65 67
81 83 86 79 80 92 91 90 88 81 76 72 73 71 69 66 66 66 64 64 65 64 63 64 75 67 65 66 77 81 82 86 87 90 94 94 92 73 67 72 88 92 84 76 70
78 80 79 72 76 79 84 80 81 76 75 70 65 65 65 69 65 65 65 63 63 64 66 71 69 68 81 79 80 88 86 86 87 91 93 96 89 77 72 87 95 95 95 86 73

GFSSW_prec_cthk_045.txt.gz
RH
21 21 22 25 25 32 38 44 48 58 58 56 39 30 30 31 31 32 29 19 26 33 33 33 30 29 29 28 28 30 40 39 31 27 23 20 26 30 33 30 28 26 28 36 37
24 25 25 24 25 29 35 42 45 52 61 57 48 34 34 33 33 34 28 26 25 32 35 37 34 33 33 29 32 35 40 37 28 25 24 24 28 32 30 28 26 29 28 32 35
33 30 33 28 31 26 33 40 42 48 61 63 50 39 37 38 44 32 33 31 37 35 38 36 38 37 36 32 33 34 39 31 29 26 29 30 27 32 32 29 27 28 29 30 30
33 34 36 35 34 33 32 28 38 48 58 63 60 42 41 45 52 49 43 36 39 42 39 34 40 41 41 39 32 35 33 33 29 26 33 33 31 31 32 30 29 28 29 30 30
36 38 38 37 36 31 32 31 29 51 57 69 69 46 42 50 45 54 54 45 49 55 52 40 41 42 41 36 36 39 35 36 34 30 35 31 33 33 30 31 28 25 28 29 33
48 45 43 39 38 32 31 32 26 49 59 71 75 56 46 51 46 50 60 57 60 66 64 62 51 40 38 39 40 37 37 37 36 32 34 31 30 31 28 29 27 28 28 28 30
54 53 51 45 40 33 34 37 32 36 58 76 74 71 54 44 50 48 54 53 59 61 74 72 70 58 45 42 45 41 43 37 33 31 31 31 31 31 25 22 23 24 24 25 29
59 64 59 58 49 44 41 33 32 30 61 84 78 76 65 45 49 50 53 54 57 63 68 81 81 70 62 48 44 44 44 48 33 31 29 32 32 25 23 24 24 21 19 20 22
67 71 67 67 71 63 66 53 34 27 69 85 84 80 76 46 47 52 53 57 63 65 67 79 91 85 67 62 57 50 53 48 44 37 38 37 35 28 28 27 26 24 23 21 19
77 71 73 76 80 76 65 64 44 28 71 98 93 77 69 51 46 51 55 59 67 66 74 77 84 84 83 74 70 58 56 52 49 44 44 40 39 33 30 30 27 25 24 24 22
73 69 82 82 91 87 78 64 51 37 87 93 75 67 72 55 48 47 56 59 65 66 68 74 76 75 76 64 58 58 57 51 48 45 41 39 36 32 28 27 26 25 25 23 22
58 74 80 80 96 97 92 71 59 57 92 80 88 84 81 63 52 51 58 61 64 70 65 68 70 67 66 65 63 63 58 53 48 46 42 38 31 28 25 20 20 18 18 18 19
56 70 74 74 86 97 98 68 56 70 98 93 90 90 87 64 52 52 56 58 65 66 63 70 63 67 66 63 59 57 56 54 52 45 40 35 27 22 19 18 18 17 16 16 16
65 64 59 63 80 88 85 60 54 90 98 99 91 96 87 68 59 59 61 62 65 69 70 68 64 60 61 60 56 56 49 47 45 44 45 39 49 29 20 18 16 15 15 15 15
61 66 65 70 76 89 88 61 61 93 97 99 96 95 82 66 58 65 65 60 66 65 68 69 63 61 58 53 53 52 46 45 44 46 47 42 47 31 23 19 17 17 16 16 16
68 81 76 82 83 86 80 73 74 92 96 99 97 92 86 70 67 65 64 59 59 62 63 61 58 55 54 49 48 47 46 45 47 51 59 42 43 32 22 18 17 16 17 17 17
86 92 91 86 86 80 76 69 79 96 98 99 97 88 80 75 74 65 61 61 62 66 67 59 58 53 50 50 47 48 50 62 62 66 58 40 46 33 22 18 18 19 21 22 24
85 88 95 94 93 71 68 76 86 81 94 97 92 89 85 75 77 65 63 64 57 57 64 63 61 51 47 50 50 52 52 63 67 65 58 42 47 28 19 21 25 27 29 30 31
81 89 91 92 83 73 85 94 89 98 98 96 96 89 86 74 76 66 63 59 55 54 56 59 59 53 50 49 51 58 61 58 62 56 63 42 27 19 22 31 36 36 38 39 40
85 87 87 86 65 81 94 97 97 98 91 88 91 82 83 75 74 61 60 53 52 49 49 54 61 57 57 55 55 57 53 64 64 63 64 46 37 33 38 42 45 45 44 44 46
79 82 79 74 74 89 98 98 98 95 91 86 82 81 74 78 70 63 56 52 46 46 51 53 56 63 61 61 61 62 63 56 56 61 68 67 52 43 49 51 51 49 52 56 62
78 73 80 85 91 95 98 98 96 94 83 75 68 74 72 73 72 58 55 52 49 48 52 57 62 69 64 56 57 55 56 56 66 59 66 74 59 51 53 52 50 52 55 53 59
68 72 81 90 95 97 98 97 95 89 82 77 68 63 63 72 73 64 62 58 57 59 59 60 67 73 65 59 58 60 57 59 63 73 78 84 64 55 57 59 62 64 61 66 69
77 83 91 90 93 96 97 98 97 87 79 72 67 65 63 69 73 73 69 67 65 64 62 61 64 61 66 64 62 63 57 65 77 88 77 74 66 68 71 75 71 70 82 83 79
81 80 91 95 98 97 95 94 89 85 81 77 74 74 67 70 71 74 74 71 66 66 62 61 65 62 63 62 59 58 67 79 86 84 89 71 79 77 81 80 74 80 88 92 80
73 78 75 85 90 94 93 96 89 82 74 74 72 74 71 66 63 59 63 64 63 62 61 63 68 70 62 57 59 75 79 83 85 84 88 89 86 84 82 81 84 87 94 94 85
65 70 72 70 79 79 80 78 77 73 71 71 69 68 70 71 67 66 64 62 62 63 62 66 67 70 68 63 81 89 85 83 81 81 86 89 80 82 82 87 89 86 86 84 76

GFSSW_prec_cthk_048.txt.gz
RH
31 32 31 31 27 25 28 34 36 46 54 67 65 58 36 33 31 32 29 22 21 31 34 37 37 33 31 33 32 32 41 40 30 27 22 20 26 30 28 27 24 24 24 20 27
34 34 34 33 32 31 29 28 30 44 50 58 65 63 49 35 35 30 28 27 22 33 34 36 35 35 34 32 33 35 40 35 27 25 25 22 26 31 30 29 26 26 26 28 28
41 38 37 37 34 33 33 33 33 39 52 53 66 67 56 45 40 28 28 29 26 34 38 38 40 40 36 33 35 35 37 29 28 26 27 25 27 30 33 29 28 30 30 31 31
41 43 44 45 42 39 36 34 34 34 45 55 73 67 59 53 50 43 37 32 31 34 38 41 42 43 40 39 34 37 34 31 27 25 28 29 28 29 31 29 27 29 29 33 36
51 54 57 54 47 42 39 36 32 34 41 51 71 71 60 50 44 51 50 36 43 56 50 42 42 41 41 38 36 38 36 32 29 28 29 31 31 28 28 28 28 27 30 29 28
52 59 61 59 56 45 45 38 39 33 32 45 66 74 58 54 40 52 60 49 48 57 58 44 44 41 37 36 38 37 33 33 31 30 30 30 30 29 26 29 30 28 27 28 29
56 64 68 66 64 63 56 46 41 41 27 43 69 79 64 62 44 50 60 71 65 61 63 55 58 49 40 40 40 39 42 41 35 30 32 31 27 29 27 26 29 28 27 27 27
59 66 73 74 76 77 66 55 54 43 30 46 77 88 65 67 51 54 57 61 74 72 75 74 74 63 54 47 44 44 43 45 34 31 30 31 29 24 20 21 22 22 25 24 25
61 66 74 69 80 80 75 70 56 48 33 44 88 89 70 70 55 53 62 61 65 77 74 80 87 74 66 59 53 49 52 47 39 34 33 35 33 23 22 24 23 21 20 19 18
60 60 65 82 87 90 89 67 55 50 32 53 74 87 75 70 65 56 64 66 68 79 86 87 96 91 78 70 68 61 53 46 46 38 38 39 41 30 29 28 27 26 22 21 20
59 53 67 70 74 94 90 81 57 57 43 68 90 97 78 76 71 56 64 75 74 86 81 78 82 85 86 81 72 65 60 56 46 41 37 37 36 29 27 29 29 27 24 23 22
59 59 59 67 71 83 84 89 60 64 51 76 86 91 86 78 73 59 66 70 73 76 81 82 78 80 92 91 85 71 61 56 49 46 42 38 34 29 26 25 24 23 21 21 21
63 61 64 65 60 70 77 80 63 56 63 94 97 98 92 75 63 57 65 65 69 70 72 76 67 70 70 69 73 63 57 55 54 50 44 41 31 26 21 18 18 18 17 17 16
54 57 69 72 68 77 90 75 63 66 86 96 98 97 77 82 71 65 67 65 69 70 73 75 62 65 68 65 59 60 56 57 55 50 50 41 44 29 21 19 18 17 16 16 17
57 72 85 89 82 76 90 72 68 72 96 92 98 92 88 81 67 75 68 66 71 67 66 68 64 63 62 64 60 59 54 51 50 51 48 42 46 28 23 20 17 17 16 16 15
81 82 87 91 92 88 84 74 78 94 96 99 91 88 95 85 70 75 71 68 66 68 70 66 64 65 62 58 56 55 53 53 52 51 56 42 44 34 23 20 18 17 16 17 17
83 84 88 89 87 76 75 80 82 96 96 90 85 89 92 84 73 73 70 67 65 75 78 71 69 65 61 60 55 52 55 61 60 61 52 41 50 35 26 21 20 22 22 21 23
79 85 90 91 74 80 81 87 92 93 93 90 85 91 95 77 74 76 72 67 60 61 70 73 71 62 56 55 54 52 51 56 55 64 57 43 45 31 24 20 22 26 28 28 29
79 81 83 70 70 79 85 96 97 98 98 92 92 94 96 76 76 79 72 65 60 59 62 68 64 56 53 51 49 53 58 52 60 60 64 45 34 22 24 31 34 35 35 37 38
68 71 70 76 86 96 98 97 98 95 90 88 92 90 87 79 83 77 67 60 57 57 56 56 65 57 56 52 51 51 54 65 64 57 59 44 41 32 34 40 43 45 46 47 46
56 62 67 79 87 91 97 98 99 92 90 84 83 81 80 75 76 67 63 57 55 55 54 52 54 64 59 59 59 59 61 56 57 57 62 63 41 41 44 48 52 52 51 53 54
58 70 79 89 93 95 98 98 94 94 87 82 79 77 77 72 73 59 58 56 50 50 54 51 56 69 66 59 57 57 59 57 61 52 64 68 58 49 55 56 58 59 67 70 60
68 77 82 90 93 97 99 96 95 91 87 79 76 72 74 73 73 61 53 51 50 49 53 50 59 67 62 60 58 60 57 55 54 60 72 79 65 57 61 64 69 72 73 70 72
62 69 73 79 88 96 98 96 90 80 71 65 64 66 67 71 66 64 58 58 58 58 54 57 63 60 64 58 57 60 56 57 63 78 77 80 63 67 69 70 72 74 76 75 75
62 69 69 73 77 83 85 89 82 78 71 65 66 62 65 74 73 68 65 65 63 63 62 61 67 65 63 60 60 60 57 63 75 76 83 69 77 71 75 75 77 80 78 75 71
58 61 67 70 73 78 82 79 77 76 73 75 77 75 68 74 77 75 70 69 68 66 65 65 70 68 65 55 56 59 62 71 78 79 80 76 77 76 74 80 85 79 72 71 69
58 59 66 65 70 73 74 73 74 71 72 70 72 74 77 72 66 68 67 66 66 65 65 63 66 71 63 59 63 75 77 79 82 81 80 84 76 78 80 83 77 72 71 72 73

GFSSW_prec_cthk_051.txt.gz
RH
40 40 40 40 37 34 33 32 28 30 38 47 56 67 68 56 44 44 33 25 23 30 30 35 39 40 43 40 42 44 49 48 38 35 27 25 25 29 30 27 27 26 23 22 23
49 47 45 41 44 43 37 35 33 31 35 44 53 64 66 68 49 42 30 28 26 36 34 33 37 41 43 38 38 41 46 42 34 30 27 26 26 27 28 28 26 26 24 26 28
44 48 52 53 51 46 44 38 37 34 32 33 54 58 72 64 61 36 31 28 30 35 39 39 41 43 42 38 37 38 39 31 30 28 27 27 27 26 26 29 27 27 32 32 34
38 43 48 52 55 52 51 46 45 38 35 28 51 59 79 59 58 54 42 30 33 38 43 44 45 44 44 41 36 36 33 32 28 28 28 28 27 25 25 25 27 28 34 38 38
39 44 53 60 63 65 61 52 48 45 38 33 48 64 82 64 51 59 56 44 36 45 43 48 47 44 42 41 39 38 35 31 29 29 27 28 28 27 22 22 29 28 30 34 35
45 47 56 60 67 68 66 62 60 50 46 36 49 66 88 73 67 48 69 54 37 46 48 44 48 44 41 39 41 38 35 34 33 30 28 29 27 27 22 21 25 27 29 29 31
47 53 59 66 76 74 77 77 71 54 47 44 49 66 88 84 62 42 65 65 48 55 61 55 48 48 46 42 41 39 41 35 32 30 31 29 27 27 24 23 20 21 25 28 30
49 59 58 61 65 80 81 77 78 63 61 42 51 63 72 86 69 54 62 76 72 78 73 64 58 52 48 45 42 44 44 48 35 31 31 30 28 26 24 22 22 22 22 25 26
58 60 57 61 82 87 86 90 73 63 57 44 54 63 82 94 67 58 60 79 87 87 86 77 73 73 58 54 54 49 52 47 38 34 34 35 34 25 23 21 22 19 17 19 21
58 58 55 56 61 71 90 85 76 57 54 46 50 73 87 81 80 62 60 71 84 92 98 98 89 87 73 65 61 57 49 44 42 35 36 37 40 28 26 26 26 23 20 17 17
65 65 66 62 62 68 78 73 79 65 59 51 69 77 87 93 83 63 62 70 84 91 94 95 93 94 76 70 64 62 59 54 44 38 37 35 35 27 25 28 27 25 23 21 20
61 55 61 67 70 66 63 76 81 69 60 61 75 88 97 88 85 73 66 70 88 90 93 95 94 91 96 91 77 72 68 61 52 45 42 37 36 28 25 25 26 25 23 22 22
54 63 67 67 74 72 75 85 72 61 56 77 71 88 92 89 81 75 69 76 87 91 88 89 81 87 94 96 96 85 76 66 56 48 45 42 34 28 23 23 21 19 19 18 17
68 81 92 92 84 85 76 87 66 65 72 90 74 83 95 90 80 74 74 79 89 87 86 82 75 75 80 87 87 83 74 68 57 51 55 46 47 30 22 20 18 18 19 18 16
83 92 98 92 93 97 82 78 61 67 84 74 91 96 94 83 74 76 76 75 82 79 72 76 78 79 73 69 72 71 60 56 55 55 52 46 49 28 22 20 19 19 18 17 17
94 89 89 93 90 89 80 74 69 95 97 93 94 93 93 87 73 77 77 72 75 79 70 70 72 69 66 65 63 62 59 57 57 53 56 43 44 30 24 22 20 20 19 19 18
89 87 91 85 80 74 78 67 86 97 94 99 98 89 84 85 86 86 76 72 81 86 80 72 74 68 63 62 60 62 62 63 57 59 51 46 49 33 26 25 23 22 22 22 22
74 74 69 66 72 69 72 84 91 92 97 98 93 87 95 87 91 84 75 78 75 77 77 78 80 67 64 63 64 60 57 59 50 59 57 48 49 31 27 24 22 24 26 28 28
63 59 65 75 72 86 93 94 96 94 94 87 89 90 96 91 86 84 81 77 72 64 70 73 72 67 64 59 57 60 60 51 57 56 61 47 36 24 25 27 33 33 33 33 34
58 67 79 84 85 85 93 98 97 89 86 76 80 89 88 90 81 81 74 70 67 61 60 60 71 62 60 57 56 53 51 58 60 49 51 41 42 30 30 36 39 40 39 40 44
59 68 72 76 77 79 89 91 92 83 77 71 75 80 86 78 72 72 73 62 60 62 59 57 60 66 56 55 58 57 59 57 58 55 59 58 36 35 42 45 48 51 53 56 57
63 76 75 77 80 80 84 83 83 83 76 72 77 81 76 69 76 75 66 60 58 57 59 56 58 64 60 58 59 59 59 57 62 56 65 63 52 47 51 53 57 60 63 64 61
62 69 76 81 81 80 83 85 83 80 79 73 73 73 73 69 73 68 58 54 53 54 56 52 56 64 64 61 60 62 59 58 58 60 64 65 60 55 59 61 64 68 67 66 67
58 65 72 79 82 83 81 83 82 77 76 72 70 70 72 70 69 63 55 54 51 52 53 49 55 58 64 58 60 63 60 58 58 65 64 72 66 65 65 66 66 69 74 71 64
55 61 66 67 74 82 78 76 74 72 66 64 68 68 72 78 72 64 56 55 54 60 50 52 62 66 63 62 61 61 58 58 57 64 75 73 72 67 68 68 70 74 69 64 61
54 61 59 65 66 71 72 73 71 71 67 65 70 67 70 77 75 66 61 62 59 62 61 60 74 72 68 59 60 63 58 60 66 73 79 76 75 67 72 75 80 74 69 64 63
53 58 62 61 65 67 68 65 67 66 69 70 74 76 77 80 75 70 66 65 65 65 67 68 71 75 67 62 62 60 60 65 71 76 74 79 71 76 78 82 84 78 73 65 65

GFSSW_prec_cthk_054.txt.gz
RH
42 46 46 48 46 45 47 44 39 37 25 28 40 54 76 62 64 53 40 32 28 31 34 36 45 46 52 53 50 48 50 47 37 35 30 30 29 27 25 24 30 31 28 26 26
43 42 42 40 47 45 44 45 47 44 39 25 30 48 58 68 64 62 42 36 31 34 39 38 45 48 49 46 49 52 53 46 37 34 33 32 30 28 26 27 28 29 30 27 27
43 39 36 39 44 45 56 53 47 50 47 39 28 44 58 89 64 52 61 41 34 38 42 42 47 49 49 44 42 44 47 41 40 37 36 34 31 30 28 27 28 29 31 31 31
43 48 49 43 46 49 57 62 67 62 51 47 36 41 62 76 72 55 60 42 37 42 47 49 44 50 49 45 41 41 38 37 34 37 38 36 32 29 28 24 28 29 34 35 36
46 51 47 51 52 56 60 69 72 68 60 52 42 42 70 70 78 68 62 55 41 50 51 52 49 51 48 45 42 41 39 35 33 32 33 32 31 29 24 23 24 27 30 38 37
49 51 45 54 55 58 65 73 80 75 69 56 50 47 71 65 73 85 61 66 50 52 55 53 56 50 50 43 42 39 37 36 33 32 31 30 28 27 21 20 20 21 28 34 39
47 53 56 55 57 60 74 85 81 79 76 62 62 55 71 70 82 91 54 69 58 48 52 53 57 51 48 45 42 41 41 36 32 33 33 30 28 26 20 21 19 18 21 29 33
58 57 59 57 56 64 77 83 86 91 71 73 68 60 66 66 79 91 61 72 71 57 56 53 59 56 51 47 45 44 43 45 36 31 30 31 29 26 23 22 19 18 18 20 25
61 67 69 63 59 58 64 81 79 84 77 79 73 63 72 67 88 83 61 73 75 65 79 81 70 63 58 52 53 50 51 46 40 35 33 32 34 28 25 24 22 20 17 17 17
66 72 67 64 65 61 64 70 68 81 71 73 68 70 62 74 90 82 65 75 83 90 97 94 92 81 65 55 53 48 49 44 41 33 35 36 37 30 25 24 24 23 20 18 17
67 69 56 62 64 73 71 66 67 81 76 69 59 77 59 73 96 85 69 80 86 93 97 95 94 84 66 59 52 50 50 45 39 37 36 36 35 28 26 25 24 23 21 19 17
50 61 68 84 75 72 67 76 77 76 71 73 64 78 63 80 96 86 66 82 93 94 97 97 91 88 81 73 70 65 62 57 50 44 40 37 36 27 23 24 23 23 22 21 21
72 79 91 98 98 83 73 81 78 68 68 76 67 75 77 95 89 78 67 73 87 96 95 96 97 95 96 88 79 75 70 64 59 52 46 43 35 27 22 22 21 21 21 21 18
92 97 96 93 97 97 82 79 69 63 69 79 84 89 89 89 92 80 71 78 88 93 92 89 95 94 96 95 94 94 77 72 66 60 59 47 51 32 26 22 22 19 19 20 21
82 86 87 87 89 95 83 72 59 63 84 85 89 90 96 92 84 83 80 77 84 93 88 88 89 90 93 94 95 86 81 74 67 64 56 49 50 28 24 23 22 23 23 23 22
61 69 72 76 77 75 66 56 69 87 94 85 83 98 94 87 84 81 84 79 83 86 85 85 84 85 80 78 76 79 79 77 70 61 60 46 45 28 25 25 24 24 24 24 23
60 57 61 63 61 57 59 75 94 93 81 87 90 94 93 94 82 83 86 83 89 94 90 83 82 79 78 77 71 65 69 73 57 61 53 50 48 32 28 25 26 25 24 22 23
58 70 72 68 64 80 90 95 93 83 82 93 91 90 95 91 88 82 84 79 81 82 82 79 82 76 75 69 67 66 64 63 48 57 56 51 51 32 29 26 28 26 25 26 27
59 60 65 69 76 83 87 92 90 97 89 88 86 93 95 92 83 91 81 73 73 76 78 76 76 76 73 68 64 66 66 56 61 58 62 46 37 26 30 29 28 31 31 31 33
56 59 59 61 67 77 73 87 92 96 89 86 85 87 88 96 86 87 82 69 72 77 73 70 83 74 71 67 63 61 59 60 59 48 45 35 39 29 29 32 34 37 38 39 42
57 65 69 66 65 68 73 78 82 79 73 73 76 80 84 86 78 78 75 73 76 69 64 63 67 75 66 70 67 62 62 55 55 53 55 46 31 34 33 40 44 46 49 51 54
62 67 67 67 68 74 76 73 69 69 63 60 69 78 82 77 72 73 74 64 67 64 63 60 66 69 65 65 57 54 56 54 60 58 64 62 44 37 44 48 50 53 55 59 60
59 68 71 69 76 74 75 74 69 66 65 67 73 72 68 67 66 66 71 61 58 60 63 60 62 70 67 59 59 62 60 58 57 58 64 60 44 47 51 54 58 59 62 63 60
56 65 70 73 74 78 79 73 70 68 68 67 69 69 66 67 70 74 59 58 57 59 58 56 58 56 61 56 60 65 61 59 59 64 60 57 54 55 58 61 63 64 66 61 56
49 59 62 78 72 72 74 75 74 75 70 68 68 69 72 75 71 67 56 54 55 58 58 56 60 61 61 59 61 62 58 61 59 57 59 60 67 65 65 64 65 70 65 63 58
47 58 60 64 69 71 72 72 70 67 65 66 72 75 72 76 71 67 57 55 54 58 58 56 66 65 65 60 62 63 59 60 60 59 67 72 74 68 69 69 73 73 68 62 58
49 52 59 60 66 67 68 69 67 66 67 67 69 72 75 78 76 66 62 60 60 63 64 62 68 70 67 63 64 60 54 52 61 68 72 80 70 70 72 75 77 76 71 66 61

GFSSW_prec_cthk_060.txt.gz
RH
60 66 68 65 60 52 51 49 50 50 55 50 45 40 29 44 53 51 53 56 52 43 42 30 44 56 66 68 53 45 43 45 40 36 32 32 31 29 27 26 27 27 29 31 30
64 66 63 59 59 61 62 55 51 49 46 48 46 43 41 32 60 53 58 57 64 49 50 35 44 54 63 68 63 49 40 35 36 36 32 30 30 30 28 28 27 27 28 30 29
65 65 64 66 60 57 55 50 48 48 47 45 49 45 43 38 49 46 64 50 64 50 50 49 49 58 60 62 66 56 45 39 39 34 31 32 32 32 31 31 28 28 27 34 32
59 54 49 52 55 56 54 52 51 52 51 51 50 52 47 48 46 56 44 50 64 56 56 54 53 64 62 56 61 62 54 48 46 39 35 34 34 33 32 32 30 28 28 29 36
49 52 59 72 66 63 64 68 65 60 58 59 58 57 59 60 35 62 62 75 76 63 58 58 55 58 57 55 57 59 61 56 53 50 45 42 38 36 34 35 32 30 28 30 32
57 62 72 76 77 81 70 70 66 67 67 67 67 73 74 68 41 65 85 88 77 68 55 67 55 61 61 55 53 53 58 58 58 53 50 46 44 39 36 35 32 29 27 28 31
64 71 75 80 88 91 77 68 65 67 67 72 85 85 91 70 56 62 81 95 72 66 47 70 62 63 61 56 53 53 52 51 53 51 48 46 43 38 37 34 30 27 26 25 27
65 74 66 71 74 70 68 64 59 64 69 72 91 93 85 80 62 58 80 84 78 73 50 69 66 68 60 58 54 50 49 48 38 43 44 40 32 35 34 32 30 27 25 24 21
70 80 72 61 56 68 61 66 68 68 60 68 93 94 92 67 63 85 98 89 84 63 58 78 83 67 61 54 56 50 40 38 41 38 35 33 28 29 28 27 26 26 25 23 20
73 82 92 87 67 74 80 68 66 66 66 75 84 96 83 61 78 93 83 88 81 64 71 95 96 85 72 58 46 44 45 41 35 38 38 34 29 29 28 26 23 23 22 21 19
60 72 89 96 98 91 95 80 70 75 76 77 90 94 75 72 90 73 77 84 88 71 74 92 97 89 69 56 49 48 45 40 34 35 34 34 35 31 29 26 23 21 20 19 20
54 55 62 68 80 93 97 74 72 74 74 83 89 88 75 82 76 80 88 98 87 78 80 92 93 91 84 69 55 48 42 40 41 37 36 37 33 29 27 26 25 23 21 20 19
48 60 61 60 74 81 70 67 63 72 85 87 94 75 81 77 88 98 91 97 88 79 83 81 85 87 86 76 65 52 45 46 41 40 39 38 32 29 26 25 24 23 23 22 21
54 48 63 52 58 53 56 63 79 92 97 95 92 82 90 92 94 94 91 95 90 88 93 91 87 88 82 77 65 59 54 50 46 46 45 38 34 31 28 28 27 27 27 27 24
56 60 60 42 61 71 69 73 85 94 96 98 94 84 86 84 93 99 98 91 94 97 95 98 97 93 91 84 76 74 65 58 54 52 47 43 41 32 29 29 30 29 29 28 27
50 56 61 48 49 59 60 70 79 85 91 86 82 94 96 98 87 98 96 92 95 95 97 97 98 97 97 96 87 74 68 64 59 57 56 44 43 31 30 28 30 29 30 29 29
48 50 52 54 52 55 58 65 70 79 86 86 89 85 92 95 89 90 91 95 96 98 98 98 98 97 96 96 97 89 77 79 74 71 56 47 45 33 31 29 30 32 33 32 31
46 50 52 51 51 49 53 58 74 91 90 86 86 89 94 89 89 85 78 79 77 85 96 95 96 96 95 86 86 84 82 75 60 50 47 51 43 32 33 31 33 33 34 33 32
47 51 50 51 46 49 56 64 82 88 88 81 77 79 86 80 78 83 71 72 75 73 78 86 93 86 88 85 80 80 81 70 64 61 55 42 39 36 34 34 35 34 35 36 36
47 48 50 51 51 45 55 69 76 81 80 76 78 77 75 78 76 77 73 66 71 75 73 75 87 82 83 81 77 75 69 71 70 61 48 34 30 29 33 34 36 36 38 41 42
49 51 50 48 53 52 59 66 70 72 72 71 72 71 69 65 66 68 70 68 67 68 69 70 68 77 76 77 76 73 72 64 52 44 42 26 25 28 34 36 37 38 40 44 44
45 53 53 47 51 65 68 69 68 67 67 67 69 71 70 67 62 62 62 60 61 63 66 70 69 75 73 73 72 69 65 58 55 54 48 48 30 31 34 35 35 39 44 48 48
43 48 52 53 57 59 60 61 60 60 58 61 66 68 70 67 69 69 66 61 59 64 65 62 67 74 73 74 68 68 63 58 51 51 56 43 32 35 36 38 37 45 51 54 54
41 47 51 56 58 55 53 58 57 58 61 65 67 65 66 66 65 67 66 66 65 67 62 58 59 58 59 61 61 66 60 55 58 58 45 44 37 39 39 38 47 52 57 60 58
39 45 53 59 60 64 61 59 60 62 64 66 67 67 62 65 62 62 68 64 65 62 61 62 65 64 60 60 59 59 57 55 57 54 59 43 41 38 41 48 54 59 63 65 63
43 47 49 52 55 59 66 66 67 68 68 69 68 71 70 63 62 67 64 62 55 60 59 62 72 65 63 56 58 61 55 56 55 53 51 47 45 47 54 58 60 68 70 68 63
47 47 49 50 52 55 60 62 65 65 64 63 67 70 74 76 73 69 61 56 56 55 55 59 64 63 57 57 59 61 54 52 52 52 50 54 54 57 60 64 70 74 72 67 65

GFSSW_prec_cthk_063.txt.gz
RH
62 66 62 63 59 69 72 72 71 68 62 62 63 55 49 39 32 54 50 49 50 43 39 38 43 48 62 70 52 49 66 63 52 48 45 52 41 34 31 31 28 29 36 41 38
55 48 42 50 51 54 58 60 70 74 63 62 60 59 55 47 36 34 57 48 53 50 48 42 47 49 63 65 68 52 52 51 49 47 48 49 39 37 31 28 27 28 29 34 36
45 45 48 55 55 61 62 60 60 57 58 53 57 59 60 53 45 29 42 47 58 58 47 54 55 57 65 58 64 61 46 41 46 50 45 46 36 35 32 28 26 27 31 34 34
49 52 60 62 66 75 75 70 64 57 51 51 48 47 48 54 46 35 36 57 54 67 51 56 51 63 70 57 53 63 57 50 49 44 45 40 36 35 34 34 33 32 30 32 36
53 63 67 70 78 85 92 85 71 72 67 66 59 55 50 52 37 52 55 56 73 64 59 53 57 59 68 64 54 61 67 63 61 48 45 42 38 36 35 36 34 32 28 28 28
64 65 74 74 80 85 93 81 73 78 80 72 68 74 75 57 44 45 63 58 78 66 67 50 59 60 66 69 60 55 71 72 65 60 52 49 44 40 36 36 34 32 29 28 28
61 69 79 74 51 71 78 71 75 73 70 73 64 84 80 59 63 54 59 68 68 72 66 52 65 70 69 71 65 64 67 70 68 62 57 55 53 44 40 37 35 32 31 28 27
67 72 80 86 65 50 56 58 61 60 65 71 72 83 86 78 68 64 72 75 74 80 76 64 69 81 78 71 67 65 66 67 65 64 62 57 46 46 42 38 34 32 30 27 26
59 58 70 86 85 55 59 55 62 64 65 60 64 80 84 78 64 60 79 87 85 95 85 65 74 82 85 80 71 61 58 54 55 57 60 56 47 44 42 39 35 32 30 28 25
57 50 52 64 85 90 72 77 65 62 66 66 74 86 78 83 73 69 95 98 86 83 83 69 77 83 87 76 78 50 51 43 44 52 53 50 46 44 40 38 34 33 31 28 26
62 43 44 54 68 88 89 90 77 79 73 81 87 85 88 82 77 73 72 92 91 95 62 67 80 82 75 66 56 52 47 47 41 48 48 46 44 38 35 32 29 27 25 25 23
54 48 54 53 61 69 78 71 67 69 77 76 85 88 88 98 92 86 92 98 93 74 66 79 81 80 79 71 63 54 52 50 46 44 40 37 41 41 33 28 25 23 23 22 22
50 44 51 56 46 52 58 61 68 82 96 89 87 82 93 98 97 98 95 91 87 68 68 75 82 92 92 78 66 55 53 47 42 43 39 40 38 34 30 26 24 24 22 22 21
48 44 39 53 64 73 74 74 82 90 94 81 80 94 94 97 89 87 85 93 91 70 76 85 93 94 92 86 69 59 51 47 46 44 38 37 27 34 30 27 26 26 27 27 25
43 42 47 41 53 63 70 80 83 83 87 91 88 84 84 84 91 97 98 98 87 79 82 94 93 93 94 88 77 72 54 53 47 47 50 44 36 41 34 30 28 29 31 32 28
44 41 44 48 52 58 61 64 75 81 89 89 88 89 95 97 97 96 98 85 84 91 89 97 91 94 96 90 84 76 63 56 54 53 58 43 39 42 34 30 31 29 30 29 29
42 42 44 46 50 53 54 60 69 80 89 94 93 95 93 97 97 96 91 96 97 98 97 98 98 95 97 94 88 80 70 79 80 75 58 43 43 34 29 30 31 33 32 31 31
40 41 43 44 49 55 65 56 67 78 85 88 89 81 84 80 92 92 89 94 90 91 98 98 98 98 97 95 94 90 82 79 69 57 54 49 45 35 32 31 35 33 33 33 33
41 41 41 45 44 47 60 64 73 77 77 72 71 81 79 73 74 79 79 74 81 87 92 94 97 97 96 89 93 97 96 72 62 50 49 41 39 40 37 35 35 35 35 36 37
43 40 43 45 43 48 55 64 68 70 69 67 68 67 67 67 65 64 61 66 74 73 76 77 90 90 87 85 81 82 80 82 75 68 50 41 35 34 36 37 37 37 39 39 41
46 49 39 43 44 46 59 63 64 65 65 67 65 63 64 64 64 63 63 60 63 68 69 69 71 80 82 83 78 75 73 72 68 57 56 36 33 34 34 34 39 39 41 43 43
39 49 47 38 51 53 60 62 60 62 62 60 62 59 59 59 60 63 64 65 65 62 61 65 70 74 71 73 73 68 67 62 63 59 51 55 44 34 35 36 37 40 43 46 45
38 41 47 46 53 56 55 55 51 52 54 59 61 63 61 60 61 55 56 60 57 56 58 63 71 73 69 69 67 69 65 63 60 60 65 47 41 36 39 37 37 38 46 47 48
42 44 43 51 51 50 49 50 50 48 50 54 59 58 61 61 59 65 65 62 58 59 63 60 60 63 62 66 62 67 63 63 69 72 52 45 41 36 37 39 40 43 51 52 52
53 46 46 51 55 59 56 52 51 53 54 58 59 60 58 60 57 60 63 64 63 62 65 64 65 59 56 56 59 62 61 61 67 58 65 46 41 40 40 41 41 47 55 56 57
57 60 48 46 46 51 60 63 63 62 62 62 62 61 63 58 57 58 58 62 59 61 60 59 72 68 67 58 56 61 56 54 54 56 49 44 44 40 39 40 49 56 62 65 64
49 62 66 50 46 48 53 55 59 61 60 59 60 63 65 69 67 62 63 63 60 55 57 62 66 68 62 58 55 58 49 49 50 49 48 51 42 42 44 52 59 67 67 68 65

GFSSW_prec_cthk_066.txt.gz
RH
46 48 50 50 50 55 57 61 62 68 82 84 76 80 80 70 50 36 50 48 49 47 43 42 48 48 69 81 65 60 81 88 82 70 59 58 60 50 38 33 33 31 40 56 48
41 46 47 53 60 65 68 68 68 65 70 74 76 75 81 71 63 45 40 52 43 55 43 43 44 54 61 78 77 64 60 64 75 69 60 61 63 56 45 33 31 30 34 41 40
43 51 57 65 69 74 77 79 72 68 67 61 62 74 75 74 66 49 32 39 54 52 52 47 44 52 65 65 71 69 58 41 54 69 64 58 61 59 46 36 31 29 32 37 37
50 57 60 63 72 78 82 88 87 77 73 64 57 63 65 74 62 58 34 27 55 55 60 50 48 55 63 64 61 62 61 53 49 60 61 57 55 50 44 37 34 31 35 35 35
53 61 66 75 74 64 83 86 83 75 75 70 65 55 52 51 48 58 67 45 54 63 66 55 42 54 60 65 59 61 61 64 55 50 53 54 49 46 44 42 41 36 33 32 37
56 51 55 71 86 58 57 76 74 68 77 79 77 72 67 54 47 57 61 66 66 64 68 61 45 49 58 71 72 57 65 67 66 58 51 51 48 47 42 44 40 37 33 31 30
49 43 52 64 84 70 49 56 60 67 67 76 77 69 73 69 63 53 60 62 73 82 71 70 52 49 57 64 74 69 63 72 68 64 62 53 53 43 44 42 38 35 33 30 30
43 44 44 50 80 82 51 51 55 59 56 63 72 65 65 67 58 51 52 64 67 81 84 79 61 59 62 65 74 82 65 74 66 69 70 64 54 49 45 44 37 35 32 31 29
41 45 40 45 59 86 64 61 59 58 56 60 62 61 66 70 61 52 47 70 73 85 86 85 72 61 63 81 77 84 81 64 64 63 71 69 59 53 50 46 41 36 33 31 29
42 44 44 44 50 69 86 72 69 60 62 63 68 76 73 69 71 57 52 73 78 80 90 90 75 75 68 75 74 72 73 57 54 57 62 66 62 55 50 50 45 38 34 31 29
44 43 47 48 62 74 73 80 78 83 71 83 87 82 82 79 69 58 56 87 84 88 86 87 79 68 61 61 67 65 68 58 50 54 61 57 66 57 51 50 47 43 38 35 31
40 41 47 52 60 75 72 66 64 65 75 73 79 88 94 89 78 87 96 88 90 90 95 86 71 60 70 76 76 79 76 59 56 56 56 54 52 57 50 45 44 40 37 35 33
37 40 39 50 64 70 74 78 77 82 92 87 90 92 91 92 91 98 93 95 86 98 83 78 66 66 64 69 74 75 69 61 56 58 54 51 49 48 50 42 39 37 32 30 28
36 38 39 43 55 60 66 67 70 78 95 92 89 86 86 84 85 96 94 96 90 71 82 79 78 66 75 76 74 79 65 67 62 58 57 49 41 40 41 40 35 31 29 27 25
36 38 41 45 50 50 54 62 67 78 88 92 96 97 98 96 94 94 96 95 83 76 72 79 70 77 81 83 82 75 67 61 60 57 56 52 48 33 40 41 36 29 28 29 27
34 39 43 49 52 51 51 60 66 81 97 98 98 96 96 91 91 87 93 93 84 77 80 82 83 86 93 96 94 80 77 65 62 64 71 54 46 43 39 34 36 36 34 32 32
35 36 41 46 54 50 53 56 63 74 85 88 95 97 92 96 96 93 88 95 86 85 82 89 91 94 96 98 95 88 83 86 85 81 68 44 51 42 37 34 34 34 34 36 34
35 36 36 40 45 51 50 55 60 68 74 74 84 82 87 88 94 95 97 93 86 83 86 88 92 96 92 95 94 89 81 83 69 71 59 51 52 39 38 37 38 39 38 37 38
34 35 38 37 40 47 55 56 64 64 68 72 71 71 68 73 80 79 81 92 96 94 97 98 95 92 94 89 94 94 94 75 71 55 64 53 43 39 36 37 37 36 36 37 37
32 36 37 40 40 45 49 57 63 62 61 61 64 65 68 65 66 68 71 72 80 83 84 87 98 98 97 97 95 96 88 86 80 73 62 51 47 41 38 37 37 38 38 38 40
30 41 41 36 43 43 51 55 58 58 57 59 58 58 58 62 59 61 59 68 69 71 72 77 81 93 91 95 94 96 96 84 73 64 74 53 44 36 36 37 38 40 42 43 44
36 40 40 43 48 50 53 53 52 57 57 56 58 56 56 58 60 61 62 62 59 63 66 68 73 80 81 81 82 81 80 82 89 71 68 70 53 39 37 38 40 41 43 46 45
38 39 36 42 58 54 51 50 46 46 49 56 58 58 57 56 58 57 58 58 56 58 60 60 71 79 72 74 77 76 73 71 71 75 82 76 58 47 44 44 42 42 42 45 45
41 54 43 41 47 55 51 48 47 45 44 50 56 57 58 60 57 62 59 56 56 55 54 56 62 68 75 71 69 73 69 68 72 78 67 64 48 48 45 42 40 40 42 46 48
39 50 60 57 49 52 58 58 50 49 49 50 55 57 60 60 58 58 63 64 59 57 56 63 65 59 57 57 57 61 62 64 70 66 69 60 49 45 43 40 40 43 45 51 54
38 44 48 61 54 47 56 63 66 62 57 57 58 59 59 61 61 61 58 58 60 59 59 61 70 67 66 56 56 57 56 59 60 61 61 59 57 48 45 42 43 45 52 58 57
34 38 48 47 58 66 55 61 61 62 64 55 57 57 61 65 66 63 59 58 59 61 59 59 66 69 67 60 59 61 52 53 55 53 53 57 44 45 43 43 44 53 63 63 62

GFSSW_prec_cthk_069.txt.gz
RH
37 42 50 52 57 65 66 72 72 69 65 65 81 84 83 93 90 75 40 53 55 45 47 49 48 48 66 81 80 89 97 95 86 82 71 69 69 57 50 42 37 44 44 50 55
43 45 51 60 66 73 74 74 85 81 74 70 74 78 82 88 86 76 54 43 55 46 43 43 47 63 56 77 83 78 77 73 75 76 81 81 71 61 55 45 42 41 41 51 53
41 48 55 65 76 76 72 79 85 90 80 74 69 69 73 82 83 73 74 45 53 50 62 41 41 68 69 71 86 79 64 60 67 80 84 82 72 69 59 53 43 38 35 39 43
45 47 43 50 71 89 64 75 80 80 75 86 88 72 63 74 85 85 71 53 45 52 78 51 37 58 71 70 72 72 71 68 59 71 83 79 71 67 60 57 48 37 34 37 40
43 43 46 46 61 89 61 55 79 69 71 78 77 63 64 64 67 86 78 65 50 58 70 66 40 47 61 66 67 69 73 69 69 61 67 77 69 65 59 57 47 44 41 40 40
43 43 45 47 52 81 63 41 61 63 64 80 78 74 58 55 54 72 77 72 59 75 79 68 52 40 53 61 67 61 69 75 74 63 56 63 63 60 59 57 51 47 42 38 38
41 40 43 52 58 77 69 46 49 53 62 67 81 71 75 65 50 55 87 72 67 80 95 82 57 47 48 61 63 72 64 73 69 65 61 48 55 57 56 52 51 47 42 37 35
38 39 42 57 53 72 72 53 54 58 58 57 66 70 65 64 57 48 68 80 63 74 88 92 71 51 57 58 66 79 72 74 65 63 63 56 48 50 55 50 47 43 41 39 34
39 35 40 53 50 62 65 62 61 55 51 55 59 65 61 66 68 52 43 77 72 79 81 89 83 64 55 59 73 78 88 71 62 58 60 62 55 51 48 48 42 42 38 36 34
37 34 39 45 49 50 51 59 61 61 56 58 61 65 67 68 68 59 45 64 86 90 95 94 88 73 65 59 58 69 70 70 65 53 55 60 63 60 52 49 45 43 40 35 34
32 32 38 41 48 48 52 53 58 63 70 70 70 72 75 68 65 58 47 60 91 96 95 95 92 70 58 56 55 61 76 74 66 59 53 53 60 69 63 54 50 47 43 37 34
33 33 34 40 43 49 53 62 73 84 89 87 85 87 79 69 71 65 62 75 85 97 93 89 83 75 66 62 68 68 68 66 65 62 57 52 55 62 64 58 51 49 46 42 37
34 34 36 38 42 47 55 67 77 83 91 95 92 92 78 73 70 61 71 97 84 96 95 92 78 71 72 66 71 69 68 67 62 62 61 52 56 56 55 56 54 49 45 43 40
36 36 37 39 42 48 55 63 71 76 92 97 96 95 90 84 98 83 89 91 81 89 83 96 78 69 68 69 68 70 68 73 64 65 71 54 57 44 48 49 50 50 45 40 39
33 35 38 43 45 47 56 60 65 77 92 96 88 83 86 88 84 92 93 95 96 96 91 92 80 72 71 75 72 70 74 75 70 72 68 59 59 41 42 45 43 44 43 37 36
30 33 35 39 44 47 52 56 56 66 92 98 97 93 85 90 94 93 97 94 90 91 87 89 86 76 77 75 75 82 77 77 77 82 88 59 56 44 42 36 39 41 41 37 36
31 31 34 36 40 47 50 50 57 67 74 85 90 96 97 91 93 93 94 87 81 86 82 93 89 82 79 79 81 88 95 96 96 95 77 55 60 40 41 34 34 40 44 40 38
33 33 35 37 38 44 45 51 59 68 74 73 76 84 86 90 91 87 92 95 84 78 79 82 87 86 83 85 91 98 88 84 84 85 72 54 59 44 37 38 36 36 35 41 39
29 36 34 36 39 42 43 53 63 67 72 70 62 65 71 78 82 94 92 91 84 73 73 81 81 81 88 91 93 98 95 75 78 70 72 54 44 38 39 41 41 42 38 40 41
27 33 39 35 38 38 41 54 61 62 65 64 62 59 62 66 71 71 76 84 85 84 80 87 91 89 89 88 90 97 90 88 92 84 76 60 47 43 41 42 38 42 45 45 41
32 36 35 42 43 38 48 53 55 56 57 62 62 56 55 57 56 61 66 70 75 79 80 84 83 93 92 90 90 94 96 89 80 78 83 64 51 41 41 42 40 41 42 42 44
26 40 36 40 48 47 50 49 47 49 54 59 61 58 55 53 55 58 60 63 63 66 72 77 80 95 90 91 89 91 93 87 87 79 74 76 59 42 41 44 44 43 44 45 45
29 33 42 46 53 55 51 51 50 46 45 54 59 61 57 55 56 55 58 53 55 58 62 62 73 83 79 81 83 86 83 88 87 80 82 80 61 49 46 44 44 44 44 47 49
32 40 35 47 55 51 54 57 51 50 47 44 55 60 61 58 57 59 58 54 54 53 55 55 62 67 72 67 74 82 78 79 86 92 81 81 65 60 55 50 48 46 46 47 48
28 40 40 43 47 58 57 53 60 55 54 51 54 57 63 64 58 59 60 60 59 56 53 55 60 57 60 63 64 66 71 75 75 71 74 65 58 55 50 45 43 41 44 44 45
29 33 33 36 43 52 60 63 57 64 67 63 62 63 63 65 67 64 61 60 60 58 58 59 69 68 65 58 58 60 58 62 66 66 66 65 64 54 54 52 47 43 47 46 52
24 29 34 36 44 49 63 72 80 64 61 69 65 68 65 66 69 70 67 60 57 60 61 62 67 67 68 62 63 63 53 52 53 56 53 60 55 53 53 52 49 52 48 52 60

GFSSW_prec_cthk_072.txt.gz
RH
39 42 50 48 56 66 75 78 79 79 84 74 69 75 93 85 87 82 60 47 54 49 50 46 49 55 64 69 84 94 94 90 82 84 74 71 70 59 50 43 40 40 41 45 50
40 44 45 48 55 62 83 76 78 83 89 82 74 71 83 93 86 85 82 56 63 48 44 50 48 57 63 70 83 92 97 81 75 75 85 81 76 68 60 51 51 43 46 50 53
41 41 45 52 57 66 91 63 76 82 92 85 81 76 76 85 90 83 90 75 56 70 55 49 48 61 66 73 76 79 85 80 79 85 88 88 82 72 63 55 52 47 46 51 57
39 41 44 49 49 66 84 46 63 82 65 69 80 82 75 75 85 85 87 86 64 59 64 51 45 63 76 70 73 83 77 79 84 90 89 92 89 76 64 55 53 45 40 43 51
32 37 41 43 46 60 77 41 57 64 64 72 77 74 80 75 80 91 86 79 73 56 63 63 42 59 74 70 67 80 78 78 78 79 79 86 93 88 70 64 59 51 44 42 44
32 35 39 41 48 56 68 39 48 50 56 66 74 73 77 74 68 91 86 85 74 64 83 79 46 52 65 74 76 66 76 80 75 71 76 81 85 88 74 68 66 60 53 46 47
32 33 42 46 52 57 45 47 49 52 58 61 70 65 66 66 74 89 81 89 80 67 83 91 68 45 53 64 77 75 77 78 76 72 72 73 85 82 76 69 65 63 54 45 43
29 34 43 44 57 53 48 47 50 48 47 50 59 60 59 60 66 75 78 86 77 78 86 88 85 47 47 58 66 79 81 87 71 73 70 68 69 69 70 68 65 60 55 44 38
31 30 39 45 48 53 50 48 46 44 43 47 53 57 56 61 56 66 68 80 75 79 94 89 89 63 52 58 66 73 81 72 68 65 66 65 61 63 61 58 60 59 55 49 40
30 29 38 48 43 47 55 54 53 53 54 55 56 58 56 61 60 67 62 72 81 87 96 98 92 73 59 59 61 65 72 70 64 60 62 64 63 59 55 50 51 54 51 47 42
29 33 37 45 49 42 57 64 66 67 73 67 62 66 63 64 63 54 60 69 82 90 96 97 92 71 58 57 53 58 63 66 68 62 60 61 61 63 59 49 47 50 46 42 41
31 34 35 42 47 53 56 70 75 74 85 91 74 71 67 63 64 54 52 73 82 84 93 94 87 79 62 58 54 54 62 64 62 64 67 62 58 56 59 59 53 49 47 43 42
29 31 37 38 44 48 53 67 71 79 89 95 90 80 66 67 61 59 59 75 89 95 95 86 79 82 70 65 62 60 59 60 62 61 59 63 60 55 49 55 57 52 51 47 44
27 27 34 38 41 46 49 60 70 71 94 96 96 90 93 74 70 57 78 91 96 98 97 92 87 84 77 75 72 73 64 62 59 63 67 59 66 47 45 46 53 53 51 50 48
29 28 30 34 41 47 50 53 66 77 88 98 96 84 84 81 76 75 75 95 94 94 92 88 85 82 85 74 68 67 68 64 65 66 62 59 65 46 40 43 41 46 50 49 50
28 31 31 31 36 44 51 51 56 66 88 93 96 92 89 83 86 94 86 95 93 95 96 92 91 86 80 79 74 76 70 71 73 77 79 62 67 48 40 33 36 41 47 47 47
26 31 33 35 38 42 48 50 51 64 71 80 93 92 87 88 93 93 91 82 90 94 96 95 97 87 78 72 76 78 77 90 91 90 79 65 71 39 37 32 34 39 42 46 47
22 29 36 35 37 42 45 46 56 63 71 71 75 86 92 86 87 93 90 89 88 83 92 92 92 80 73 71 69 81 80 82 86 84 73 66 65 43 37 32 35 40 42 47 47
25 27 32 37 41 40 43 49 56 62 65 69 66 68 80 91 85 87 83 83 79 70 72 74 80 83 81 74 75 83 83 84 78 73 77 63 52 41 39 35 36 43 42 44 47
22 31 34 37 44 43 42 52 57 57 63 64 64 59 68 74 88 88 88 80 77 71 68 69 79 82 85 86 84 85 93 97 88 81 75 63 59 47 40 38 38 42 42 44 45
21 30 33 41 43 43 53 54 53 53 55 60 61 59 56 60 63 68 76 79 81 81 73 75 77 84 82 81 78 88 96 93 81 74 79 69 58 46 39 36 39 45 51 53 53
20 29 34 38 46 48 55 52 48 50 52 55 58 59 57 58 59 60 65 73 76 79 83 85 89 92 90 85 84 85 91 85 86 81 76 79 61 48 44 45 44 45 52 51 53
22 28 32 37 47 50 52 57 58 51 50 50 56 59 60 59 59 59 61 61 63 71 76 79 82 92 95 89 88 88 85 86 82 80 79 78 59 54 49 47 49 50 53 54 53
22 26 23 34 39 41 48 58 57 57 50 49 50 56 61 61 60 60 61 56 59 61 64 65 70 69 73 66 73 82 83 90 94 93 79 75 62 60 60 56 54 53 51 52 53
17 27 28 30 29 39 43 48 61 61 61 55 51 54 61 63 62 62 61 60 58 59 58 60 62 60 62 66 68 67 76 80 84 81 84 72 70 65 65 66 59 52 55 52 52
18 22 23 26 31 38 42 52 60 66 62 63 71 65 64 63 63 67 66 64 63 63 60 60 64 63 64 58 58 63 62 67 73 71 70 69 68 65 60 58 54 49 48 48 46
18 20 24 24 30 32 40 41 53 63 74 69 67 72 70 66 67 66 70 69 63 64 64 66 69 68 66 62 60 61 54 53 55 58 58 65 55 57 57 54 58 55 48 47 47

GFSSW_prec_cthk_075.txt.gz
RH
36 40 41 39 48 53 58 84 74 74 75 86 77 77 85 89 91 98 76 50 59 54 72 42 48 50 61 61 72 77 77 69 69 75 68 65 64 60 52 43 43 42 41 39 38
36 40 41 38 43 55 72 80 52 81 75 85 77 75 79 86 95 92 90 68 49 58 66 50 46 54 64 61 71 95 80 63 67 73 69 70 73 67 57 46 46 47 45 46 43
35 38 37 36 44 50 68 55 46 68 76 72 73 74 79 79 90 93 93 84 53 62 72 56 49 55 66 62 62 74 80 73 83 85 80 77 78 73 64 49 49 59 48 49 48
32 34 35 39 46 50 53 35 47 60 55 56 66 72 73 80 87 96 94 89 74 64 77 63 52 52 62 66 62 67 81 86 92 92 84 85 86 78 68 56 53 58 59 50 50
32 33 34 40 46 50 44 34 46 48 52 60 64 68 83 84 83 88 90 87 79 71 73 71 53 52 60 66 69 66 74 87 95 89 90 89 85 89 72 61 53 53 61 55 52
32 34 34 39 48 41 41 39 49 47 57 59 62 67 70 80 76 82 87 85 81 71 78 71 52 54 61 66 67 70 77 82 81 90 85 91 90 92 75 68 60 56 55 53 51
30 33 37 35 47 41 41 44 45 47 47 50 61 65 69 79 82 90 92 91 84 70 75 82 52 56 59 68 75 74 77 81 83 87 89 92 97 93 78 75 71 70 64 54 49
29 28 37 38 46 49 46 46 48 46 42 44 53 57 61 75 79 80 84 91 94 71 72 92 67 60 59 68 78 83 76 80 76 82 86 89 84 87 85 79 73 73 70 63 55
28 28 35 38 42 55 55 52 51 50 45 43 52 57 61 65 72 74 79 87 84 69 88 93 82 55 55 68 78 81 77 71 70 71 75 79 74 83 84 82 74 72 69 65 56
29 31 33 39 40 50 64 66 66 66 58 53 51 57 58 60 67 65 72 88 81 79 97 99 91 64 54 61 66 80 76 72 73 70 73 75 74 76 79 77 73 70 67 65 60
27 29 31 35 39 42 57 72 78 80 80 75 64 64 64 64 61 61 69 88 78 84 96 99 90 69 54 50 58 65 68 71 71 71 75 77 76 75 74 75 66 65 62 60 58
23 27 31 34 38 40 47 63 78 85 85 87 73 63 64 64 66 65 65 87 82 96 96 95 90 77 65 53 55 60 61 65 68 71 74 75 75 74 72 66 62 60 56 52 55
27 25 28 31 36 42 43 54 69 81 91 88 83 66 58 62 64 66 72 91 89 97 97 96 86 80 72 62 56 59 62 66 66 66 72 73 73 65 56 58 57 53 46 44 46
26 29 29 30 35 41 47 50 62 73 91 92 87 76 68 55 65 63 75 91 88 96 98 94 90 82 71 63 59 63 58 60 60 67 73 66 71 55 48 52 50 47 46 47 47
24 29 32 33 35 41 48 51 56 73 84 94 86 84 68 62 51 62 81 90 81 93 98 95 84 87 82 67 62 65 64 61 61 61 64 59 64 48 47 45 39 41 45 49 52
23 26 32 36 37 41 47 49 53 60 78 92 87 85 84 64 61 66 88 90 88 95 96 95 89 89 83 74 69 68 67 68 69 68 72 60 61 47 41 38 37 35 38 46 51
24 25 29 35 37 42 45 48 51 61 66 81 89 86 81 89 74 78 84 90 92 98 98 97 94 87 83 82 76 76 76 86 84 82 75 58 59 39 33 33 35 34 34 41 46
22 27 31 34 38 41 46 45 54 60 70 72 80 84 87 83 83 80 83 93 94 91 92 94 91 87 84 78 77 77 74 82 76 78 72 64 56 39 33 36 36 35 34 35 41
21 26 29 35 38 41 45 50 53 61 64 71 68 78 85 82 81 82 83 86 85 80 83 86 88 88 82 79 72 81 86 73 72 69 73 58 43 36 36 36 39 37 35 37 39
22 26 29 35 38 38 39 52 56 56 62 66 67 65 79 86 85 83 81 80 77 79 77 77 87 83 82 80 78 74 78 85 83 81 77 60 57 44 41 42 39 40 37 39 46
24 26 28 34 34 33 44 49 52 51 54 60 64 64 61 77 85 83 80 75 75 77 73 72 71 78 78 84 74 78 79 82 81 74 74 66 53 46 46 44 42 41 40 42 49
21 26 28 32 31 36 40 41 43 49 48 53 59 63 62 61 65 70 71 77 78 86 81 72 74 75 76 78 80 81 77 80 82 78 77 72 57 47 48 47 46 42 46 48 55
21 23 25 27 33 35 34 38 44 48 50 48 52 58 62 65 63 64 66 71 73 83 83 81 89 95 94 88 81 77 74 79 85 84 77 77 60 50 50 51 48 50 48 50 55
21 24 21 26 28 31 35 41 42 45 49 52 51 52 59 65 65 65 66 64 65 72 81 88 88 82 85 78 85 93 89 86 88 88 79 70 60 55 57 58 57 56 54 54 55
18 25 23 25 24 34 37 39 43 45 48 57 60 57 59 68 69 70 69 68 67 65 67 72 76 77 74 73 76 75 79 88 87 83 82 68 70 66 64 64 64 62 59 57 53
20 22 23 23 24 28 32 40 43 44 47 47 60 67 70 65 65 70 75 73 66 67 66 68 70 69 69 64 67 70 70 70 80 83 84 79 70 66 67 65 63 66 66 58 57
21 22 26 24 26 26 30 30 34 41 46 55 59 71 73 77 76 72 72 76 74 68 69 70 73 72 69 64 64 65 52 54 58 59 63 72 58 58 59 60 65 61 55 52 52

GFSSW_prec_cthk_078.txt.gz
RH
29 28 30 33 36 40 45 50 48 47 71 69 75 78 76 86 95 91 95 63 77 73 68 62 43 51 62 63 69 65 64 65 62 62 64 65 63 56 53 45 40 46 43 39 37
28 28 29 36 40 40 43 42 34 50 63 67 70 72 78 88 95 92 97 82 71 81 66 74 50 50 62 66 73 76 67 60 60 61 67 71 68 64 57 50 50 50 51 48 43
29 29 32 36 40 39 37 31 40 50 53 52 54 62 70 85 92 89 96 91 70 77 80 84 55 50 61 65 68 70 67 65 68 65 68 72 75 70 66 57 54 49 51 60 55
27 30 32 36 38 38 35 30 41 43 44 50 56 63 65 75 86 91 95 97 80 70 75 91 62 52 59 64 62 66 68 71 77 68 68 74 76 73 71 63 58 50 50 58 60
27 31 33 36 35 36 35 34 40 42 44 50 60 56 72 74 83 87 92 94 83 71 74 78 75 56 58 58 61 62 62 73 78 77 74 73 80 79 71 66 60 54 54 58 61
29 31 32 33 35 37 41 40 41 42 42 45 55 61 68 80 84 89 87 90 85 76 76 79 72 56 57 61 63 63 62 70 86 83 84 76 81 86 71 68 65 60 57 59 63
30 25 32 32 36 40 46 47 44 45 44 46 57 60 66 78 88 83 84 91 88 78 78 90 77 61 57 65 71 65 67 66 70 76 89 91 90 88 80 77 70 63 61 66 63
27 26 29 31 35 40 47 51 51 47 41 45 47 56 67 81 85 86 83 95 94 81 78 87 76 64 57 59 69 77 69 73 70 77 85 89 91 84 85 84 76 69 64 64 62
26 27 27 31 34 40 48 55 58 53 49 46 49 56 65 75 83 86 83 90 94 84 84 89 76 64 58 64 71 76 74 68 72 73 82 85 84 84 87 89 83 76 73 68 65
23 27 26 30 34 38 47 59 68 69 69 55 52 57 62 68 83 77 78 92 93 91 85 95 84 66 60 65 66 73 72 72 69 69 75 80 77 84 87 88 87 81 77 71 68
26 25 27 28 33 37 43 56 67 73 78 68 61 63 66 68 72 72 80 95 90 83 84 97 86 66 56 61 62 70 72 76 71 72 77 81 82 85 87 89 90 81 76 69 67
25 28 28 28 31 37 43 50 62 74 80 73 59 57 65 64 61 68 85 92 83 83 95 97 85 68 53 56 58 64 70 74 76 77 78 78 80 79 77 74 83 81 75 68 65
24 28 32 32 32 36 44 49 59 68 82 83 75 56 59 63 57 71 91 89 88 89 97 99 85 75 64 56 56 60 63 71 75 76 78 75 74 71 65 70 73 74 68 64 60
24 26 30 33 36 37 46 48 57 63 81 87 79 59 53 61 58 74 94 87 88 98 98 96 91 82 79 69 54 57 57 59 67 77 82 71 75 63 62 65 65 61 61 58 57
26 27 29 33 36 41 48 50 54 63 76 84 84 64 53 59 59 66 86 79 88 97 98 98 90 88 86 74 59 53 53 56 60 69 68 64 71 52 50 51 49 55 56 56 53
23 26 29 34 37 41 45 48 52 59 77 86 81 72 56 61 65 72 81 80 86 93 97 95 94 91 83 75 65 62 56 59 65 67 74 62 69 55 45 40 39 43 49 51 51
21 25 29 34 39 41 43 48 50 62 66 77 87 82 72 60 62 79 81 83 87 91 98 97 94 89 89 76 69 67 66 75 74 75 71 55 62 44 37 35 36 38 38 40 45
22 26 30 35 38 41 42 45 51 59 66 67 80 81 83 72 68 81 85 83 82 87 95 93 94 89 87 80 74 72 71 75 71 73 67 55 60 39 32 33 33 34 34 35 35
23 28 32 33 36 40 40 46 47 54 59 65 67 81 81 81 79 81 81 81 82 81 94 93 93 90 87 84 83 86 87 77 78 70 70 54 43 33 30 32 33 32 32 30 32
24 27 31 34 35 38 38 47 50 50 55 60 60 60 78 84 81 85 76 78 82 78 77 80 92 88 87 86 85 83 79 84 85 85 77 57 50 41 31 35 37 38 36 36 34
26 27 29 32 32 33 40 46 47 47 52 55 59 61 58 79 85 83 80 76 79 83 84 81 79 89 90 88 88 88 84 81 76 77 72 63 45 35 39 40 39 39 36 37 38
24 27 27 28 30 36 41 42 41 43 47 51 55 58 60 57 67 82 79 75 77 82 84 80 81 85 82 84 75 77 78 80 80 75 74 70 46 41 42 47 46 43 42 41 44
24 23 24 26 32 36 35 37 43 44 44 45 47 51 56 60 61 61 64 68 81 85 89 86 82 84 81 76 75 79 79 76 76 74 72 74 54 44 47 50 53 52 50 46 50
23 24 21 24 28 33 38 36 38 37 40 41 45 51 56 59 61 64 65 65 75 81 89 90 89 78 77 74 80 85 80 81 85 81 70 62 59 55 55 56 62 60 57 55 51
23 27 24 26 25 29 35 37 37 43 43 44 45 53 59 67 66 68 72 72 67 68 77 89 93 88 85 81 86 85 85 88 86 78 79 63 63 61 65 65 66 66 63 61 61
23 23 24 24 25 29 31 36 35 40 46 48 52 57 66 77 75 74 80 79 74 71 70 77 88 85 84 76 77 78 78 79 80 79 79 78 66 71 67 69 70 66 68 69 67
24 22 23 24 26 27 29 30 31 36 32 43 49 57 64 81 91 86 75 77 80 79 76 77 79 79 76 68 65 67 54 58 59 62 63 72 58 65 65 64 65 68 68 70 67

GFSSW_prec_cthk_081.txt.gz
RH
26 27 28 30 34 39 36 34 31 35 45 48 60 71 79 73 74 97 90 79 70 91 84 67 58 45 53 68 79 75 91 78 54 51 56 56 53 55 55 48 46 50 47 45 48
25 28 28 32 34 35 35 29 34 40 40 43 48 64 79 84 80 91 97 83 70 91 88 74 57 54 53 62 80 84 82 64 55 62 55 59 58 59 59 55 50 50 48 48 51
26 28 28 33 30 32 32 33 40 38 36 38 43 46 69 83 83 92 93 83 79 86 85 77 69 54 60 61 69 76 75 60 62 66 56 59 64 64 62 60 56 53 50 51 52
28 28 28 32 27 30 33 41 41 41 39 38 44 49 57 72 86 93 97 86 82 90 90 84 75 56 58 67 63 73 72 73 65 54 54 57 65 66 65 65 61 54 51 51 56
29 26 29 29 29 30 37 40 43 44 39 37 43 47 54 69 79 98 96 94 83 90 89 93 80 65 54 62 61 66 73 74 74 57 55 58 65 71 68 68 63 60 54 54 59
28 24 32 30 29 33 39 42 44 47 44 39 44 48 50 63 76 90 94 94 86 85 88 93 86 69 52 61 61 60 68 80 72 68 61 61 63 68 70 66 66 63 60 57 58
27 25 25 31 29 35 40 47 51 51 48 38 41 50 57 64 77 87 90 95 87 83 82 91 94 72 63 67 64 60 67 67 70 70 70 65 64 63 71 71 69 66 65 61 59
24 25 23 27 29 34 41 50 55 55 50 43 41 49 61 71 81 85 86 90 84 76 78 91 89 76 64 71 70 65 66 68 61 63 67 65 56 55 69 74 72 70 71 64 63
24 26 24 25 30 33 42 52 65 68 60 49 49 54 68 79 85 85 81 92 87 78 80 92 84 76 68 74 72 86 74 63 64 59 66 70 64 61 64 74 75 74 73 67 62
23 25 26 26 29 33 40 50 65 72 64 51 53 57 71 83 89 81 78 96 90 88 91 97 90 77 77 76 76 80 75 64 63 65 64 70 67 72 69 72 81 76 73 67 64
23 24 27 28 29 32 39 48 63 69 70 62 57 63 72 81 82 77 80 94 98 88 89 94 90 80 75 67 63 65 64 63 62 62 63 63 64 67 71 71 77 78 74 70 67
23 25 27 29 31 33 39 44 57 71 77 69 53 59 67 66 67 71 91 93 97 89 94 97 89 78 67 66 63 64 66 70 68 66 68 66 65 64 71 70 77 86 78 75 73
21 26 28 30 32 36 40 45 54 65 75 77 56 51 55 60 69 83 95 93 88 87 87 95 92 79 68 72 66 69 67 70 70 68 70 69 68 66 68 69 71 77 79 75 72
20 26 29 32 35 39 44 46 52 62 75 80 61 52 53 57 73 86 85 83 83 87 92 95 91 83 72 68 59 62 61 65 66 69 77 68 73 62 62 65 61 66 78 73 71
19 25 29 34 39 43 46 48 53 60 72 74 59 45 51 56 65 78 79 76 87 84 97 98 91 85 79 67 49 56 58 59 60 65 68 71 76 56 56 57 58 63 72 75 73
20 26 30 36 41 44 46 48 50 57 73 81 74 58 57 59 65 74 75 71 81 93 94 96 94 87 83 81 67 55 57 62 65 61 68 61 64 53 48 47 50 58 63 67 75
23 28 32 36 41 44 46 48 50 61 65 71 77 76 57 54 65 72 74 74 83 94 98 98 93 89 87 86 78 66 60 69 72 72 66 54 60 45 41 41 44 48 53 58 62
26 29 33 35 39 43 44 44 53 59 64 64 73 76 73 57 62 73 72 75 77 80 93 96 95 92 89 81 77 71 65 64 66 66 58 49 53 37 33 37 39 42 44 45 48
27 28 31 35 37 39 41 47 50 54 58 64 65 76 74 71 66 70 73 73 75 73 85 86 90 90 88 89 81 73 76 65 69 66 63 49 48 33 29 30 32 33 33 36 38
28 27 30 34 35 36 38 47 50 50 54 61 61 62 73 76 71 76 79 71 75 75 75 84 92 88 89 88 88 82 74 78 81 82 74 57 52 39 32 33 35 34 33 32 31
29 28 28 30 32 33 40 43 43 45 50 55 58 59 61 76 81 77 76 73 75 81 80 80 82 91 91 91 89 90 88 86 79 78 74 66 48 38 35 34 35 37 37 36 32
27 28 27 28 29 34 37 36 39 41 45 49 50 56 59 62 72 88 82 78 77 79 85 83 85 89 88 87 85 84 83 83 83 77 77 69 52 39 37 38 44 46 44 42 38
27 25 25 26 29 31 30 32 37 41 41 44 45 48 53 60 67 72 74 80 80 83 84 84 93 93 92 89 86 87 86 82 82 79 78 75 56 40 39 45 50 49 50 49 44
27 24 22 25 27 28 31 32 33 36 39 41 43 47 51 55 65 69 73 73 76 82 91 88 89 80 77 67 69 77 76 72 74 78 69 58 54 44 40 45 54 55 58 56 53
25 26 24 27 25 27 29 32 36 37 38 39 42 49 53 60 62 72 75 86 83 82 94 96 99 94 86 76 77 73 74 78 80 73 73 56 52 48 50 52 55 55 60 62 60
26 24 27 28 28 28 28 33 33 34 34 33 39 38 50 65 67 82 90 86 90 88 84 89 95 93 93 86 83 82 83 84 81 78 76 72 60 59 58 58 59 61 62 62 63
27 25 26 32 32 28 27 30 32 30 25 30 34 41 40 50 66 90 97 94 95 92 90 89 91 95 94 88 86 84 73 70 69 69 67 71 55 54 55 58 60 61 60 62 61

GFSSW_prec_cthk_084.txt.gz
RH
23 25 25 29 28 26 28 26 31 36 40 41 42 48 64 74 75 76 99 93 69 76 76 74 59 47 65 81 80 78 80 69 53 52 53 55 47 50 50 52 47 42 41 43 54
26 24 26 28 27 24 28 34 39 37 37 36 39 43 64 79 85 77 92 95 75 86 88 83 67 52 59 69 94 79 83 64 58 52 57 58 53 51 49 53 55 45 42 43 47
27 26 27 28 24 25 28 38 40 41 39 39 39 46 54 84 87 93 82 91 81 85 91 86 78 59 53 64 77 82 69 73 68 53 55 60 60 55 50 52 57 55 46 48 50
28 27 30 27 25 26 29 36 43 46 42 40 41 48 54 72 86 95 98 90 85 87 89 86 79 66 57 58 74 75 80 87 71 66 60 60 61 57 56 53 55 59 54 51 54
28 29 29 30 25 28 32 37 45 50 48 38 40 44 53 67 76 97 93 97 88 86 90 88 82 70 57 66 70 69 77 85 79 77 63 58 59 60 55 54 55 57 59 56 56
29 29 27 33 30 30 34 41 48 53 51 37 38 46 52 59 73 89 95 95 85 87 87 95 82 72 65 74 64 54 73 79 82 81 64 62 60 62 56 54 55 58 59 61 59
27 30 30 28 31 31 35 43 51 54 49 37 38 50 63 66 72 83 88 93 82 90 83 95 86 73 62 73 65 56 68 74 79 73 71 61 57 51 57 58 58 63 63 62 62
26 29 31 28 30 32 37 45 57 60 46 37 45 54 67 66 76 81 85 91 80 91 93 97 90 79 66 68 67 59 59 69 76 75 72 60 45 53 52 58 57 60 67 65 66
24 27 30 29 31 32 38 46 58 64 47 40 48 57 71 73 74 82 87 88 85 88 90 97 90 82 67 64 70 70 57 60 74 76 73 60 52 51 49 51 52 57 64 66 70
18 26 29 31 31 33 38 45 57 62 43 39 51 63 80 79 76 82 87 90 84 82 89 95 94 81 75 72 68 77 63 59 57 59 57 59 55 51 51 51 51 56 64 65 69
17 25 29 32 32 34 39 43 57 64 50 44 56 67 72 72 71 77 86 81 88 89 91 97 91 78 71 74 72 74 76 63 56 53 56 51 50 48 50 49 49 56 59 63 68
17 25 29 32 33 35 40 42 51 61 59 46 48 58 63 66 70 75 78 82 84 85 92 97 88 81 74 69 71 71 66 65 58 51 57 52 48 47 48 48 45 51 58 62 68
18 24 28 33 34 38 42 43 48 60 57 52 48 52 61 68 72 68 74 83 80 84 91 98 93 78 75 66 64 65 59 58 52 58 61 54 44 43 43 44 47 53 58 66 73
18 24 29 34 37 40 43 43 47 56 68 50 50 48 58 62 74 74 76 77 78 78 86 89 86 80 75 66 63 63 56 57 60 60 62 57 50 43 41 44 50 56 61 65 75
19 25 29 35 39 41 42 43 49 54 67 62 51 53 55 62 66 74 74 75 71 74 80 85 83 78 73 71 63 60 59 59 62 64 62 59 62 41 44 45 49 53 61 66 76
21 25 31 36 38 40 40 42 46 57 65 72 60 53 55 58 64 70 75 75 74 76 77 88 87 82 71 72 63 59 60 58 58 60 62 51 56 43 42 42 45 52 57 61 74
24 27 31 33 37 38 40 44 52 56 57 63 67 62 52 59 66 66 72 76 77 84 90 93 89 84 81 76 70 66 63 67 70 71 54 50 50 36 36 38 39 46 54 60 76
25 27 32 31 34 37 39 41 53 51 56 55 62 66 66 55 65 69 70 74 80 81 94 96 93 88 79 82 84 72 59 55 56 52 45 48 43 28 24 32 36 39 46 50 57
26 28 30 30 33 35 37 47 46 52 52 54 57 63 67 69 64 71 67 68 76 79 87 90 92 89 87 84 83 85 82 62 61 55 52 40 39 26 22 28 35 38 40 44 46
29 28 28 29 31 32 35 43 44 45 48 51 50 52 55 67 71 70 70 68 72 74 78 83 94 93 94 90 88 80 71 77 76 71 60 46 43 32 27 27 29 31 33 33 37
32 30 26 28 29 30 40 38 40 42 44 45 45 47 48 58 68 76 71 71 72 78 78 83 85 96 97 91 94 90 80 71 65 65 63 51 42 35 35 33 33 34 33 34 35
34 30 27 26 27 29 34 31 37 38 41 42 41 43 45 49 60 69 78 72 79 80 82 82 85 91 89 88 88 85 78 76 77 75 69 67 54 46 42 41 39 39 40 42 38
31 30 27 27 30 29 27 30 34 37 36 37 36 38 40 45 54 56 66 80 84 86 87 86 94 95 94 90 89 87 79 76 73 75 79 67 55 45 43 42 40 41 43 44 45
30 31 28 27 29 27 27 30 32 33 34 34 33 38 43 42 48 57 63 74 85 92 90 90 92 81 76 75 74 83 78 78 84 85 72 64 57 49 47 45 44 40 42 44 45
28 30 28 29 29 29 28 30 32 32 36 34 35 37 45 42 43 51 60 69 87 93 93 95 98 91 85 79 81 81 74 71 77 75 73 56 53 49 48 44 40 41 42 45 47
29 30 31 31 32 31 30 31 34 34 32 29 35 36 35 47 54 70 81 80 82 92 94 92 99 96 98 94 86 87 80 73 68 64 63 66 56 65 54 50 48 46 47 47 49
30 28 29 35 35 32 30 32 31 30 23 27 33 38 37 39 46 53 61 83 99 92 98 93 92 93 93 94 97 92 76 73 69 66 69 68 59 58 52 49 47 46 46 50 52

GFSSW_prec_cthk_087.txt.gz
RH
25 26 26 27 29 23 25 34 38 41 41 40 35 38 46 62 79 79 79 90 77 84 96 96 65 58 83 83 81 76 78 57 54 64 63 58 57 53 48 47 45 39 47 54 60
26 26 26 28 28 23 27 37 38 44 44 38 37 40 45 69 88 89 83 97 84 79 95 95 74 58 73 94 87 81 77 63 47 63 67 60 59 55 53 51 49 43 40 44 57
27 27 27 29 29 25 27 34 43 48 46 34 38 43 47 66 91 93 85 94 88 83 87 91 78 59 67 78 94 84 73 68 73 65 77 72 64 59 55 58 54 54 44 44 49
29 28 25 30 30 27 29 35 44 47 44 34 35 42 46 66 98 88 95 97 97 81 79 84 80 62 62 72 90 86 75 82 76 86 59 71 63 63 58 59 53 52 55 50 51
29 29 27 27 33 30 32 38 45 47 39 34 35 42 50 70 79 90 89 96 92 85 80 79 77 66 54 62 80 89 71 80 76 75 78 58 59 66 63 54 51 52 54 59 55
29 29 29 25 31 31 33 40 46 44 33 34 37 46 61 69 74 85 93 93 84 89 84 83 88 76 60 55 67 80 92 82 73 78 72 62 60 62 60 55 52 49 55 57 59
26 29 30 27 27 29 34 41 49 40 31 33 40 47 67 63 71 84 90 90 77 86 87 83 86 79 69 63 64 72 82 85 69 88 81 65 59 53 61 58 53 50 52 54 57
23 27 30 29 27 29 35 42 49 36 32 38 44 57 63 61 75 89 91 89 84 81 86 80 91 85 79 68 57 58 67 76 87 84 79 67 51 48 54 56 52 51 50 52 54
19 22 28 29 28 29 35 42 47 32 29 41 54 66 71 65 69 78 84 85 90 82 87 92 94 84 81 67 75 67 69 76 80 74 77 70 60 52 57 52 56 50 52 51 53
18 22 28 29 28 29 35 42 48 33 34 41 54 70 71 66 71 81 77 77 85 90 92 97 92 86 78 67 75 73 61 61 69 76 68 74 63 60 58 54 51 50 48 50 52
19 22 27 30 29 31 36 42 49 43 36 44 53 56 62 70 76 75 71 70 76 95 93 97 93 78 71 66 68 66 64 56 57 71 71 68 67 61 56 49 47 43 44 45 48
21 23 28 30 30 33 36 44 45 41 42 44 50 54 58 69 75 73 69 70 66 80 89 95 89 82 73 69 69 71 65 63 60 62 60 59 57 51 49 45 42 41 42 42 49
21 24 29 31 32 35 39 43 46 48 45 44 45 56 56 61 62 67 66 70 70 74 82 92 78 77 75 72 66 68 68 75 67 59 55 53 51 46 41 40 39 39 39 40 43
20 25 30 32 34 36 40 42 43 50 58 46 48 44 49 53 58 63 70 71 73 76 82 82 75 74 70 70 67 68 66 68 66 62 59 54 40 33 33 35 38 38 39 40 41
20 25 31 32 35 38 40 42 44 52 66 49 49 46 49 52 49 55 66 73 70 75 82 83 81 72 71 66 60 70 68 66 65 62 64 60 60 39 41 37 34 36 40 41 43
22 27 31 31 35 36 38 42 44 60 59 60 48 47 51 51 55 58 68 72 75 75 77 85 81 75 74 71 68 74 65 62 60 64 83 54 56 43 39 38 36 36 36 39 41
26 28 30 32 35 34 37 43 55 58 51 55 56 56 42 51 56 59 62 67 74 83 84 86 85 79 84 82 73 70 63 73 76 77 59 47 44 41 37 37 35 34 33 38 45
28 28 29 30 32 33 39 44 56 45 53 51 54 54 62 48 49 57 62 66 66 73 90 88 92 82 78 76 71 62 64 66 66 58 50 52 43 35 28 28 33 34 34 35 43
30 29 29 29 31 33 39 50 44 47 48 49 52 57 53 55 59 57 61 62 63 69 82 90 92 85 85 82 81 73 74 65 71 62 61 49 38 28 21 25 28 30 32 37 40
32 33 30 28 30 32 38 40 40 39 42 45 46 43 45 53 57 65 60 56 63 71 81 92 98 91 90 87 88 93 82 84 76 70 59 39 41 33 27 25 29 28 30 33 35
35 37 28 28 29 33 40 35 34 34 38 41 38 37 38 44 50 58 59 62 65 76 78 77 84 93 96 91 79 88 87 83 80 62 62 54 50 36 33 32 28 27 30 31 34
38 39 31 30 35 32 31 29 32 32 36 38 35 35 37 42 44 55 51 74 75 75 81 79 86 98 91 89 87 84 81 80 81 76 67 64 60 45 40 37 35 36 36 33 36
37 37 33 31 38 33 28 27 31 33 36 36 34 35 36 37 45 45 54 58 80 90 82 79 91 93 97 95 91 91 87 86 80 76 93 75 59 52 49 47 44 43 40 38 38
36 38 34 34 30 30 29 29 29 32 31 35 33 35 40 44 44 48 54 70 68 86 95 91 85 80 82 84 75 82 79 82 86 95 79 70 62 58 54 52 49 46 45 41 42
36 33 32 37 33 34 33 30 27 32 33 33 31 40 44 44 45 40 49 54 76 78 95 98 98 92 84 82 81 78 77 77 81 80 83 72 66 60 52 47 49 50 45 44 40
40 33 31 30 31 36 35 33 30 32 31 24 35 32 37 36 36 41 49 66 92 91 87 98 99 95 96 97 85 83 77 78 75 75 72 70 58 62 54 52 47 48 49 46 40
37 40 32 33 34 35 35 34 31 32 26 25 30 32 31 35 41 43 45 48 66 88 91 98 98 92 95 96 98 96 74 71 70 71 68 64 58 59 55 51 47 43 42 42 40

GFSSW_prec_cthk_090.txt.gz
RH
29 30 29 27 27 23 23 31 37 42 36 31 32 36 38 45 58 72 85 74 84 90 89 91 73 51 76 85 84 80 84 72 63 66 62 63 55 51 49 51 46 48 55 67 70
30 31 30 28 28 26 25 28 43 44 31 29 30 40 41 52 77 87 91 78 81 92 98 97 81 58 72 86 92 89 81 63 55 69 68 64 59 55 52 51 50 46 50 57 67
31 31 30 29 30 26 27 31 40 39 31 31 29 36 42 56 87 97 92 85 80 86 94 96 90 73 64 83 97 93 70 60 64 72 75 71 64 57 56 57 53 49 45 47 58
30 31 30 29 31 30 28 33 40 29 32 32 31 35 47 68 88 84 87 88 84 84 93 97 90 78 58 73 90 95 80 68 85 71 77 73 69 58 59 58 54 51 51 50 49
24 30 31 31 26 31 30 36 37 28 30 31 33 40 53 70 74 85 77 84 85 90 89 91 92 84 62 65 77 88 86 86 82 79 82 83 78 65 64 56 56 54 51 56 55
19 25 30 31 25 26 31 37 34 29 29 31 38 48 72 60 73 80 80 90 95 95 93 86 92 81 63 71 88 80 86 82 87 79 76 83 83 72 58 56 57 54 57 54 63
21 19 26 30 25 26 31 39 32 29 29 37 40 54 57 56 74 85 86 92 87 92 90 88 89 78 63 66 77 81 90 93 92 89 83 73 79 68 64 58 58 56 54 55 58
24 17 25 28 26 26 31 40 29 27 31 36 49 58 52 66 75 77 80 82 86 90 82 78 80 73 65 61 67 73 93 93 86 81 80 83 72 65 60 63 58 57 53 53 53
22 17 25 27 26 26 31 39 29 31 29 39 51 55 60 65 71 70 74 81 74 80 75 69 74 75 65 61 65 75 82 91 91 93 81 82 75 68 60 52 54 55 52 51 50
21 18 25 27 27 27 31 37 32 29 38 41 51 51 56 65 68 69 71 72 75 73 70 67 69 72 73 73 71 62 65 75 78 85 83 88 76 66 66 54 48 51 51 49 47
21 19 25 28 27 28 31 37 39 34 36 40 45 50 52 57 60 63 71 81 70 72 79 76 85 74 68 71 68 61 57 59 61 73 83 77 73 69 66 60 50 45 45 46 46
22 19 26 29 29 29 32 38 36 36 43 43 48 48 54 55 57 56 62 86 77 83 84 85 84 76 69 69 69 66 63 57 77 78 82 74 68 63 64 57 50 41 38 41 44
24 20 27 29 30 31 36 37 39 43 46 43 42 43 47 50 52 54 54 66 79 79 85 84 84 75 72 68 68 64 68 70 73 78 67 65 64 57 54 53 50 43 39 38 41
26 22 29 30 33 33 37 36 38 48 52 45 41 41 45 46 51 52 58 60 69 74 83 81 82 78 75 72 69 71 72 75 75 69 68 64 63 49 44 44 44 40 37 36 37
27 26 30 31 33 37 37 37 38 49 63 44 45 37 44 47 44 50 50 56 62 71 76 83 78 76 75 70 67 69 68 72 75 75 71 70 70 40 43 41 40 37 35 34 35
27 28 31 32 34 34 35 37 40 58 53 54 43 45 48 44 50 48 52 61 59 67 72 79 76 75 72 73 69 73 76 70 75 74 84 59 65 47 40 38 39 41 36 33 33
30 30 32 34 36 34 34 40 54 56 46 48 51 52 41 46 49 55 58 60 67 78 79 74 76 72 71 78 77 75 81 90 91 89 78 53 62 46 37 40 40 39 36 36 35
34 32 32 35 31 34 38 45 53 41 49 44 47 50 50 49 49 48 54 62 60 67 75 78 82 76 71 76 79 73 75 80 81 77 60 45 54 43 34 37 37 35 33 31 34
36 33 32 33 31 36 42 50 44 46 42 41 44 49 52 50 48 53 56 56 62 64 74 80 74 74 74 75 77 76 74 70 94 74 71 63 50 39 32 30 25 29 33 32 31
38 39 35 32 32 39 42 40 37 34 36 37 42 42 45 49 53 58 51 52 59 68 74 87 89 79 79 81 80 82 74 80 88 90 69 51 47 46 36 28 27 28 29 33 33
40 44 36 32 35 39 40 38 32 32 32 37 35 36 34 40 49 53 55 49 59 67 78 88 97 93 94 86 86 90 91 90 79 71 74 63 57 49 38 32 32 31 30 30 32
43 48 37 34 43 39 40 31 29 31 32 34 33 34 34 35 33 42 54 49 60 84 80 82 98 94 90 90 86 86 88 94 96 83 76 78 68 56 49 38 35 38 34 33 34
46 46 39 38 49 45 34 29 30 33 35 37 35 33 35 36 43 35 49 58 71 73 94 85 97 98 98 97 93 92 86 84 88 89 86 85 63 55 52 48 46 44 41 39 38
46 44 39 38 37 37 36 32 34 34 32 35 33 34 35 40 40 44 51 58 64 63 81 95 93 80 78 82 83 92 86 84 90 95 80 76 66 63 61 57 53 52 47 44 42
49 42 34 43 36 35 33 34 33 36 37 35 33 38 38 43 36 34 38 39 48 62 83 98 98 93 78 79 86 91 88 87 92 91 87 72 71 65 64 60 57 53 52 52 46
51 47 34 35 33 35 37 38 38 40 39 29 29 27 29 32 33 35 36 40 45 51 88 98 97 97 94 92 92 90 87 83 78 81 81 76 66 64 61 59 56 49 46 49 51
48 56 36 37 37 36 34 36 42 42 35 29 27 26 28 31 33 36 37 41 50 54 76 94 95 98 98 97 99 98 87 77 75 76 76 77 65 64 57 55 51 49 48 43 42

GFSSW_prec_cthk_093.txt.gz
RH
30 29 28 28 29 29 27 27 30 32 26 30 34 31 38 45 55 68 78 84 83 96 96 86 83 53 83 96 87 88 91 82 70 69 66 57 54 54 52 50 45 51 59 73 79
23 29 28 28 29 28 26 30 32 27 27 29 29 31 38 48 79 90 86 83 82 93 94 93 86 60 75 91 88 96 89 79 69 73 69 63 55 54 53 53 57 53 60 66 74
21 23 27 30 26 29 30 33 31 24 27 31 31 32 44 57 79 86 84 81 77 93 95 92 87 65 63 90 90 95 88 79 79 80 73 67 64 62 59 52 53 54 51 56 69
24 20 25 30 26 25 32 33 34 25 28 30 30 40 49 60 72 77 77 68 73 86 95 98 84 73 62 81 97 90 91 88 87 84 73 74 71 65 60 55 49 52 54 49 54
27 20 22 29 27 23 27 31 28 25 26 30 32 45 52 55 67 73 78 67 72 80 88 95 93 78 67 70 87 89 88 92 94 88 83 79 77 69 60 58 53 52 57 55 49
27 22 20 26 25 23 26 31 25 24 25 31 33 45 44 54 74 76 79 80 77 81 91 93 95 88 70 64 83 86 90 93 94 87 87 82 80 77 64 59 57 56 56 60 58
27 24 19 26 25 24 26 30 22 22 26 32 40 43 51 66 72 73 76 81 81 87 94 98 93 85 65 65 74 89 95 92 85 93 87 85 85 79 70 63 56 57 57 58 61
27 23 20 26 25 25 27 30 24 22 27 36 42 50 56 64 64 69 70 72 76 83 88 90 88 88 73 65 69 78 86 92 88 87 93 84 85 89 80 70 58 55 56 57 57
28 23 20 27 26 26 27 31 24 28 30 37 42 50 54 55 58 65 63 68 74 80 79 80 79 80 77 67 77 70 83 83 86 86 93 90 91 81 80 74 63 57 53 54 57
29 24 21 27 27 26 28 28 26 27 29 35 42 49 48 52 56 61 61 58 61 62 64 65 71 71 74 67 71 71 80 92 88 89 87 86 80 79 75 67 60 56 55 54 54
32 26 22 28 28 27 29 29 34 29 31 37 41 43 45 50 53 55 59 56 53 53 58 61 69 72 66 59 51 56 68 78 77 84 83 88 89 74 68 64 60 55 53 53 50
34 27 24 29 29 29 31 29 33 30 35 35 40 42 43 47 49 53 61 56 51 61 59 58 61 64 67 67 65 64 63 64 76 77 86 82 80 74 67 64 65 62 54 51 51
35 29 27 30 30 31 32 33 35 37 38 39 39 38 41 44 45 48 64 58 59 62 64 66 66 67 63 65 65 64 69 69 74 76 85 83 83 72 68 62 61 59 50 41 42
35 30 30 30 33 34 35 32 36 41 41 39 40 37 38 46 44 44 52 64 60 67 68 68 71 72 72 67 63 72 71 74 75 75 88 74 77 59 57 53 55 55 52 46 37
33 33 34 32 34 36 36 35 33 42 48 40 41 37 41 42 44 45 46 55 62 72 69 68 73 73 71 70 74 73 68 71 81 78 75 69 71 57 53 51 44 44 44 45 42
33 37 38 34 35 36 36 35 37 50 43 46 43 42 44 45 45 47 46 51 56 62 69 75 73 74 73 71 73 74 80 77 80 84 92 73 71 56 47 41 45 43 40 37 38
34 41 40 35 38 35 36 40 47 42 42 42 44 46 41 43 44 48 55 59 64 63 68 74 72 75 72 72 74 74 82 95 95 96 83 65 71 48 42 43 41 41 39 38 38
37 43 41 37 38 36 40 46 39 39 44 38 40 39 43 42 45 50 51 63 64 70 78 82 74 75 74 73 80 80 84 90 85 87 71 63 64 46 41 43 41 40 37 37 36
44 45 41 40 38 36 43 47 36 42 38 40 41 43 44 42 43 49 48 49 56 69 81 88 81 76 76 77 76 79 83 79 84 83 82 69 53 45 38 38 43 39 39 39 36
48 46 40 42 38 42 44 41 35 34 34 36 40 40 41 43 48 54 48 45 51 62 75 80 86 78 79 82 82 80 80 84 91 91 81 62 59 51 41 38 39 38 36 32 37
55 51 45 44 43 44 42 44 35 31 32 36 38 37 35 34 45 48 49 46 49 57 72 84 94 90 90 84 81 90 91 85 80 80 80 66 56 44 41 41 37 37 29 27 29
59 58 49 47 46 45 42 34 31 33 33 35 35 35 36 33 33 36 44 47 54 57 84 93 97 96 96 90 87 84 89 87 90 81 74 71 58 46 46 47 44 39 36 32 30
65 66 53 48 52 44 38 32 33 36 37 38 38 36 35 38 43 36 38 53 59 61 88 92 97 96 99 97 97 98 90 89 89 88 82 77 62 56 57 55 51 47 42 38 35
63 57 54 50 51 43 41 37 39 37 38 41 39 36 35 37 38 44 42 45 45 54 69 87 98 98 93 96 91 98 90 90 95 98 83 77 66 61 61 60 56 52 49 42 41
64 49 41 48 44 38 36 36 39 44 43 40 37 37 37 40 39 36 34 34 44 50 57 78 96 96 96 92 96 97 92 95 97 89 87 71 73 66 65 67 64 62 57 53 47
56 49 45 41 37 37 37 35 38 39 41 38 38 31 28 31 31 34 36 37 39 46 52 70 86 98 90 88 92 87 86 92 92 93 89 80 71 68 67 65 66 66 64 60 54
52 48 47 38 37 39 38 36 37 34 37 38 29 26 25 29 31 34 37 42 48 51 54 59 85 91 87 92 98 93 81 85 79 81 81 80 66 73 64 64 61 61 60 56 52

GFSSW_prec_cthk_096.txt.gz
RH
24 31 34 32 29 31 25 23 26 22 21 29 25 24 29 36 46 64 76 89 92 96 97 81 88 76 90 95 93 92 93 82 70 64 59 50 55 55 57 57 58 65 64 69 69
28 31 33 32 31 28 29 28 29 21 22 25 24 25 37 45 60 68 73 92 88 95 97 81 88 77 88 94 99 93 91 75 78 68 60 56 54 56 55 57 59 64 68 68 67
27 31 32 31 33 27 26 29 26 23 23 24 23 31 39 49 63 63 69 82 89 90 88 88 91 81 78 95 98 93 93 83 84 78 66 64 59 60 58 54 54 55 62 71 70
26 31 27 29 33 26 25 26 23 23 20 22 24 35 42 49 63 65 70 72 77 84 92 88 84 75 76 89 97 97 96 87 89 82 74 74 63 60 58 58 57 60 61 62 70
25 29 27 25 31 26 25 25 21 21 21 22 29 34 39 59 69 72 68 70 73 83 93 86 81 79 74 82 94 94 98 90 92 81 77 76 67 58 56 55 58 61 61 63 64
24 28 26 26 29 26 26 21 20 21 21 23 32 41 54 61 69 75 69 66 77 81 83 82 74 78 70 70 89 97 98 93 90 88 87 81 72 63 61 59 57 60 60 61 64
24 28 28 27 29 26 27 20 21 21 23 29 35 45 51 61 68 71 69 68 74 80 83 82 73 73 68 66 79 94 96 95 91 95 93 81 75 74 69 65 62 57 59 61 60
27 29 29 27 29 27 29 22 24 23 26 29 34 41 46 55 63 69 67 70 76 81 81 86 81 73 69 65 70 83 92 97 96 93 93 92 83 76 72 68 63 60 57 60 62
27 31 31 28 29 27 28 25 25 25 27 29 32 36 44 50 58 59 67 69 74 75 75 80 82 76 67 70 73 80 93 96 92 92 95 90 94 81 78 72 66 61 56 55 56
30 32 33 29 29 28 28 27 28 27 26 27 29 32 40 49 53 55 58 63 67 66 70 70 73 79 75 65 68 71 85 88 88 92 95 96 93 86 79 74 69 69 62 57 52
31 33 36 31 29 30 29 30 31 28 28 30 31 32 39 42 50 53 51 55 56 56 64 67 66 72 73 67 61 63 72 76 78 85 89 88 91 91 86 82 74 70 64 57 55
33 34 38 32 30 32 30 31 32 30 32 31 29 32 37 42 46 49 51 50 51 59 59 61 62 67 63 60 59 59 57 65 70 74 76 79 78 79 88 75 71 68 63 58 53
33 33 40 34 32 34 33 32 36 35 35 35 33 31 35 37 43 47 52 50 55 63 58 58 62 61 62 62 61 54 53 54 60 72 79 79 83 84 77 74 69 67 62 55 51
32 36 42 36 34 37 36 35 37 43 38 35 35 31 32 37 37 42 53 54 56 60 62 62 58 61 61 66 66 69 64 57 63 75 87 81 84 68 71 70 67 61 60 58 55
36 33 40 38 37 40 41 35 38 42 37 37 37 35 36 35 38 38 44 51 53 57 60 63 67 70 67 67 66 64 66 67 67 76 74 78 76 63 59 58 57 58 55 53 50
37 32 41 45 38 42 44 38 39 48 32 42 42 40 39 38 37 39 41 41 49 53 63 69 69 72 74 74 71 69 71 73 88 86 91 69 72 63 52 47 49 50 45 43 46
37 32 42 46 40 43 42 40 50 40 39 38 41 41 40 38 41 43 42 47 52 58 62 70 71 73 79 78 78 78 92 95 95 97 90 73 82 55 44 41 39 42 38 37 37
40 34 45 47 42 49 42 49 35 36 43 36 39 38 42 40 40 42 41 47 50 59 72 76 72 74 75 75 76 80 87 94 85 87 81 78 77 50 42 37 37 38 38 37 36
44 40 50 50 41 52 45 53 30 38 37 40 43 44 44 42 38 45 47 46 45 55 71 79 71 66 74 76 77 80 85 80 89 84 82 66 54 46 43 42 38 39 38 38 37
49 42 48 54 45 56 48 41 35 35 34 36 40 41 41 42 40 47 49 42 48 50 57 70 84 77 79 83 83 80 80 94 97 97 87 66 61 50 43 45 42 42 42 40 38
44 48 53 56 49 59 50 40 37 33 33 35 39 41 40 39 41 47 50 46 54 56 60 66 85 86 92 89 85 89 90 86 82 84 86 69 59 49 51 46 45 43 41 43 39
53 58 60 62 55 61 46 40 33 35 35 37 37 39 38 34 36 44 46 48 52 58 65 74 90 93 86 87 89 86 87 85 89 82 80 78 63 55 52 49 49 49 40 39 38
55 60 67 65 59 56 43 34 36 39 39 39 39 39 37 36 36 37 37 45 50 59 69 80 97 97 93 96 95 94 87 84 85 86 82 80 63 59 55 56 54 50 46 39 38
52 60 71 67 57 54 42 39 41 40 42 43 44 41 38 36 38 40 38 42 45 48 51 66 87 94 97 97 97 97 97 90 92 95 81 76 64 58 61 62 62 59 51 46 42
52 49 67 61 54 52 42 40 42 46 44 45 45 35 31 33 34 36 35 38 40 41 45 62 75 87 86 89 98 98 96 96 98 92 88 73 72 67 65 66 65 64 59 53 48
46 55 54 56 39 52 41 38 36 39 40 45 41 31 29 30 29 30 32 36 43 53 52 58 62 68 71 81 89 87 89 94 98 96 86 87 79 73 75 72 68 66 67 63 57
48 53 49 49 47 43 39 37 37 34 34 40 34 28 25 25 28 29 33 37 50 59 52 55 66 68 69 80 89 82 78 84 86 87 87 89 68 80 81 74 74 71 66 62 62

GFSSW_prec_cthk_099.txt.gz
RH
27 24 25 32 36 33 34 35 32 26 20 21 21 20 28 38 44 52 59 74 93 96 97 92 86 80 76 66 81 98 98 86 68 59 53 54 55 64 64 64 68 68 70 69 82
29 24 24 25 36 36 31 34 29 25 23 18 19 25 31 40 44 54 64 82 87 90 95 96 86 85 73 64 93 99 97 83 79 63 58 54 54 52 62 66 75 73 70 71 72
28 25 23 22 33 36 30 29 25 21 19 17 20 27 31 36 44 59 64 73 87 89 95 93 98 84 68 72 95 96 93 91 84 73 63 56 56 56 62 66 69 72 75 74 67
32 29 23 22 30 32 30 27 21 19 19 19 26 27 32 45 53 60 64 68 78 88 83 88 92 83 62 67 97 98 97 94 88 79 66 65 55 59 60 63 65 69 74 78 72
37 33 26 22 30 30 30 24 21 20 19 22 28 32 41 49 56 57 60 67 79 87 96 89 90 73 69 86 97 98 97 97 89 79 72 67 62 58 59 61 67 68 69 70 74
47 34 28 25 31 30 31 23 20 20 22 27 30 34 44 50 57 57 57 65 74 82 89 73 80 77 78 92 95 96 95 95 95 83 79 76 70 61 61 62 65 70 67 68 69
59 35 30 29 34 31 32 24 21 22 24 27 30 33 42 47 56 61 58 64 68 85 86 72 76 73 86 87 89 93 97 92 91 86 81 79 73 71 64 64 65 66 69 74 77
76 41 32 29 38 33 32 25 23 24 27 28 29 32 38 47 51 57 64 68 73 78 76 71 71 73 78 84 87 88 96 99 96 91 84 79 82 76 68 63 63 64 66 68 75
84 51 32 31 40 36 32 26 26 26 28 28 28 30 35 44 52 58 61 63 62 63 68 72 69 69 68 79 81 81 97 97 96 96 89 90 88 78 73 65 59 57 64 70 71
88 68 35 31 42 37 32 28 30 27 27 27 27 28 34 39 44 51 56 58 55 55 59 70 69 66 68 66 70 76 81 88 93 96 96 90 86 86 79 72 64 58 57 61 68
92 78 47 32 47 37 32 31 31 29 29 29 29 30 34 38 44 48 49 51 50 52 56 54 69 73 68 58 60 66 65 74 84 86 90 95 93 93 85 77 67 61 56 55 57
98 85 47 33 49 37 33 34 34 31 33 30 29 31 33 35 40 43 46 49 49 49 54 52 55 66 65 58 54 54 61 66 74 79 86 83 88 92 91 79 73 66 58 53 54
99 82 53 33 53 40 34 34 37 36 37 34 30 30 32 33 36 41 45 46 50 52 51 51 54 54 57 62 58 54 52 58 65 76 82 79 80 77 79 82 77 68 61 54 51
98 86 56 37 52 44 35 36 40 45 41 32 35 29 29 34 33 38 45 46 48 54 55 53 50 54 58 60 58 59 54 50 62 69 76 73 77 67 69 69 73 64 62 56 54
97 91 60 39 51 48 37 42 41 44 44 34 37 33 34 34 34 36 40 45 48 56 55 53 57 54 58 59 65 63 60 60 65 65 68 77 74 62 61 65 60 60 60 57 56
98 92 56 42 47 61 41 44 42 53 35 41 41 40 38 36 35 36 39 42 46 49 56 60 61 61 61 60 63 66 73 74 78 77 84 67 73 64 62 55 53 52 56 56 54
97 93 51 44 50 63 44 47 53 56 39 41 43 42 41 36 37 38 38 41 45 54 56 57 61 64 69 69 66 71 77 88 89 94 83 67 76 56 54 53 46 44 45 48 50
99 93 54 45 52 62 46 58 58 33 43 38 40 40 42 40 39 39 38 43 42 48 60 65 57 69 70 72 78 83 86 88 86 86 92 78 79 55 46 47 45 43 40 42 44
98 91 63 51 56 63 54 67 40 36 37 40 44 46 44 42 40 43 45 43 42 48 57 69 64 60 70 79 82 87 91 85 98 86 81 76 63 49 48 45 43 43 41 39 43
98 97 64 56 62 66 59 64 35 36 37 38 38 43 45 44 41 44 42 39 43 45 50 57 70 68 74 82 88 87 86 94 94 97 94 71 64 55 44 44 44 42 39 38 37
99 98 73 59 70 69 66 58 34 35 36 39 40 44 43 41 43 44 44 42 50 54 57 60 71 71 89 87 85 92 90 84 87 91 86 70 55 47 46 44 44 44 42 41 39
98 97 71 60 72 67 66 52 33 34 37 39 39 40 41 38 36 45 47 49 53 53 56 59 75 82 79 88 91 91 89 88 92 90 83 78 62 50 52 51 48 49 49 45 44
98 91 72 67 72 72 60 46 33 37 41 41 40 39 40 37 34 37 40 38 40 49 59 65 84 87 90 89 93 98 93 90 92 89 84 83 61 52 59 61 58 54 52 50 47
98 86 76 77 70 71 60 36 34 42 45 45 47 47 40 37 33 35 37 39 42 48 50 52 65 80 88 93 97 98 98 92 94 98 77 67 59 59 61 64 62 59 57 56 51
97 80 63 76 69 74 49 44 42 49 48 48 51 46 37 35 33 36 36 38 38 39 45 50 55 61 75 85 90 91 95 95 97 87 85 65 68 69 66 68 66 65 62 59 56
94 72 57 71 59 67 51 41 45 45 42 42 46 36 32 31 29 31 31 31 34 46 52 57 57 64 59 68 81 88 88 91 96 97 93 88 80 75 74 69 65 67 65 63 60
92 57 56 66 68 59 52 38 42 40 39 37 43 33 28 24 26 28 29 32 40 50 52 52 58 66 65 68 85 84 81 82 80 89 93 98 77 83 82 74 70 68 70 67 62

GFSSW_prec_cthk_102.txt.gz
RH
47 31 34 38 36 34 34 33 36 31 29 26 17 17 24 31 32 43 51 71 90 90 92 91 77 75 84 68 66 77 97 86 90 87 69 62 61 57 55 68 68 76 81 88 91
56 40 31 36 36 37 34 33 29 28 28 21 17 23 27 29 33 45 54 71 83 83 89 96 78 84 82 67 63 79 97 92 75 86 74 67 54 54 62 68 73 80 83 84 95
67 55 33 36 34 33 36 36 27 22 27 19 22 27 30 35 38 49 53 65 69 76 91 94 81 90 76 69 63 70 87 87 87 86 83 66 61 58 64 69 65 74 87 86 83
75 70 44 32 31 33 38 38 26 21 20 21 26 33 36 39 44 46 50 63 67 77 90 94 84 85 74 62 62 75 81 92 93 90 82 70 62 58 58 63 69 73 78 85 79
78 80 62 35 28 33 38 41 25 21 20 24 28 32 37 40 45 51 53 63 77 77 82 90 87 83 75 59 63 87 95 97 98 91 78 73 66 59 59 65 74 71 74 82 88
77 83 74 44 33 35 37 43 25 21 23 27 28 30 36 42 48 54 58 66 76 82 79 93 94 85 76 62 65 94 97 90 98 98 83 77 70 62 64 70 70 72 67 70 82
73 88 79 57 37 36 43 43 27 22 23 27 28 30 34 40 48 58 65 75 76 82 79 76 84 87 75 57 63 95 96 95 97 95 86 81 73 74 67 67 66 71 72 76 74
78 83 87 70 38 35 49 41 29 24 25 28 27 28 32 38 49 61 62 74 75 72 70 75 79 78 71 69 82 93 92 97 96 97 88 84 85 75 70 65 67 71 75 79 81
69 77 92 82 46 38 49 42 32 27 26 28 27 27 31 37 46 55 60 63 67 74 71 71 71 67 65 72 82 91 95 96 96 96 90 86 86 78 75 70 66 68 76 81 83
64 77 87 90 58 44 54 42 33 30 26 27 28 26 27 32 40 48 53 56 60 60 65 67 63 66 62 64 80 83 84 85 89 95 92 91 88 78 74 74 71 68 67 73 76
63 61 89 94 66 42 60 39 34 31 29 30 30 28 29 33 35 41 46 48 49 53 56 55 63 65 65 68 66 67 73 76 79 90 89 93 88 80 75 71 72 70 67 67 69
55 69 89 90 70 45 62 41 36 32 33 29 29 30 31 32 33 37 40 43 44 47 52 55 65 63 64 60 60 70 75 77 81 82 85 93 86 81 77 77 73 74 69 65 63
32 71 81 95 80 46 66 45 37 37 37 33 30 30 31 33 33 35 35 38 43 46 47 51 53 54 57 61 61 62 66 66 67 79 83 85 88 82 79 78 73 70 71 66 61
32 61 93 94 76 49 66 50 40 43 47 32 34 31 30 32 32 35 37 40 40 47 49 49 49 51 53 54 56 61 59 57 64 68 74 74 74 81 72 73 73 71 68 67 64
43 53 89 97 76 52 62 56 46 42 59 33 36 33 35 34 31 33 35 37 39 42 46 47 53 53 51 52 55 57 58 60 65 67 70 71 73 66 71 68 69 72 65 63 65
41 48 84 98 78 54 70 59 55 53 54 44 41 39 38 36 33 34 33 35 39 40 41 44 50 56 55 54 56 58 61 65 73 73 77 64 68 63 63 57 60 61 62 64 64
37 56 74 97 69 54 77 63 65 61 38 47 46 44 41 38 36 38 34 36 37 41 45 42 42 48 56 63 63 63 70 85 90 90 81 68 76 51 48 51 52 53 52 52 57
41 54 68 96 72 56 79 69 73 37 42 41 45 45 45 41 40 41 40 42 40 42 51 54 46 47 54 63 72 77 74 80 81 86 82 76 73 56 42 45 46 47 44 46 54
58 61 68 96 71 64 80 77 60 37 37 44 46 47 48 44 40 44 42 42 41 45 49 60 57 50 56 72 77 84 92 83 87 82 84 77 60 48 46 40 38 39 43 42 41
69 72 86 94 68 66 85 72 64 34 37 41 38 43 46 48 44 44 40 40 44 47 48 54 64 52 65 71 84 88 86 97 98 97 96 73 58 49 46 48 44 41 43 44 42
68 72 87 96 72 72 86 75 60 36 35 37 40 47 44 47 46 45 40 41 48 49 54 59 66 59 71 86 87 95 98 95 93 91 88 75 59 49 48 53 50 48 45 46 46
70 84 90 95 79 80 83 73 56 36 36 37 40 42 45 43 44 44 43 42 46 49 51 53 67 70 66 75 89 93 98 98 95 94 84 76 65 51 51 50 50 52 53 49 47
69 88 93 97 82 78 81 72 53 37 36 40 43 42 43 42 35 38 39 38 42 46 52 56 71 75 65 84 86 96 98 95 99 87 86 86 63 53 54 55 51 53 56 54 52
81 90 97 98 80 77 81 66 50 38 38 44 47 48 47 39 34 35 37 38 39 42 43 46 58 61 66 75 90 88 88 91 99 98 92 74 64 55 57 60 64 63 58 54 52
87 94 92 89 73 81 79 64 45 40 47 50 51 51 46 39 33 37 34 35 38 38 39 46 55 56 53 58 80 86 82 82 95 92 94 72 69 68 66 61 62 65 64 62 59
88 93 95 74 81 80 84 59 46 48 46 47 45 47 38 33 28 31 31 29 30 37 46 53 55 54 52 51 63 75 79 82 83 90 86 86 81 73 70 66 65 68 70 66 64
85 88 81 79 85 79 70 52 47 45 42 41 43 42 33 29 27 27 27 30 35 43 48 48 51 64 64 57 66 80 83 80 81 85 90 88 81 89 83 74 70 72 71 70 67

GFSSW_prec_cthk_105.txt.gz
RH
60 63 58 43 28 30 39 42 38 40 39 30 19 20 26 27 25 30 39 55 72 72 74 84 83 59 66 75 81 83 92 97 88 93 80 78 71 65 65 62 63 64 57 72 99
62 67 64 57 40 32 35 45 46 35 38 29 21 28 35 34 32 32 43 61 71 75 83 86 78 64 79 88 84 85 77 96 91 80 88 82 75 65 71 69 67 67 64 72 87
64 65 65 61 56 35 33 42 42 38 31 25 24 31 37 34 32 40 49 58 68 79 90 93 83 80 88 87 84 79 77 90 94 88 85 85 76 72 66 69 61 57 57 70 82
81 64 70 69 66 46 37 35 42 45 27 24 26 31 35 34 37 43 51 64 76 83 90 88 79 85 84 82 78 72 71 93 94 97 91 86 76 72 65 63 62 58 58 72 90
57 81 68 71 70 56 41 37 46 47 25 24 27 30 35 37 38 42 54 73 78 83 95 89 82 91 88 72 67 63 68 92 91 98 96 83 79 79 70 66 68 68 62 71 77
52 67 85 83 77 72 40 39 52 44 25 25 28 30 35 39 41 49 69 77 82 82 89 93 82 87 83 73 61 56 65 80 81 92 92 85 79 80 74 67 69 74 69 73 77
46 55 55 72 80 78 48 36 53 35 26 26 27 29 33 37 42 51 66 71 74 78 77 82 86 82 72 66 60 50 72 73 94 92 92 87 88 83 81 74 70 80 71 73 79
40 53 52 75 68 82 72 35 54 46 29 28 28 29 30 36 43 48 56 62 70 76 71 73 77 76 73 65 64 59 84 98 90 94 94 92 83 80 76 74 73 79 77 73 74
32 38 56 68 67 77 70 44 59 53 31 28 27 28 31 34 40 47 50 54 62 68 74 67 73 71 69 70 73 73 85 91 85 89 97 91 84 79 79 77 77 83 89 84 85
24 33 42 52 71 73 67 53 59 53 33 31 28 30 28 36 38 44 51 52 55 56 64 62 65 69 64 65 64 68 77 85 83 89 97 90 78 75 76 79 77 81 82 87 89
23 27 39 42 67 69 69 54 63 51 35 29 27 29 30 37 37 41 44 50 51 53 58 57 66 71 64 62 60 63 68 77 74 83 97 92 83 74 74 76 75 73 74 77 83
18 22 26 42 62 62 74 60 63 53 37 32 28 29 31 35 36 40 42 46 48 52 49 55 64 58 62 61 59 65 64 69 69 85 90 87 86 78 74 72 72 69 67 69 73
16 31 24 31 62 71 81 65 68 55 44 38 32 29 31 32 33 37 41 43 44 46 51 49 50 53 55 57 59 62 62 66 69 81 83 80 83 80 75 78 74 70 66 67 68
18 39 43 44 70 77 65 61 72 59 51 40 36 32 30 32 31 34 38 42 45 48 47 47 48 48 49 52 51 57 57 61 70 79 84 79 81 78 78 77 78 75 70 67 66
20 33 46 45 66 89 72 67 76 57 56 38 39 35 36 34 31 32 33 35 41 44 45 46 50 48 49 48 50 50 56 61 68 70 71 77 77 75 72 68 67 73 75 73 68
21 26 47 51 71 94 73 66 73 71 53 45 42 39 39 36 33 32 30 31 34 37 39 42 46 49 52 54 56 57 61 66 70 70 79 64 69 58 67 61 65 64 65 70 72
24 29 47 57 84 88 73 72 81 82 43 46 48 44 42 40 37 37 34 33 34 34 38 35 39 47 54 59 61 66 68 79 80 79 70 63 71 49 50 47 55 58 62 73 74
42 33 49 58 70 86 70 85 87 72 44 41 46 46 45 42 41 40 37 36 36 38 46 49 41 46 55 63 71 77 75 76 78 79 75 72 73 50 45 41 49 55 58 65 72
81 60 53 71 63 84 70 86 79 61 40 44 46 47 48 45 42 42 40 38 38 41 41 50 49 47 54 62 75 82 92 86 89 78 71 66 57 44 43 42 40 46 50 51 59
89 77 71 77 72 87 70 82 80 59 42 43 40 44 47 48 45 43 40 38 40 43 44 48 58 51 57 62 75 89 92 99 97 97 89 66 58 47 43 44 41 42 44 50 52
86 79 83 79 86 87 76 82 80 64 42 42 39 45 43 48 46 46 39 40 44 45 47 52 61 56 53 68 80 88 95 96 96 91 85 76 58 47 43 44 49 46 46 46 49
71 81 82 78 90 90 72 81 80 60 44 41 39 43 45 47 49 44 40 39 41 46 46 49 57 60 54 65 75 89 99 99 95 94 85 75 63 56 54 50 51 51 47 52 50
87 86 76 87 88 92 69 81 79 60 42 40 41 44 45 46 42 39 38 36 40 44 48 48 62 63 49 60 73 83 88 92 98 97 86 79 66 57 59 59 52 53 56 55 54
90 82 81 88 90 90 73 83 78 51 39 40 45 48 49 47 38 36 37 36 35 40 41 42 52 55 59 52 70 82 78 85 91 97 97 83 72 64 63 64 62 61 58 58 57
89 80 80 90 94 93 79 83 65 48 42 50 53 51 50 44 35 36 33 33 35 37 38 40 49 55 53 53 53 67 75 81 83 85 97 93 83 74 73 69 67 67 64 61 59
85 79 83 90 95 84 82 83 64 47 53 52 49 51 47 34 26 31 31 31 28 33 40 44 46 54 55 50 48 65 66 70 72 72 81 84 86 82 81 73 66 68 71 70 66
77 87 90 93 86 81 77 73 56 50 47 44 47 47 45 34 29 28 28 28 32 38 43 43 51 59 58 56 55 67 75 81 79 78 77 80 75 82 80 77 74 73 72 71 71

GFSSW_prec_cthk_108.txt.gz
RH
54 54 58 55 47 50 48 30 34 40 35 41 48 31 27 28 28 29 29 36 59 66 71 72 77 82 73 74 80 72 83 82 90 93 86 84 88 84 74 82 74 65 66 63 66
48 61 57 68 60 48 56 42 34 40 34 49 43 29 29 29 29 29 36 43 66 73 79 84 83 80 79 74 85 81 79 85 87 91 91 92 88 82 76 79 80 74 70 62 64
47 50 61 63 68 54 57 55 30 37 40 50 33 28 29 28 30 35 41 55 65 70 83 83 82 82 78 82 84 77 80 81 95 97 98 90 88 88 80 72 72 65 66 63 69
44 47 49 55 69 71 63 63 33 39 50 53 33 27 29 32 37 39 50 60 68 72 80 76 83 88 85 77 80 81 83 90 93 98 93 94 88 88 82 65 73 65 64 63 62
34 43 46 52 62 67 78 67 57 40 50 45 31 28 29 34 36 44 56 62 69 78 77 80 89 93 81 74 72 74 82 87 88 92 93 89 83 91 86 80 68 71 77 73 73
30 38 42 49 56 52 58 67 60 38 53 38 28 27 29 34 37 46 57 62 69 73 83 84 82 91 85 74 71 71 74 78 76 87 91 97 90 94 77 74 70 77 78 71 70
27 35 40 44 49 59 61 59 67 49 54 49 29 29 28 30 37 45 56 60 66 74 79 90 90 88 81 74 66 65 66 73 81 89 86 93 85 82 79 73 71 79 79 72 78
21 31 39 47 47 58 54 55 58 53 58 59 32 30 26 28 35 42 50 56 67 75 71 82 84 77 73 69 62 57 57 70 78 76 91 90 83 83 78 71 72 73 75 85 79
22 26 32 45 43 46 53 54 60 50 59 59 32 30 26 27 33 41 47 54 64 69 73 81 83 76 67 65 55 50 51 68 68 81 90 89 91 82 76 73 75 73 79 87 81
18 19 25 35 39 40 50 53 62 42 61 64 35 34 27 29 32 39 46 53 57 59 67 66 74 77 72 63 55 51 58 61 64 74 76 89 90 81 77 76 76 75 79 85 86
14 11 17 20 29 39 47 50 56 48 61 57 32 29 28 31 34 37 42 47 51 56 60 61 73 66 62 62 59 58 58 53 68 64 67 88 86 84 77 80 72 72 77 87 89
19 14 25 23 25 41 52 57 55 63 62 51 34 31 31 33 36 37 40 43 44 48 52 56 59 59 62 61 61 61 57 61 58 55 70 83 85 80 74 76 74 72 78 80 89
29 23 36 36 40 40 55 60 59 60 69 52 39 34 33 32 35 38 40 40 42 41 49 54 52 52 54 54 56 59 57 58 55 56 71 77 77 80 76 77 73 70 72 77 80
43 29 38 43 44 50 54 65 66 52 70 52 43 39 35 35 33 37 39 41 42 45 44 44 45 49 51 49 47 51 53 55 57 60 76 71 69 82 80 75 71 70 68 70 74
59 37 24 44 49 57 69 71 64 57 70 46 47 39 37 36 34 36 36 37 34 38 41 42 45 45 47 48 50 52 52 50 54 57 61 70 70 69 78 78 72 68 65 63 66
70 44 26 35 53 56 77 63 60 75 71 48 45 40 39 36 35 36 34 34 33 35 35 38 41 47 49 51 55 55 56 60 62 62 59 51 63 48 62 70 77 75 74 75 71
75 49 33 36 56 56 77 66 74 87 58 48 48 44 39 39 37 37 34 32 30 34 40 36 35 40 49 54 55 60 66 73 71 74 55 52 61 46 50 64 72 70 75 76 75
69 62 35 37 61 79 75 77 81 88 65 44 49 47 43 41 41 42 38 32 33 33 38 42 41 42 50 57 65 70 73 74 69 64 54 54 55 44 45 48 63 64 61 61 60
68 82 52 64 78 91 84 80 78 82 49 45 48 45 46 45 43 44 39 34 35 35 36 39 42 40 45 53 62 88 83 81 81 70 65 56 45 43 42 43 50 62 53 53 58
72 85 63 68 73 80 85 75 83 69 46 46 44 43 38 44 43 41 36 37 38 38 39 40 51 48 50 52 62 82 89 98 95 92 74 55 47 42 44 44 43 52 55 53 56
76 88 93 96 88 74 81 79 80 73 54 44 43 42 39 44 43 42 36 40 41 42 42 45 50 48 49 54 64 70 85 94 98 91 72 60 51 47 47 48 47 46 51 53 52
81 93 92 83 74 76 76 77 78 72 56 46 40 42 42 45 46 42 36 35 39 44 44 45 49 52 43 50 64 77 92 93 95 92 93 74 63 59 58 57 51 51 55 58 61
84 94 93 85 81 84 80 75 82 69 47 42 42 43 46 46 43 38 35 34 39 44 43 41 52 50 41 54 57 76 83 85 90 95 87 76 69 68 63 61 55 58 58 59 63
89 92 87 84 88 95 78 80 79 65 42 41 44 46 47 47 38 33 33 33 34 38 37 38 49 51 46 51 55 68 70 75 84 92 93 81 75 63 65 63 64 62 62 62 59
87 87 83 79 89 92 76 83 75 59 43 44 51 49 47 45 34 33 30 32 32 32 32 33 40 45 40 41 42 55 61 61 76 76 83 88 94 74 74 72 67 69 67 67 68
83 84 88 93 94 94 86 83 69 50 44 54 50 52 48 34 25 26 28 29 25 28 33 38 46 49 47 45 47 48 52 58 66 66 70 69 78 76 76 74 73 75 72 70 66
69 80 92 93 96 93 82 80 66 45 48 46 49 48 48 38 29 27 27 26 28 33 35 37 44 49 46 45 57 62 64 73 79 77 80 79 71 74 77 78 80 77 76 74 72

GFSSW_prec_cthk_111.txt.gz
RH
37 41 47 48 53 58 50 48 45 47 30 27 33 45 45 36 29 27 29 31 34 51 59 63 67 75 79 85 78 80 90 86 72 74 69 79 92 85 88 91 81 67 81 67 66
37 39 44 47 50 55 56 58 51 49 30 31 41 44 43 32 28 26 32 35 42 58 56 64 69 75 74 74 78 85 89 80 74 81 91 78 90 91 92 89 74 71 74 65 70
29 37 46 44 46 51 57 55 53 53 41 32 46 47 38 30 29 31 34 42 51 57 60 65 68 71 76 74 73 84 90 78 80 94 96 79 89 92 97 85 71 67 81 67 70
30 31 41 40 47 53 57 51 45 55 63 40 44 46 36 30 33 32 39 48 53 58 68 71 73 80 85 69 78 83 82 80 87 86 90 93 95 95 93 80 71 60 75 80 63
31 29 35 42 45 54 56 50 44 51 68 40 42 46 33 29 29 33 41 49 54 62 69 74 84 88 92 81 73 74 85 83 86 82 83 91 93 91 86 84 81 90 97 69 73
29 26 28 39 52 50 53 53 51 48 51 44 48 57 40 28 27 33 41 52 56 63 70 76 85 91 89 81 78 75 78 80 81 75 83 87 84 88 79 87 90 91 86 69 70
29 26 26 33 43 52 52 57 53 43 49 48 53 59 46 27 27 33 41 51 56 67 70 81 83 89 86 75 71 76 73 76 76 78 78 78 74 79 78 89 86 77 87 79 80
29 26 17 26 38 50 49 57 53 44 45 45 58 64 37 24 28 34 42 50 56 64 68 77 88 88 85 75 70 69 71 77 71 72 71 69 83 85 76 85 85 82 80 82 79
30 24 15 19 28 36 45 52 55 46 54 42 58 63 37 26 28 37 42 46 56 63 69 78 84 81 72 73 68 59 58 65 55 63 72 79 74 84 92 87 81 78 80 90 87
39 27 15 14 18 28 38 50 43 44 54 43 61 64 33 28 30 35 40 43 51 61 67 69 75 77 71 79 89 66 56 64 65 70 66 65 68 86 86 78 79 80 79 79 90
45 32 18 28 27 23 30 42 49 52 51 43 59 57 30 28 30 35 38 43 49 53 62 64 75 75 62 60 58 59 58 55 52 60 61 60 67 85 83 80 77 79 79 76 79
49 42 26 44 41 34 38 48 49 52 50 51 58 51 33 29 32 34 36 42 44 48 55 56 62 64 60 63 63 59 54 53 57 52 53 55 71 79 80 79 81 76 74 73 85
59 60 47 34 48 51 45 51 52 58 53 59 62 51 40 31 33 35 36 39 40 43 48 53 63 51 54 58 57 58 62 58 56 58 52 62 68 79 74 75 75 75 73 78 80
68 79 64 32 41 55 56 44 50 67 64 59 63 56 39 34 34 33 37 39 39 42 43 41 44 46 51 55 57 59 54 55 56 58 58 55 81 74 73 73 75 74 75 77 84
85 90 77 37 44 62 68 55 68 65 68 58 59 47 40 37 35 35 36 37 38 38 42 45 41 45 44 47 53 58 56 53 51 52 53 55 61 73 73 73 69 71 73 75 78
95 98 86 42 38 58 69 66 78 73 69 65 50 44 40 35 35 34 33 33 33 32 32 32 35 40 45 47 46 50 53 55 57 55 56 49 54 68 72 76 75 71 72 73 74
98 99 80 44 45 61 74 73 80 81 60 61 50 42 38 39 37 36 35 35 35 40 46 36 34 34 40 47 49 52 63 81 77 72 56 48 50 62 56 68 77 74 72 69 71
99 86 59 47 55 62 75 71 84 74 69 49 47 41 42 39 39 40 40 39 34 33 40 39 47 37 41 50 65 78 79 85 87 75 56 53 53 63 50 51 67 72 74 72 72
86 89 76 45 66 85 86 85 81 86 57 45 43 43 46 41 42 41 36 31 34 33 35 39 40 36 41 44 54 75 81 80 85 69 61 56 48 46 44 47 52 64 73 73 71
82 87 67 93 92 98 85 86 84 65 51 45 38 41 42 43 39 37 32 33 37 33 33 42 48 43 44 43 61 68 86 89 83 85 69 57 49 64 49 50 47 51 62 67 69
88 87 74 76 90 95 88 87 84 63 51 43 36 38 37 40 39 36 32 34 35 37 35 39 47 48 44 52 55 69 83 86 96 91 94 73 70 57 54 52 53 48 51 60 62
88 96 98 95 87 86 90 87 81 72 52 43 35 37 41 41 42 37 33 31 35 39 42 42 43 50 40 40 52 65 73 82 84 96 82 85 86 70 61 55 56 59 52 59 62
92 98 98 94 89 85 80 87 83 71 55 39 38 40 42 45 41 35 30 32 36 39 41 38 47 50 46 55 53 59 68 71 86 90 86 82 88 74 69 66 64 62 59 54 54
92 92 87 87 90 87 78 79 84 70 50 38 39 43 46 44 34 31 31 31 32 35 34 37 46 46 41 47 48 57 57 59 76 86 81 78 88 78 78 75 72 69 67 63 58
82 90 88 87 90 88 83 84 80 63 44 38 48 49 46 41 32 29 28 31 30 30 30 33 41 39 39 39 40 45 50 52 65 69 75 68 72 79 77 76 79 74 70 68 70
78 81 77 87 91 86 86 86 75 53 40 51 50 51 46 34 27 23 26 28 24 27 33 34 46 44 45 41 44 44 44 45 53 61 62 63 65 69 78 76 80 81 77 76 70
64 70 81 87 91 88 84 80 68 43 46 46 48 49 45 37 30 26 25 26 27 31 33 34 41 48 42 40 54 57 53 57 62 63 67 67 62 65 66 70 76 77 82 84 81

GFSSW_prec_cthk_114.txt.gz
RH
29 36 41 44 48 47 49 51 52 49 49 42 30 32 34 37 45 45 37 34 33 32 42 48 51 57 61 65 67 76 83 75 63 67 49 46 63 68 63 68 86 86 85 83 96
32 31 33 41 48 49 53 54 56 52 43 45 39 32 35 36 44 41 33 31 35 44 52 50 56 58 62 65 70 77 79 67 70 72 67 70 75 89 86 81 88 91 82 89 76
34 32 31 37 43 48 51 54 56 53 45 43 49 37 43 44 47 36 31 33 41 45 51 55 60 62 64 70 71 72 73 71 77 80 84 88 90 91 92 85 83 93 84 89 92
34 33 33 33 36 45 49 53 60 52 47 45 53 40 41 49 48 32 30 35 44 47 54 59 63 69 73 80 72 74 73 76 78 92 87 85 93 88 86 71 77 89 91 82 77
35 35 34 31 32 44 50 57 63 60 52 44 42 40 40 59 52 32 30 36 44 49 57 64 67 75 81 86 90 87 70 78 80 85 85 80 78 79 76 75 79 84 80 83 91
41 36 32 22 31 39 49 62 52 60 52 45 47 38 49 65 54 32 32 38 46 52 60 65 69 79 82 89 87 85 81 75 79 79 78 72 70 73 72 71 67 80 77 78 86
49 41 31 25 23 36 45 43 58 63 52 47 41 37 54 57 38 31 33 40 48 52 60 68 68 82 84 78 70 71 86 78 77 72 73 72 68 65 63 65 74 73 76 75 80
58 51 39 30 21 27 35 48 55 54 55 49 42 42 58 58 32 30 35 43 48 54 59 66 75 74 79 76 73 65 71 81 75 74 75 74 65 65 69 76 83 77 78 73 75
71 64 50 37 26 22 30 34 48 52 53 49 52 50 57 52 30 32 36 43 47 54 64 68 68 75 71 73 75 70 75 80 74 70 68 69 69 69 73 74 76 81 79 70 85
69 68 62 42 32 29 27 32 40 48 45 46 59 51 54 55 35 32 36 39 46 55 61 68 68 71 69 77 90 87 88 79 77 72 71 68 70 65 71 81 77 79 82 87 90
65 61 71 54 33 43 37 31 40 44 42 52 50 48 58 44 31 32 35 38 46 53 58 65 73 85 82 67 64 69 67 67 62 64 62 59 56 64 72 78 77 72 71 79 79
65 64 69 64 36 50 50 39 45 53 52 56 49 55 58 40 36 34 32 37 45 48 53 58 62 65 69 60 68 68 70 72 71 66 62 52 51 68 74 77 74 71 70 77 79
79 91 88 83 52 46 58 55 52 59 49 54 60 64 56 42 37 36 34 37 37 40 45 48 49 53 55 56 64 66 75 70 73 62 59 64 59 66 78 78 78 72 74 80 88
69 94 96 97 57 51 59 54 59 57 74 60 60 64 54 41 35 32 32 32 34 37 40 41 41 45 46 50 56 60 68 60 54 61 82 63 64 63 72 80 83 79 76 73 83
76 96 97 98 46 58 65 63 54 66 79 63 61 59 51 43 36 34 31 32 31 33 37 40 43 44 45 52 51 53 55 62 53 59 60 58 62 90 74 72 78 75 78 81 78
94 97 98 86 44 58 78 68 75 80 82 65 59 51 41 36 33 31 29 28 28 29 32 33 29 34 40 37 42 44 46 51 58 64 70 58 61 96 82 83 79 76 73 74 78
97 98 97 66 51 72 74 83 88 88 58 68 55 44 43 36 34 33 32 35 32 40 47 39 37 39 42 44 48 68 64 86 91 85 76 55 58 77 67 75 83 87 79 77 79
88 84 79 46 46 79 82 95 91 72 62 62 49 42 40 37 38 36 36 39 34 34 47 48 52 42 36 46 54 71 86 97 96 96 93 59 81 66 58 65 76 91 87 81 77
90 96 62 52 49 73 91 98 93 77 60 55 46 43 43 38 42 41 32 33 33 34 38 52 40 41 43 39 54 70 87 85 96 77 76 70 61 54 53 53 64 77 84 78 75
87 65 69 76 86 96 95 94 79 60 59 53 44 44 47 41 43 39 31 35 35 34 32 46 54 46 43 49 63 77 81 89 90 90 73 75 74 73 60 56 55 58 65 72 83
80 92 95 97 93 94 98 90 74 59 48 46 41 38 39 39 37 33 31 37 32 35 39 43 47 44 46 52 51 68 82 83 91 91 97 96 95 71 66 57 57 57 61 68 76
73 80 90 99 94 92 94 86 77 58 45 40 37 38 40 41 41 33 35 29 33 34 39 39 39 53 50 51 51 59 67 79 86 86 93 98 98 76 69 63 62 60 57 62 70
83 88 94 95 97 94 81 79 71 55 42 38 37 38 39 43 39 30 29 28 30 33 35 34 43 55 57 59 50 53 58 62 81 83 85 92 98 78 72 68 65 62 58 59 61
75 80 85 88 91 91 85 78 68 51 43 38 41 43 46 40 27 28 31 28 28 30 31 34 44 46 53 47 42 51 51 54 68 80 83 87 89 95 78 75 68 68 69 64 62
66 75 80 80 79 80 79 78 66 50 39 42 49 46 45 34 29 28 26 28 27 25 27 34 40 39 37 37 41 44 45 46 58 61 74 70 72 74 74 74 76 71 70 73 68
54 63 69 76 74 76 76 75 59 41 41 46 50 48 40 32 27 28 25 26 25 26 31 32 46 45 44 35 39 40 39 39 45 54 57 63 68 74 73 72 67 72 72 72 70
49 56 64 71 70 73 74 66 53 40 42 45 47 47 40 32 26 23 23 24 24 29 30 33 41 49 45 39 52 53 46 48 52 56 59 63 67 70 70 67 66 67 70 70 72

GFSSW_prec_cthk_117.txt.gz
RH
41 38 37 35 43 47 47 56 51 56 57 47 45 41 28 34 32 34 39 40 40 38 34 37 49 54 61 60 63 69 69 60 55 57 42 41 45 40 37 41 29 44 47 49 55
41 39 36 35 36 43 45 49 55 60 56 47 43 39 33 36 35 35 36 43 38 34 40 47 52 60 63 63 64 67 67 58 57 57 48 46 52 47 46 49 33 48 49 53 55
42 38 37 36 34 37 42 63 54 54 53 46 44 38 38 39 41 46 40 40 34 40 43 49 55 62 64 63 66 67 62 61 65 60 66 61 60 58 56 54 37 42 55 59 58
50 45 39 36 29 35 38 62 54 64 55 50 45 39 41 36 49 53 52 37 38 40 46 55 61 67 64 68 68 71 68 67 70 72 75 76 78 77 75 59 62 59 59 67 64
58 52 46 38 32 35 43 71 62 61 58 49 45 47 41 44 42 54 53 36 39 42 50 60 67 66 69 71 74 74 71 71 67 76 78 81 81 78 69 67 78 71 72 81 71
70 66 60 50 39 31 43 44 61 63 50 55 45 49 48 45 52 50 40 37 41 47 53 62 66 67 72 73 74 67 73 76 76 73 80 83 74 79 70 69 78 75 74 78 81
67 74 71 61 49 36 35 46 53 53 56 54 51 49 44 36 47 53 35 38 43 50 55 63 65 64 70 71 66 65 68 74 77 82 87 88 81 81 72 69 73 71 73 80 76
71 69 77 70 58 45 35 46 49 55 56 47 52 52 43 42 47 42 35 39 45 50 58 61 65 70 74 71 68 68 68 76 73 77 84 84 77 70 73 75 75 75 81 82 79
74 74 70 77 75 60 50 33 37 44 54 45 50 59 48 44 48 37 36 41 45 52 57 65 68 68 72 77 76 81 88 86 83 79 81 83 72 63 66 67 73 78 80 79 79
74 71 74 78 78 52 51 42 34 38 45 47 50 64 45 49 54 38 36 40 43 52 57 64 69 71 75 82 85 87 85 82 86 77 82 82 72 62 60 59 70 76 78 79 76
71 80 85 81 76 54 59 47 37 39 44 45 54 51 47 52 38 33 37 41 46 49 55 58 70 75 77 76 78 78 73 77 78 77 75 71 65 65 60 66 76 84 83 88 85
75 73 92 97 88 58 51 43 44 46 47 48 53 50 50 53 38 37 36 39 45 48 50 60 61 55 63 68 69 67 75 83 87 85 76 64 64 72 67 72 80 72 72 79 82
98 77 82 95 97 61 55 49 54 47 53 55 60 62 63 50 42 39 37 39 40 40 44 50 44 46 49 54 55 63 71 76 74 69 64 70 71 76 74 70 75 70 71 76 81
90 86 89 97 95 60 67 64 61 58 66 59 55 66 62 48 38 35 33 36 39 40 39 38 46 48 50 52 59 60 63 64 65 63 63 59 78 76 82 83 78 75 79 82 79
96 96 98 98 69 67 64 56 54 68 71 63 61 66 56 44 38 36 32 34 32 30 30 32 34 36 37 41 51 53 51 56 60 63 55 63 91 96 92 92 91 88 85 84 78
94 98 98 83 54 69 67 59 57 81 81 62 60 57 47 38 32 29 29 31 30 33 36 37 38 43 45 39 49 47 49 47 49 59 69 64 85 84 78 89 91 89 89 90 87
86 90 65 45 60 74 69 76 90 80 68 68 59 54 45 35 33 34 38 37 35 37 39 39 44 46 43 41 54 68 71 82 84 79 85 64 78 83 72 89 89 93 90 91 97
86 66 53 63 69 85 95 91 80 74 73 60 51 45 40 38 36 39 38 38 33 33 47 53 52 46 50 55 65 77 89 98 97 93 89 70 73 84 68 73 83 92 92 90 91
66 53 46 67 92 94 95 82 83 72 65 59 50 45 40 39 40 39 37 36 37 34 41 53 49 48 52 61 73 78 87 83 97 95 91 87 76 68 64 65 75 84 92 89 83
54 52 57 76 91 88 84 71 74 69 58 53 49 43 42 43 40 33 35 37 35 35 40 44 54 48 48 43 52 73 77 83 87 94 96 92 92 81 68 68 70 75 83 84 85
57 58 78 83 83 80 79 70 64 53 46 46 46 42 40 39 36 30 37 37 33 33 39 36 45 47 46 54 61 68 74 79 82 87 97 95 92 76 69 67 69 70 70 78 75
56 60 68 70 70 72 70 61 52 42 36 35 36 39 43 42 35 31 33 29 31 32 36 34 42 57 57 50 47 55 62 69 77 88 94 91 93 82 73 66 67 68 65 68 69
56 61 60 60 68 72 64 56 45 37 36 37 38 40 39 34 34 27 30 27 27 27 31 33 40 53 51 44 34 49 54 61 74 80 85 96 93 77 73 65 62 66 66 62 61
58 59 60 59 59 64 59 50 41 35 38 41 43 42 40 29 23 26 29 26 25 25 28 32 42 41 50 46 42 45 48 52 60 74 81 80 79 81 76 72 68 64 64 65 61
64 58 56 59 58 57 53 46 36 37 38 43 42 40 34 29 25 25 26 27 24 23 26 31 38 39 37 38 37 39 39 43 52 58 70 63 74 76 73 70 70 69 66 64 64
54 65 58 56 57 56 53 42 34 35 37 41 46 42 30 28 26 25 24 26 24 24 27 30 41 42 47 41 41 37 34 35 40 47 50 55 64 67 65 68 68 67 67 68 70
55 65 67 54 57 56 53 41 34 33 36 38 41 40 31 27 22 22 22 22 23 25 27 31 37 44 42 40 47 45 37 39 43 42 48 54 57 59 59 61 68 67 65 72 71

GFSSW_prec_cthk_120.txt.gz
RH
52 51 48 43 40 43 48 53 56 68 58 52 50 46 40 37 31 32 29 32 34 42 41 45 46 47 48 52 57 56 60 55 45 43 36 37 41 36 38 39 28 26 29 25 32
59 59 51 45 42 42 45 46 52 63 63 64 54 48 41 37 33 30 33 35 38 40 45 48 51 51 56 60 60 63 62 51 44 42 44 43 44 38 42 41 35 28 27 27 33
72 65 61 53 45 37 41 41 50 67 60 55 52 49 39 39 33 38 40 44 46 48 46 48 47 54 61 61 64 66 61 52 49 47 48 46 46 52 48 43 35 26 20 20 30
78 80 76 65 55 41 43 51 61 68 63 67 56 48 41 36 38 45 46 50 58 53 46 45 50 61 64 64 65 70 66 65 59 56 57 55 59 58 59 45 49 38 27 25 34
82 82 91 82 71 53 42 62 76 84 77 62 59 49 48 47 34 44 49 50 54 49 44 48 57 64 63 66 68 70 67 68 68 67 61 63 65 65 55 58 58 52 44 34 39
88 84 89 95 87 67 47 48 76 84 73 60 57 43 44 51 45 51 52 46 51 45 47 57 62 69 69 69 72 71 67 65 67 71 74 70 64 72 60 63 60 57 53 39 41
93 94 86 88 97 80 59 41 61 67 66 60 50 49 50 39 46 50 50 45 47 46 53 61 66 67 66 70 71 73 73 70 71 74 75 77 77 74 72 70 71 71 71 58 43
95 94 91 88 90 85 72 52 57 65 61 61 48 52 52 40 43 50 48 42 45 47 57 63 67 68 73 74 74 73 75 85 75 78 80 84 80 69 68 71 70 71 75 70 60
72 74 90 93 90 91 74 62 44 58 60 57 45 51 57 43 45 50 41 42 45 53 60 66 71 71 72 75 75 76 85 84 81 81 83 89 76 69 75 75 76 77 75 87 78
91 81 84 95 89 90 78 87 69 62 46 49 42 58 58 46 52 54 42 44 46 52 59 65 70 74 75 79 80 83 81 76 79 80 85 84 71 70 77 79 75 75 86 96 97
96 94 75 94 97 85 71 73 72 50 38 38 49 59 53 49 50 35 38 44 47 51 58 60 66 67 70 75 84 83 83 79 71 82 83 73 75 84 89 76 76 82 93 98 96
88 93 81 87 95 88 64 64 60 42 37 40 54 58 51 54 43 40 41 42 46 52 55 57 58 56 58 67 71 72 78 71 70 74 77 72 82 89 90 76 83 92 93 92 93
94 84 79 90 97 76 64 62 49 46 50 48 64 60 57 56 44 43 40 40 42 42 44 51 46 48 50 51 58 62 66 73 71 61 57 66 77 91 88 93 92 90 87 92 97
97 93 91 92 91 68 62 49 45 51 57 61 58 69 71 50 42 37 35 37 41 41 40 42 48 44 43 44 52 56 66 66 63 66 68 65 90 89 88 92 93 95 94 93 92
95 95 88 77 61 73 60 61 53 63 66 59 63 69 58 48 38 33 33 34 34 34 36 38 43 44 51 48 49 53 43 51 57 67 68 75 94 85 89 94 96 97 97 95 97
72 61 49 54 59 56 56 70 70 69 72 63 65 61 45 37 31 32 37 37 34 33 38 43 47 48 54 49 57 64 57 50 52 66 84 80 96 89 88 96 93 95 96 99 97
47 39 44 51 54 52 59 69 67 68 63 66 60 48 39 35 36 38 38 35 35 37 40 46 48 52 58 71 62 76 67 78 74 88 91 83 89 98 88 90 95 97 95 92 97
47 59 67 67 67 71 71 68 67 72 69 59 47 40 38 37 38 37 36 38 35 35 48 54 54 54 57 73 77 81 86 97 86 97 93 78 97 93 85 88 85 94 94 89 96
49 61 63 64 66 62 59 64 74 67 60 51 43 40 41 40 39 35 40 43 38 40 47 52 51 50 50 56 71 77 88 94 98 91 84 91 88 80 81 83 83 88 93 89 93
50 55 56 53 56 55 57 63 64 54 47 43 41 39 45 40 34 33 38 36 35 39 44 39 52 45 46 56 62 71 76 82 86 88 93 90 88 93 81 80 76 83 83 88 90
47 47 50 45 44 46 55 52 46 43 40 39 40 39 39 34 30 34 34 34 31 34 37 34 42 42 47 56 62 62 69 77 78 83 86 89 90 84 77 75 75 78 77 82 83
52 52 48 42 43 48 44 36 33 33 32 33 34 38 37 30 28 31 30 28 28 29 31 36 41 53 49 46 49 52 58 73 72 77 76 80 88 80 74 71 71 70 70 74 81
48 50 46 43 47 47 37 33 33 31 33 35 37 35 24 25 28 29 28 25 25 27 30 30 39 50 37 35 37 48 51 60 69 72 79 77 82 74 72 70 67 65 61 62 66
47 50 48 48 48 43 34 31 34 34 35 37 38 32 26 24 23 25 28 25 22 24 27 28 39 38 41 39 42 45 43 45 55 69 72 70 70 74 73 69 66 67 63 61 62
38 46 49 57 50 45 34 29 32 34 35 37 35 31 27 24 23 24 24 25 22 24 24 26 34 37 35 37 36 38 36 35 43 50 58 53 59 67 70 68 67 63 64 61 60
39 46 51 51 53 49 37 31 31 31 33 36 37 31 24 25 23 23 23 23 22 23 23 29 37 42 40 37 40 35 32 32 35 38 41 46 49 55 55 61 65 66 65 62 61
40 44 44 47 54 52 43 38 32 30 31 34 35 34 27 23 21 22 21 21 22 24 25 28 35 42 41 40 38 32 32 31 37 38 40 47 41 47 49 52 55 60 62 62 63

GFSSW_prec_cthk_123.txt.gz
RH
78 75 69 65 56 53 52 61 56 63 71 72 59 51 52 44 40 30 30 29 31 37 36 37 39 43 47 46 48 48 51 49 43 38 37 35 38 37 40 40 33 29 27 26 23
82 88 84 78 66 54 48 54 57 60 70 77 64 54 54 45 38 30 31 33 34 38 39 39 42 50 51 52 51 53 53 44 38 35 35 34 36 36 41 38 37 33 29 25 20
96 93 95 96 85 67 50 52 51 60 68 70 64 51 53 40 37 37 37 39 42 49 49 46 51 54 52 50 54 54 51 43 38 40 44 42 41 46 42 39 31 31 30 32 28
97 96 93 97 98 86 60 64 62 66 80 71 63 61 55 45 37 42 41 46 51 54 60 59 56 59 52 55 53 54 50 50 47 52 54 56 53 46 48 35 36 36 34 35 36
98 97 97 97 97 97 73 66 77 77 77 81 78 64 51 53 42 39 42 48 54 54 59 58 59 55 59 56 56 58 55 56 56 58 59 62 59 57 46 43 42 40 40 33 31
97 97 98 97 98 98 88 61 78 90 95 91 78 59 50 53 46 43 48 51 57 57 56 60 55 62 64 64 68 63 62 62 61 60 65 69 62 64 51 47 46 45 41 37 36
90 91 93 92 97 98 94 69 71 94 96 85 72 56 51 44 48 46 47 53 60 58 62 58 62 68 68 66 68 70 69 68 65 69 74 72 71 66 59 59 56 55 50 43 37
91 93 77 93 96 96 94 73 58 88 89 77 55 53 49 43 43 44 47 54 55 57 54 59 67 71 71 72 73 73 77 76 70 75 75 78 73 67 71 69 61 58 54 51 48
86 90 94 84 98 96 88 80 56 78 67 59 51 50 53 44 45 46 51 55 51 50 56 67 71 73 76 78 77 74 77 78 76 75 82 85 78 67 69 71 69 66 62 57 55
88 82 95 88 97 95 86 83 70 76 65 53 48 51 54 49 44 49 56 49 48 53 61 66 71 75 78 82 84 77 78 71 76 69 82 85 76 71 78 78 78 75 67 68 66
87 89 90 90 95 88 90 90 72 62 55 46 45 52 60 45 49 50 42 43 46 53 63 63 69 72 73 75 80 82 89 81 75 70 74 80 73 84 90 92 83 71 70 71 80
91 77 84 95 92 77 85 79 74 53 39 47 48 57 50 47 51 39 38 41 46 54 59 66 66 63 67 68 71 74 74 70 66 67 66 70 73 87 95 95 92 93 90 89 90
83 76 77 84 76 77 75 74 56 41 46 54 59 57 53 52 43 41 38 41 49 52 56 61 46 52 57 58 60 61 63 62 63 66 61 66 73 84 88 90 90 90 97 98 91
71 70 72 68 67 69 52 49 47 45 50 65 63 61 64 46 42 38 39 42 46 48 48 46 54 54 55 58 54 57 45 61 60 69 72 67 90 87 88 91 88 91 95 97 94
49 43 47 58 56 48 43 44 44 46 59 55 61 63 50 46 36 32 35 39 43 41 48 50 57 63 65 61 58 57 59 50 58 68 76 74 93 86 88 92 90 96 93 96 99
39 41 42 40 42 36 38 45 47 45 67 64 59 52 40 33 31 37 38 37 39 38 44 54 60 61 70 68 67 76 65 54 58 76 86 80 89 90 93 95 95 96 92 98 98
37 38 37 39 44 44 47 44 47 61 59 56 48 38 36 35 36 38 36 36 39 40 44 51 57 57 66 70 71 73 67 79 80 95 89 85 87 98 90 89 92 96 97 98 99
47 46 43 44 45 46 45 44 56 59 57 47 39 36 36 36 33 35 36 40 40 45 51 58 57 55 62 72 82 90 87 82 96 96 90 84 96 98 89 85 91 95 96 97 99
50 47 46 46 44 42 41 54 55 49 43 40 36 36 37 35 36 35 38 38 40 43 52 54 53 53 63 68 76 80 83 91 94 83 79 90 90 81 82 82 86 90 95 97 96
45 44 42 41 41 40 44 48 46 40 38 37 36 36 36 33 31 34 36 32 35 38 40 37 54 48 57 59 61 72 72 73 76 77 83 80 89 88 80 84 81 83 90 95 97
37 37 37 33 31 31 40 41 38 37 37 35 35 35 30 31 31 33 29 30 29 30 35 37 42 42 51 55 60 59 66 71 72 76 76 80 83 83 80 81 79 81 82 89 92
33 36 31 27 28 35 35 34 33 33 31 32 33 30 29 28 27 29 26 28 27 29 30 33 39 52 48 44 44 53 58 66 68 70 68 71 78 74 73 69 71 76 75 78 84
33 31 30 24 38 38 33 33 32 30 32 33 32 23 21 24 24 28 26 23 24 28 30 30 36 43 31 34 35 44 47 54 65 68 70 68 69 69 68 66 65 66 70 65 73
34 37 31 29 34 35 36 34 35 35 36 35 32 26 23 22 22 24 25 23 21 25 28 28 39 36 36 37 41 43 40 40 50 63 64 64 62 64 64 61 64 60 62 58 57
34 40 39 35 32 33 33 33 37 37 35 35 32 27 26 22 22 22 21 21 20 23 25 24 32 37 35 36 37 37 37 33 42 48 50 45 54 56 58 58 60 60 58 56 55
31 36 41 44 37 29 30 34 33 34 35 36 35 29 25 23 23 22 22 22 21 21 22 26 34 38 36 35 38 38 32 32 34 37 40 43 46 49 51 51 55 59 59 59 59
33 37 38 41 40 38 32 32 32 31 33 35 35 34 25 24 23 25 24 23 24 25 23 27 33 37 31 36 33 25 26 28 32 35 36 43 37 47 49 51 51 53 55 55 55